<?xml version="1.0" encoding="UTF-8" standalone="no" ?>
<gpx xmlns="http://www.topografix.com/GPX/1/1" xmlns:xsi="http://www.w3.org/2001/XMLSchema-instance" xsi:schemaLocation="http://www.topografix.com/GPX/1/1 http://www.topografix.com/GPX/1/1/gpx.xsd" version="1.1" creator="VisuGPX - https://www.visugpx.com">
  <metadata>
    <name>Pic de Brougat-refuge du Pinet</name>
    <desc><![CDATA[Pic de Brougat-refuge du Pinet]]></desc>
  </metadata>
  <trk>
    <name><![CDATA[Rando-course]]></name>
    <trkseg>
      <trkpt lat="42.70124" lon="1.37989">
        <ele>2353.4448242188</ele>
        <time>2012-09-15T12:22:11Z</time>
      </trkpt>
      <trkpt lat="42.70124" lon="1.37992">
        <ele>2352.4833984375</ele>
        <time>2012-09-15T12:22:18Z</time>
      </trkpt>
      <trkpt lat="42.70123" lon="1.37998">
        <ele>2352.4833984375</ele>
        <time>2012-09-15T12:22:24Z</time>
      </trkpt>
      <trkpt lat="42.70122" lon="1.38004">
        <ele>2352.0026855469</ele>
        <time>2012-09-15T12:22:31Z</time>
      </trkpt>
      <trkpt lat="42.70122" lon="1.38012">
        <ele>2351.0415039062</ele>
        <time>2012-09-15T12:22:38Z</time>
      </trkpt>
      <trkpt lat="42.70123" lon="1.38018">
        <ele>2350.0803222656</ele>
        <time>2012-09-15T12:22:45Z</time>
      </trkpt>
      <trkpt lat="42.70126" lon="1.38024">
        <ele>2348.6381835938</ele>
        <time>2012-09-15T12:22:52Z</time>
      </trkpt>
      <trkpt lat="42.70129" lon="1.38029">
        <ele>2346.7153320312</ele>
        <time>2012-09-15T12:22:58Z</time>
      </trkpt>
      <trkpt lat="42.70132" lon="1.38033">
        <ele>2346.2348632812</ele>
        <time>2012-09-15T12:23:04Z</time>
      </trkpt>
      <trkpt lat="42.70133" lon="1.38036">
        <ele>2346.2348632812</ele>
        <time>2012-09-15T12:23:06Z</time>
      </trkpt>
      <trkpt lat="42.70134" lon="1.38051">
        <ele>2341.9089355469</ele>
        <time>2012-09-15T12:23:13Z</time>
      </trkpt>
      <trkpt lat="42.70135" lon="1.38055">
        <ele>2339.986328125</ele>
        <time>2012-09-15T12:23:18Z</time>
      </trkpt>
      <trkpt lat="42.70136" lon="1.38056">
        <ele>2339.986328125</ele>
        <time>2012-09-15T12:23:19Z</time>
      </trkpt>
      <trkpt lat="42.70139" lon="1.38061">
        <ele>2338.5444335938</ele>
        <time>2012-09-15T12:23:23Z</time>
      </trkpt>
      <trkpt lat="42.7014" lon="1.38067">
        <ele>2338.5444335938</ele>
        <time>2012-09-15T12:23:27Z</time>
      </trkpt>
      <trkpt lat="42.70142" lon="1.38079">
        <ele>2339.0249023438</ele>
        <time>2012-09-15T12:23:35Z</time>
      </trkpt>
      <trkpt lat="42.70143" lon="1.3808">
        <ele>2338.5444335938</ele>
        <time>2012-09-15T12:23:36Z</time>
      </trkpt>
      <trkpt lat="42.70149" lon="1.38085">
        <ele>2338.0637207031</ele>
        <time>2012-09-15T12:23:43Z</time>
      </trkpt>
      <trkpt lat="42.70152" lon="1.38092">
        <ele>2337.1022949219</ele>
        <time>2012-09-15T12:23:49Z</time>
      </trkpt>
      <trkpt lat="42.70154" lon="1.38103">
        <ele>2335.1796875</ele>
        <time>2012-09-15T12:23:56Z</time>
      </trkpt>
      <trkpt lat="42.70155" lon="1.38106">
        <ele>2334.69921875</ele>
        <time>2012-09-15T12:23:59Z</time>
      </trkpt>
      <trkpt lat="42.70156" lon="1.38109">
        <ele>2334.2185058594</ele>
        <time>2012-09-15T12:24:01Z</time>
      </trkpt>
      <trkpt lat="42.70157" lon="1.38114">
        <ele>2332.7763671875</ele>
        <time>2012-09-15T12:24:05Z</time>
      </trkpt>
      <trkpt lat="42.70158" lon="1.3812">
        <ele>2331.3342285156</ele>
        <time>2012-09-15T12:24:09Z</time>
      </trkpt>
      <trkpt lat="42.70163" lon="1.38131">
        <ele>2329.4116210938</ele>
        <time>2012-09-15T12:24:17Z</time>
      </trkpt>
      <trkpt lat="42.70167" lon="1.38141">
        <ele>2328.4504394531</ele>
        <time>2012-09-15T12:24:23Z</time>
      </trkpt>
      <trkpt lat="42.70168" lon="1.38153">
        <ele>2327.0085449219</ele>
        <time>2012-09-15T12:24:30Z</time>
      </trkpt>
      <trkpt lat="42.7017" lon="1.38163">
        <ele>2325.0856933594</ele>
        <time>2012-09-15T12:24:36Z</time>
      </trkpt>
      <trkpt lat="42.70171" lon="1.38167">
        <ele>2323.6437988281</ele>
        <time>2012-09-15T12:24:39Z</time>
      </trkpt>
      <trkpt lat="42.70175" lon="1.38175">
        <ele>2321.2404785156</ele>
        <time>2012-09-15T12:24:48Z</time>
      </trkpt>
      <trkpt lat="42.70176" lon="1.38179">
        <ele>2319.7985839844</ele>
        <time>2012-09-15T12:24:53Z</time>
      </trkpt>
      <trkpt lat="42.70177" lon="1.38183">
        <ele>2318.3566894531</ele>
        <time>2012-09-15T12:24:58Z</time>
      </trkpt>
      <trkpt lat="42.70179" lon="1.38184">
        <ele>2318.8374023438</ele>
        <time>2012-09-15T12:25:03Z</time>
      </trkpt>
      <trkpt lat="42.70181" lon="1.38188">
        <ele>2317.3952636719</ele>
        <time>2012-09-15T12:25:09Z</time>
      </trkpt>
      <trkpt lat="42.70183" lon="1.38192">
        <ele>2315.953125</ele>
        <time>2012-09-15T12:25:15Z</time>
      </trkpt>
      <trkpt lat="42.70185" lon="1.38194">
        <ele>2314.9919433594</ele>
        <time>2012-09-15T12:25:20Z</time>
      </trkpt>
      <trkpt lat="42.70184" lon="1.38195">
        <ele>2314.0305175781</ele>
        <time>2012-09-15T12:25:32Z</time>
      </trkpt>
      <trkpt lat="42.70183" lon="1.38197">
        <ele>2312.1079101562</ele>
        <time>2012-09-15T12:25:41Z</time>
      </trkpt>
      <trkpt lat="42.70181" lon="1.38196">
        <ele>2311.6274414062</ele>
        <time>2012-09-15T12:25:48Z</time>
      </trkpt>
      <trkpt lat="42.70179" lon="1.38197">
        <ele>2310.666015625</ele>
        <time>2012-09-15T12:25:56Z</time>
      </trkpt>
      <trkpt lat="42.7018" lon="1.382">
        <ele>2309.7045898438</ele>
        <time>2012-09-15T12:26:01Z</time>
      </trkpt>
      <trkpt lat="42.70182" lon="1.38205">
        <ele>2308.2626953125</ele>
        <time>2012-09-15T12:26:07Z</time>
      </trkpt>
      <trkpt lat="42.70182" lon="1.38209">
        <ele>2307.3015136719</ele>
        <time>2012-09-15T12:26:14Z</time>
      </trkpt>
      <trkpt lat="42.70181" lon="1.38214">
        <ele>2307.7822265625</ele>
        <time>2012-09-15T12:26:19Z</time>
      </trkpt>
      <trkpt lat="42.70181" lon="1.38219">
        <ele>2307.7822265625</ele>
        <time>2012-09-15T12:26:24Z</time>
      </trkpt>
      <trkpt lat="42.70177" lon="1.38223">
        <ele>2307.3015136719</ele>
        <time>2012-09-15T12:26:30Z</time>
      </trkpt>
      <trkpt lat="42.70176" lon="1.38227">
        <ele>2307.3015136719</ele>
        <time>2012-09-15T12:26:35Z</time>
      </trkpt>
      <trkpt lat="42.70176" lon="1.38231">
        <ele>2307.3015136719</ele>
        <time>2012-09-15T12:26:39Z</time>
      </trkpt>
      <trkpt lat="42.70174" lon="1.38235">
        <ele>2306.8208007812</ele>
        <time>2012-09-15T12:26:44Z</time>
      </trkpt>
      <trkpt lat="42.70173" lon="1.38239">
        <ele>2307.3015136719</ele>
        <time>2012-09-15T12:26:49Z</time>
      </trkpt>
      <trkpt lat="42.70171" lon="1.38243">
        <ele>2307.7822265625</ele>
        <time>2012-09-15T12:26:54Z</time>
      </trkpt>
      <trkpt lat="42.70171" lon="1.38244">
        <ele>2307.7822265625</ele>
        <time>2012-09-15T12:27:00Z</time>
      </trkpt>
      <trkpt lat="42.70171" lon="1.38244">
        <ele>2307.3015136719</ele>
        <time>2012-09-15T12:27:07Z</time>
      </trkpt>
      <trkpt lat="42.70171" lon="1.38248">
        <ele>2306.8208007812</ele>
        <time>2012-09-15T12:27:13Z</time>
      </trkpt>
      <trkpt lat="42.7017" lon="1.3825">
        <ele>2307.3015136719</ele>
        <time>2012-09-15T12:27:24Z</time>
      </trkpt>
      <trkpt lat="42.70169" lon="1.38251">
        <ele>2307.3015136719</ele>
        <time>2012-09-15T12:27:32Z</time>
      </trkpt>
      <trkpt lat="42.70169" lon="1.38252">
        <ele>2307.3015136719</ele>
        <time>2012-09-15T12:27:45Z</time>
      </trkpt>
      <trkpt lat="42.70166" lon="1.38253">
        <ele>2306.3400878906</ele>
        <time>2012-09-15T12:27:52Z</time>
      </trkpt>
      <trkpt lat="42.70164" lon="1.38255">
        <ele>2305.37890625</ele>
        <time>2012-09-15T12:27:58Z</time>
      </trkpt>
      <trkpt lat="42.70161" lon="1.38255">
        <ele>2304.8981933594</ele>
        <time>2012-09-15T12:28:04Z</time>
      </trkpt>
      <trkpt lat="42.70161" lon="1.38256">
        <ele>2305.37890625</ele>
        <time>2012-09-15T12:28:09Z</time>
      </trkpt>
      <trkpt lat="42.70165" lon="1.38258">
        <ele>2304.8981933594</ele>
        <time>2012-09-15T12:28:15Z</time>
      </trkpt>
      <trkpt lat="42.70168" lon="1.38262">
        <ele>2305.37890625</ele>
        <time>2012-09-15T12:28:20Z</time>
      </trkpt>
      <trkpt lat="42.70171" lon="1.38267">
        <ele>2306.8208007812</ele>
        <time>2012-09-15T12:28:26Z</time>
      </trkpt>
      <trkpt lat="42.70169" lon="1.38271">
        <ele>2308.2626953125</ele>
        <time>2012-09-15T12:28:33Z</time>
      </trkpt>
      <trkpt lat="42.70168" lon="1.38274">
        <ele>2309.2241210938</ele>
        <time>2012-09-15T12:28:40Z</time>
      </trkpt>
      <trkpt lat="42.70169" lon="1.38274">
        <ele>2308.7434082031</ele>
        <time>2012-09-15T12:28:48Z</time>
      </trkpt>
      <trkpt lat="42.70174" lon="1.38271">
        <ele>2306.3400878906</ele>
        <time>2012-09-15T12:28:57Z</time>
      </trkpt>
      <trkpt lat="42.7018" lon="1.38268">
        <ele>2304.4174804688</ele>
        <time>2012-09-15T12:29:05Z</time>
      </trkpt>
      <trkpt lat="42.70184" lon="1.38267">
        <ele>2303.4562988281</ele>
        <time>2012-09-15T12:29:11Z</time>
      </trkpt>
      <trkpt lat="42.7019" lon="1.38266">
        <ele>2302.4948730469</ele>
        <time>2012-09-15T12:29:19Z</time>
      </trkpt>
      <trkpt lat="42.70193" lon="1.38267">
        <ele>2301.5336914062</ele>
        <time>2012-09-15T12:29:25Z</time>
      </trkpt>
      <trkpt lat="42.70198" lon="1.38264">
        <ele>2298.6494140625</ele>
        <time>2012-09-15T12:29:32Z</time>
      </trkpt>
      <trkpt lat="42.702" lon="1.38266">
        <ele>2296.7268066406</ele>
        <time>2012-09-15T12:29:39Z</time>
      </trkpt>
      <trkpt lat="42.70201" lon="1.38267">
        <ele>2295.765625</ele>
        <time>2012-09-15T12:29:45Z</time>
      </trkpt>
      <trkpt lat="42.70203" lon="1.38266">
        <ele>2295.2849121094</ele>
        <time>2012-09-15T12:29:49Z</time>
      </trkpt>
      <trkpt lat="42.70205" lon="1.38266">
        <ele>2293.8430175781</ele>
        <time>2012-09-15T12:29:56Z</time>
      </trkpt>
      <trkpt lat="42.70208" lon="1.38268">
        <ele>2291.9204101562</ele>
        <time>2012-09-15T12:30:02Z</time>
      </trkpt>
      <trkpt lat="42.70208" lon="1.38272">
        <ele>2289.5170898438</ele>
        <time>2012-09-15T12:30:08Z</time>
      </trkpt>
      <trkpt lat="42.70208" lon="1.38279">
        <ele>2289.0363769531</ele>
        <time>2012-09-15T12:30:13Z</time>
      </trkpt>
      <trkpt lat="42.70206" lon="1.38285">
        <ele>2288.5559082031</ele>
        <time>2012-09-15T12:30:20Z</time>
      </trkpt>
      <trkpt lat="42.70207" lon="1.38291">
        <ele>2287.1137695312</ele>
        <time>2012-09-15T12:30:25Z</time>
      </trkpt>
      <trkpt lat="42.70208" lon="1.38297">
        <ele>2286.1525878906</ele>
        <time>2012-09-15T12:30:30Z</time>
      </trkpt>
      <trkpt lat="42.70209" lon="1.38305">
        <ele>2286.6330566406</ele>
        <time>2012-09-15T12:30:36Z</time>
      </trkpt>
      <trkpt lat="42.70212" lon="1.38313">
        <ele>2286.6330566406</ele>
        <time>2012-09-15T12:30:43Z</time>
      </trkpt>
      <trkpt lat="42.70216" lon="1.3832">
        <ele>2287.1137695312</ele>
        <time>2012-09-15T12:30:49Z</time>
      </trkpt>
      <trkpt lat="42.70217" lon="1.38321">
        <ele>2287.1137695312</ele>
        <time>2012-09-15T12:30:56Z</time>
      </trkpt>
      <trkpt lat="42.70221" lon="1.38327">
        <ele>2287.1137695312</ele>
        <time>2012-09-15T12:31:02Z</time>
      </trkpt>
      <trkpt lat="42.70227" lon="1.38329">
        <ele>2286.1525878906</ele>
        <time>2012-09-15T12:31:09Z</time>
      </trkpt>
      <trkpt lat="42.70232" lon="1.38333">
        <ele>2284.2299804688</ele>
        <time>2012-09-15T12:31:15Z</time>
      </trkpt>
      <trkpt lat="42.7023" lon="1.3834">
        <ele>2282.7875976562</ele>
        <time>2012-09-15T12:31:21Z</time>
      </trkpt>
      <trkpt lat="42.70227" lon="1.38345">
        <ele>2281.345703125</ele>
        <time>2012-09-15T12:31:28Z</time>
      </trkpt>
      <trkpt lat="42.70226" lon="1.3835">
        <ele>2278.9423828125</ele>
        <time>2012-09-15T12:31:34Z</time>
      </trkpt>
      <trkpt lat="42.70226" lon="1.38355">
        <ele>2277.5004882812</ele>
        <time>2012-09-15T12:31:39Z</time>
      </trkpt>
      <trkpt lat="42.70222" lon="1.3836">
        <ele>2275.5778808594</ele>
        <time>2012-09-15T12:31:44Z</time>
      </trkpt>
      <trkpt lat="42.70217" lon="1.38366">
        <ele>2274.1359863281</ele>
        <time>2012-09-15T12:31:51Z</time>
      </trkpt>
      <trkpt lat="42.70215" lon="1.38375">
        <ele>2272.6940917969</ele>
        <time>2012-09-15T12:31:59Z</time>
      </trkpt>
      <trkpt lat="42.70215" lon="1.38384">
        <ele>2270.2907714844</ele>
        <time>2012-09-15T12:32:06Z</time>
      </trkpt>
      <trkpt lat="42.70211" lon="1.38394">
        <ele>2267.8872070312</ele>
        <time>2012-09-15T12:32:12Z</time>
      </trkpt>
      <trkpt lat="42.70204" lon="1.38407">
        <ele>2266.4453125</ele>
        <time>2012-09-15T12:32:19Z</time>
      </trkpt>
      <trkpt lat="42.70203" lon="1.38408">
        <ele>2266.4453125</ele>
        <time>2012-09-15T12:32:20Z</time>
      </trkpt>
      <trkpt lat="42.70203" lon="1.38411">
        <ele>2266.4453125</ele>
        <time>2012-09-15T12:32:28Z</time>
      </trkpt>
      <trkpt lat="42.70199" lon="1.38415">
        <ele>2265.4841308594</ele>
        <time>2012-09-15T12:32:34Z</time>
      </trkpt>
      <trkpt lat="42.70194" lon="1.38421">
        <ele>2263.5612792969</ele>
        <time>2012-09-15T12:32:39Z</time>
      </trkpt>
      <trkpt lat="42.70187" lon="1.38426">
        <ele>2261.6389160156</ele>
        <time>2012-09-15T12:32:43Z</time>
      </trkpt>
      <trkpt lat="42.70182" lon="1.38428">
        <ele>2260.6774902344</ele>
        <time>2012-09-15T12:32:46Z</time>
      </trkpt>
      <trkpt lat="42.70173" lon="1.38426">
        <ele>2260.6774902344</ele>
        <time>2012-09-15T12:32:53Z</time>
      </trkpt>
      <trkpt lat="42.7016" lon="1.38421">
        <ele>2260.1967773438</ele>
        <time>2012-09-15T12:33:00Z</time>
      </trkpt>
      <trkpt lat="42.70152" lon="1.38418">
        <ele>2260.1967773438</ele>
        <time>2012-09-15T12:33:06Z</time>
      </trkpt>
      <trkpt lat="42.70151" lon="1.38418">
        <ele>2260.6774902344</ele>
        <time>2012-09-15T12:33:08Z</time>
      </trkpt>
      <trkpt lat="42.70145" lon="1.38413">
        <ele>2260.1967773438</ele>
        <time>2012-09-15T12:33:15Z</time>
      </trkpt>
      <trkpt lat="42.7014" lon="1.38412">
        <ele>2259.2355957031</ele>
        <time>2012-09-15T12:33:20Z</time>
      </trkpt>
      <trkpt lat="42.70135" lon="1.3841">
        <ele>2258.7548828125</ele>
        <time>2012-09-15T12:33:25Z</time>
      </trkpt>
      <trkpt lat="42.70129" lon="1.38408">
        <ele>2258.2741699219</ele>
        <time>2012-09-15T12:33:31Z</time>
      </trkpt>
      <trkpt lat="42.70126" lon="1.38406">
        <ele>2257.7937011719</ele>
        <time>2012-09-15T12:33:34Z</time>
      </trkpt>
      <trkpt lat="42.7012" lon="1.38403">
        <ele>2257.3129882812</ele>
        <time>2012-09-15T12:33:40Z</time>
      </trkpt>
      <trkpt lat="42.70113" lon="1.38401">
        <ele>2256.3515625</ele>
        <time>2012-09-15T12:33:47Z</time>
      </trkpt>
      <trkpt lat="42.70106" lon="1.38403">
        <ele>2255.3903808594</ele>
        <time>2012-09-15T12:33:52Z</time>
      </trkpt>
      <trkpt lat="42.70102" lon="1.3841">
        <ele>2254.4289550781</ele>
        <time>2012-09-15T12:33:59Z</time>
      </trkpt>
      <trkpt lat="42.70102" lon="1.38417">
        <ele>2253.4677734375</ele>
        <time>2012-09-15T12:34:06Z</time>
      </trkpt>
      <trkpt lat="42.70098" lon="1.3842">
        <ele>2251.544921875</ele>
        <time>2012-09-15T12:34:12Z</time>
      </trkpt>
      <trkpt lat="42.70097" lon="1.38421">
        <ele>2250.5834960938</ele>
        <time>2012-09-15T12:34:17Z</time>
      </trkpt>
      <trkpt lat="42.70097" lon="1.38421">
        <ele>2251.544921875</ele>
        <time>2012-09-15T12:34:29Z</time>
      </trkpt>
      <trkpt lat="42.70095" lon="1.38421">
        <ele>2248.1801757812</ele>
        <time>2012-09-15T12:34:47Z</time>
      </trkpt>
      <trkpt lat="42.7009" lon="1.38423">
        <ele>2245.2963867188</ele>
        <time>2012-09-15T12:34:54Z</time>
      </trkpt>
      <trkpt lat="42.70091" lon="1.38428">
        <ele>2243.8544921875</ele>
        <time>2012-09-15T12:35:01Z</time>
      </trkpt>
      <trkpt lat="42.70092" lon="1.38436">
        <ele>2240.4897460938</ele>
        <time>2012-09-15T12:35:09Z</time>
      </trkpt>
      <trkpt lat="42.70094" lon="1.38442">
        <ele>2238.0866699219</ele>
        <time>2012-09-15T12:35:15Z</time>
      </trkpt>
      <trkpt lat="42.70095" lon="1.3845">
        <ele>2235.6831054688</ele>
        <time>2012-09-15T12:35:22Z</time>
      </trkpt>
      <trkpt lat="42.70095" lon="1.38458">
        <ele>2233.2797851562</ele>
        <time>2012-09-15T12:35:28Z</time>
      </trkpt>
      <trkpt lat="42.70094" lon="1.38462">
        <ele>2231.837890625</ele>
        <time>2012-09-15T12:35:33Z</time>
      </trkpt>
      <trkpt lat="42.70097" lon="1.38471">
        <ele>2229.4345703125</ele>
        <time>2012-09-15T12:35:40Z</time>
      </trkpt>
      <trkpt lat="42.701" lon="1.38477">
        <ele>2227.0314941406</ele>
        <time>2012-09-15T12:35:46Z</time>
      </trkpt>
      <trkpt lat="42.70103" lon="1.38484">
        <ele>2225.1086425781</ele>
        <time>2012-09-15T12:35:53Z</time>
      </trkpt>
      <trkpt lat="42.70106" lon="1.38492">
        <ele>2222.2248535156</ele>
        <time>2012-09-15T12:35:59Z</time>
      </trkpt>
      <trkpt lat="42.70107" lon="1.38496">
        <ele>2220.7829589844</ele>
        <time>2012-09-15T12:36:02Z</time>
      </trkpt>
      <trkpt lat="42.7011" lon="1.38503">
        <ele>2218.3793945312</ele>
        <time>2012-09-15T12:36:08Z</time>
      </trkpt>
      <trkpt lat="42.70112" lon="1.38507">
        <ele>2217.41796875</ele>
        <time>2012-09-15T12:36:12Z</time>
      </trkpt>
      <trkpt lat="42.70115" lon="1.38519">
        <ele>2215.0148925781</ele>
        <time>2012-09-15T12:36:21Z</time>
      </trkpt>
      <trkpt lat="42.70118" lon="1.38525">
        <ele>2213.0922851562</ele>
        <time>2012-09-15T12:36:27Z</time>
      </trkpt>
      <trkpt lat="42.7012" lon="1.38534">
        <ele>2210.6889648438</ele>
        <time>2012-09-15T12:36:35Z</time>
      </trkpt>
      <trkpt lat="42.70123" lon="1.38541">
        <ele>2208.7663574219</ele>
        <time>2012-09-15T12:36:41Z</time>
      </trkpt>
      <trkpt lat="42.70123" lon="1.38547">
        <ele>2207.3244628906</ele>
        <time>2012-09-15T12:36:45Z</time>
      </trkpt>
      <trkpt lat="42.70125" lon="1.38556">
        <ele>2204.9211425781</ele>
        <time>2012-09-15T12:36:52Z</time>
      </trkpt>
      <trkpt lat="42.70122" lon="1.38563">
        <ele>2202.9982910156</ele>
        <time>2012-09-15T12:36:58Z</time>
      </trkpt>
      <trkpt lat="42.70121" lon="1.38571">
        <ele>2202.0368652344</ele>
        <time>2012-09-15T12:37:05Z</time>
      </trkpt>
      <trkpt lat="42.70118" lon="1.38574">
        <ele>2200.1145019531</ele>
        <time>2012-09-15T12:37:11Z</time>
      </trkpt>
      <trkpt lat="42.70115" lon="1.38576">
        <ele>2198.1916503906</ele>
        <time>2012-09-15T12:37:16Z</time>
      </trkpt>
      <trkpt lat="42.70114" lon="1.38576">
        <ele>2197.23046875</ele>
        <time>2012-09-15T12:37:26Z</time>
      </trkpt>
      <trkpt lat="42.70113" lon="1.38578">
        <ele>2196.2692871094</ele>
        <time>2012-09-15T12:37:36Z</time>
      </trkpt>
      <trkpt lat="42.7011" lon="1.38578">
        <ele>2195.7885742188</ele>
        <time>2012-09-15T12:37:41Z</time>
      </trkpt>
      <trkpt lat="42.70104" lon="1.38579">
        <ele>2192.9045410156</ele>
        <time>2012-09-15T12:37:49Z</time>
      </trkpt>
      <trkpt lat="42.70098" lon="1.38582">
        <ele>2190.0207519531</ele>
        <time>2012-09-15T12:37:55Z</time>
      </trkpt>
      <trkpt lat="42.70095" lon="1.38584">
        <ele>2188.5788574219</ele>
        <time>2012-09-15T12:38:01Z</time>
      </trkpt>
      <trkpt lat="42.70094" lon="1.38586">
        <ele>2186.6557617188</ele>
        <time>2012-09-15T12:38:07Z</time>
      </trkpt>
      <trkpt lat="42.70094" lon="1.38591">
        <ele>2184.7333984375</ele>
        <time>2012-09-15T12:38:13Z</time>
      </trkpt>
      <trkpt lat="42.70091" lon="1.38593">
        <ele>2183.2912597656</ele>
        <time>2012-09-15T12:38:18Z</time>
      </trkpt>
      <trkpt lat="42.7009" lon="1.38597">
        <ele>2182.330078125</ele>
        <time>2012-09-15T12:38:23Z</time>
      </trkpt>
      <trkpt lat="42.70086" lon="1.38596">
        <ele>2180.8881835938</ele>
        <time>2012-09-15T12:38:27Z</time>
      </trkpt>
      <trkpt lat="42.70082" lon="1.38595">
        <ele>2179.4460449219</ele>
        <time>2012-09-15T12:38:32Z</time>
      </trkpt>
      <trkpt lat="42.70077" lon="1.38596">
        <ele>2178.0041503906</ele>
        <time>2012-09-15T12:38:38Z</time>
      </trkpt>
      <trkpt lat="42.70073" lon="1.38599">
        <ele>2177.04296875</ele>
        <time>2012-09-15T12:38:45Z</time>
      </trkpt>
      <trkpt lat="42.70073" lon="1.38605">
        <ele>2175.6008300781</ele>
        <time>2012-09-15T12:38:51Z</time>
      </trkpt>
      <trkpt lat="42.70067" lon="1.38609">
        <ele>2173.6782226562</ele>
        <time>2012-09-15T12:38:57Z</time>
      </trkpt>
      <trkpt lat="42.70061" lon="1.38615">
        <ele>2171.7553710938</ele>
        <time>2012-09-15T12:39:04Z</time>
      </trkpt>
      <trkpt lat="42.70061" lon="1.38622">
        <ele>2169.8327636719</ele>
        <time>2012-09-15T12:39:10Z</time>
      </trkpt>
      <trkpt lat="42.7006" lon="1.38628">
        <ele>2167.91015625</ele>
        <time>2012-09-15T12:39:17Z</time>
      </trkpt>
      <trkpt lat="42.70057" lon="1.38626">
        <ele>2166.9489746094</ele>
        <time>2012-09-15T12:39:22Z</time>
      </trkpt>
      <trkpt lat="42.70055" lon="1.38627">
        <ele>2165.9875488281</ele>
        <time>2012-09-15T12:39:26Z</time>
      </trkpt>
      <trkpt lat="42.70054" lon="1.38627">
        <ele>2165.9875488281</ele>
        <time>2012-09-15T12:39:27Z</time>
      </trkpt>
      <trkpt lat="42.7005" lon="1.38631">
        <ele>2163.5842285156</ele>
        <time>2012-09-15T12:39:33Z</time>
      </trkpt>
      <trkpt lat="42.70046" lon="1.38638">
        <ele>2161.1811523438</ele>
        <time>2012-09-15T12:39:39Z</time>
      </trkpt>
      <trkpt lat="42.70042" lon="1.38642">
        <ele>2159.2585449219</ele>
        <time>2012-09-15T12:39:45Z</time>
      </trkpt>
      <trkpt lat="42.70042" lon="1.38643">
        <ele>2158.2971191406</ele>
        <time>2012-09-15T12:39:53Z</time>
      </trkpt>
      <trkpt lat="42.70041" lon="1.38646">
        <ele>2157.3359375</ele>
        <time>2012-09-15T12:40:00Z</time>
      </trkpt>
      <trkpt lat="42.70037" lon="1.38649">
        <ele>2155.4130859375</ele>
        <time>2012-09-15T12:40:06Z</time>
      </trkpt>
      <trkpt lat="42.70033" lon="1.38653">
        <ele>2153.009765625</ele>
        <time>2012-09-15T12:40:12Z</time>
      </trkpt>
      <trkpt lat="42.70028" lon="1.38654">
        <ele>2150.1259765625</ele>
        <time>2012-09-15T12:40:18Z</time>
      </trkpt>
      <trkpt lat="42.70022" lon="1.38655">
        <ele>2148.203125</ele>
        <time>2012-09-15T12:40:23Z</time>
      </trkpt>
      <trkpt lat="42.70021" lon="1.38655">
        <ele>2147.72265625</ele>
        <time>2012-09-15T12:40:24Z</time>
      </trkpt>
      <trkpt lat="42.70016" lon="1.38656">
        <ele>2146.2807617188</ele>
        <time>2012-09-15T12:40:30Z</time>
      </trkpt>
      <trkpt lat="42.70012" lon="1.38658">
        <ele>2145.3193359375</ele>
        <time>2012-09-15T12:40:36Z</time>
      </trkpt>
      <trkpt lat="42.70008" lon="1.38662">
        <ele>2143.8774414062</ele>
        <time>2012-09-15T12:40:44Z</time>
      </trkpt>
      <trkpt lat="42.70008" lon="1.38672">
        <ele>2142.916015625</ele>
        <time>2012-09-15T12:40:52Z</time>
      </trkpt>
      <trkpt lat="42.70009" lon="1.38678">
        <ele>2141.9548339844</ele>
        <time>2012-09-15T12:40:56Z</time>
      </trkpt>
      <trkpt lat="42.70011" lon="1.3869">
        <ele>2140.9934082031</ele>
        <time>2012-09-15T12:41:03Z</time>
      </trkpt>
      <trkpt lat="42.7001" lon="1.38692">
        <ele>2140.5126953125</ele>
        <time>2012-09-15T12:41:05Z</time>
      </trkpt>
      <trkpt lat="42.70005" lon="1.38697">
        <ele>2137.1479492188</ele>
        <time>2012-09-15T12:41:13Z</time>
      </trkpt>
      <trkpt lat="42.70003" lon="1.38703">
        <ele>2135.7060546875</ele>
        <time>2012-09-15T12:41:18Z</time>
      </trkpt>
      <trkpt lat="42.70001" lon="1.38706">
        <ele>2133.7834472656</ele>
        <time>2012-09-15T12:41:23Z</time>
      </trkpt>
      <trkpt lat="42.69998" lon="1.38707">
        <ele>2132.3415527344</ele>
        <time>2012-09-15T12:41:29Z</time>
      </trkpt>
      <trkpt lat="42.69996" lon="1.3871">
        <ele>2130.8996582031</ele>
        <time>2012-09-15T12:41:34Z</time>
      </trkpt>
      <trkpt lat="42.69994" lon="1.38712">
        <ele>2128.9768066406</ele>
        <time>2012-09-15T12:41:39Z</time>
      </trkpt>
      <trkpt lat="42.6999" lon="1.38714">
        <ele>2127.5349121094</ele>
        <time>2012-09-15T12:41:43Z</time>
      </trkpt>
      <trkpt lat="42.69986" lon="1.38719">
        <ele>2125.1315917969</ele>
        <time>2012-09-15T12:41:50Z</time>
      </trkpt>
      <trkpt lat="42.69983" lon="1.38721">
        <ele>2123.689453125</ele>
        <time>2012-09-15T12:41:54Z</time>
      </trkpt>
      <trkpt lat="42.69979" lon="1.38719">
        <ele>2122.2475585938</ele>
        <time>2012-09-15T12:41:59Z</time>
      </trkpt>
      <trkpt lat="42.69977" lon="1.38722">
        <ele>2121.2861328125</ele>
        <time>2012-09-15T12:42:04Z</time>
      </trkpt>
      <trkpt lat="42.69972" lon="1.38724">
        <ele>2119.3637695312</ele>
        <time>2012-09-15T12:42:09Z</time>
      </trkpt>
      <trkpt lat="42.69968" lon="1.38724">
        <ele>2118.40234375</ele>
        <time>2012-09-15T12:42:12Z</time>
      </trkpt>
      <trkpt lat="42.69965" lon="1.38723">
        <ele>2117.9216308594</ele>
        <time>2012-09-15T12:42:15Z</time>
      </trkpt>
      <trkpt lat="42.6996" lon="1.38723">
        <ele>2116.4797363281</ele>
        <time>2012-09-15T12:42:22Z</time>
      </trkpt>
      <trkpt lat="42.69961" lon="1.3873">
        <ele>2115.0378417969</ele>
        <time>2012-09-15T12:42:28Z</time>
      </trkpt>
      <trkpt lat="42.69958" lon="1.38732">
        <ele>2113.595703125</ele>
        <time>2012-09-15T12:42:33Z</time>
      </trkpt>
      <trkpt lat="42.69955" lon="1.38731">
        <ele>2112.6345214844</ele>
        <time>2012-09-15T12:42:38Z</time>
      </trkpt>
      <trkpt lat="42.69954" lon="1.38728">
        <ele>2111.6733398438</ele>
        <time>2012-09-15T12:42:44Z</time>
      </trkpt>
      <trkpt lat="42.6995" lon="1.38729">
        <ele>2109.2700195312</ele>
        <time>2012-09-15T12:42:51Z</time>
      </trkpt>
      <trkpt lat="42.69946" lon="1.38726">
        <ele>2108.30859375</ele>
        <time>2012-09-15T12:42:56Z</time>
      </trkpt>
      <trkpt lat="42.69943" lon="1.38726">
        <ele>2107.8278808594</ele>
        <time>2012-09-15T12:43:00Z</time>
      </trkpt>
      <trkpt lat="42.69936" lon="1.38721">
        <ele>2108.30859375</ele>
        <time>2012-09-15T12:43:06Z</time>
      </trkpt>
      <trkpt lat="42.69931" lon="1.38719">
        <ele>2108.30859375</ele>
        <time>2012-09-15T12:43:10Z</time>
      </trkpt>
      <trkpt lat="42.69928" lon="1.3872">
        <ele>2108.30859375</ele>
        <time>2012-09-15T12:43:12Z</time>
      </trkpt>
      <trkpt lat="42.69922" lon="1.38719">
        <ele>2107.3471679688</ele>
        <time>2012-09-15T12:43:18Z</time>
      </trkpt>
      <trkpt lat="42.69918" lon="1.38722">
        <ele>2105.9050292969</ele>
        <time>2012-09-15T12:43:24Z</time>
      </trkpt>
      <trkpt lat="42.69917" lon="1.38727">
        <ele>2103.9826660156</ele>
        <time>2012-09-15T12:43:29Z</time>
      </trkpt>
      <trkpt lat="42.69915" lon="1.3873">
        <ele>2102.0598144531</ele>
        <time>2012-09-15T12:43:33Z</time>
      </trkpt>
      <trkpt lat="42.69913" lon="1.38738">
        <ele>2099.1760253906</ele>
        <time>2012-09-15T12:43:40Z</time>
      </trkpt>
      <trkpt lat="42.6991" lon="1.38743">
        <ele>2098.2145996094</ele>
        <time>2012-09-15T12:43:46Z</time>
      </trkpt>
      <trkpt lat="42.69908" lon="1.38746">
        <ele>2095.8115234375</ele>
        <time>2012-09-15T12:43:52Z</time>
      </trkpt>
      <trkpt lat="42.69904" lon="1.38741">
        <ele>2095.3308105469</ele>
        <time>2012-09-15T12:43:58Z</time>
      </trkpt>
      <trkpt lat="42.699" lon="1.38739">
        <ele>2093.408203125</ele>
        <time>2012-09-15T12:44:04Z</time>
      </trkpt>
      <trkpt lat="42.69894" lon="1.38736">
        <ele>2091.9660644531</ele>
        <time>2012-09-15T12:44:10Z</time>
      </trkpt>
      <trkpt lat="42.69889" lon="1.38734">
        <ele>2091.4853515625</ele>
        <time>2012-09-15T12:44:17Z</time>
      </trkpt>
      <trkpt lat="42.69889" lon="1.38734">
        <ele>2091.9660644531</ele>
        <time>2012-09-15T12:44:24Z</time>
      </trkpt>
      <trkpt lat="42.69891" lon="1.38741">
        <ele>2090.5239257812</ele>
        <time>2012-09-15T12:44:31Z</time>
      </trkpt>
      <trkpt lat="42.69889" lon="1.38744">
        <ele>2089.08203125</ele>
        <time>2012-09-15T12:44:36Z</time>
      </trkpt>
      <trkpt lat="42.69888" lon="1.38747">
        <ele>2087.6401367188</ele>
        <time>2012-09-15T12:44:41Z</time>
      </trkpt>
      <trkpt lat="42.69889" lon="1.38754">
        <ele>2085.2368164062</ele>
        <time>2012-09-15T12:44:47Z</time>
      </trkpt>
      <trkpt lat="42.69889" lon="1.38759">
        <ele>2084.2756347656</ele>
        <time>2012-09-15T12:44:52Z</time>
      </trkpt>
      <trkpt lat="42.69884" lon="1.38762">
        <ele>2082.3530273438</ele>
        <time>2012-09-15T12:44:58Z</time>
      </trkpt>
      <trkpt lat="42.6988" lon="1.38763">
        <ele>2080.9111328125</ele>
        <time>2012-09-15T12:45:02Z</time>
      </trkpt>
      <trkpt lat="42.69874" lon="1.38761">
        <ele>2081.3916015625</ele>
        <time>2012-09-15T12:45:08Z</time>
      </trkpt>
      <trkpt lat="42.69869" lon="1.38759">
        <ele>2081.8723144531</ele>
        <time>2012-09-15T12:45:13Z</time>
      </trkpt>
      <trkpt lat="42.69864" lon="1.38761">
        <ele>2081.3916015625</ele>
        <time>2012-09-15T12:45:19Z</time>
      </trkpt>
      <trkpt lat="42.69862" lon="1.38761">
        <ele>2081.3916015625</ele>
        <time>2012-09-15T12:45:25Z</time>
      </trkpt>
      <trkpt lat="42.6986" lon="1.38761">
        <ele>2084.2756347656</ele>
        <time>2012-09-15T12:45:37Z</time>
      </trkpt>
      <trkpt lat="42.69859" lon="1.38761">
        <ele>2084.2756347656</ele>
        <time>2012-09-15T12:45:42Z</time>
      </trkpt>
      <trkpt lat="42.69855" lon="1.38758">
        <ele>2084.2756347656</ele>
        <time>2012-09-15T12:45:49Z</time>
      </trkpt>
      <trkpt lat="42.69849" lon="1.38761">
        <ele>2083.3142089844</ele>
        <time>2012-09-15T12:45:58Z</time>
      </trkpt>
      <trkpt lat="42.69847" lon="1.38762">
        <ele>2081.3916015625</ele>
        <time>2012-09-15T12:46:04Z</time>
      </trkpt>
      <trkpt lat="42.69843" lon="1.38768">
        <ele>2083.3142089844</ele>
        <time>2012-09-15T12:46:11Z</time>
      </trkpt>
      <trkpt lat="42.6984" lon="1.38768">
        <ele>2083.3142089844</ele>
        <time>2012-09-15T12:46:18Z</time>
      </trkpt>
      <trkpt lat="42.69839" lon="1.3877">
        <ele>2083.794921875</ele>
        <time>2012-09-15T12:46:27Z</time>
      </trkpt>
      <trkpt lat="42.69834" lon="1.38775">
        <ele>2081.3916015625</ele>
        <time>2012-09-15T12:46:34Z</time>
      </trkpt>
      <trkpt lat="42.69831" lon="1.38775">
        <ele>2080.4304199219</ele>
        <time>2012-09-15T12:46:39Z</time>
      </trkpt>
      <trkpt lat="42.69828" lon="1.38771">
        <ele>2080.4304199219</ele>
        <time>2012-09-15T12:46:46Z</time>
      </trkpt>
      <trkpt lat="42.69825" lon="1.38768">
        <ele>2080.4304199219</ele>
        <time>2012-09-15T12:46:52Z</time>
      </trkpt>
      <trkpt lat="42.69824" lon="1.38764">
        <ele>2081.3916015625</ele>
        <time>2012-09-15T12:46:58Z</time>
      </trkpt>
      <trkpt lat="42.69821" lon="1.38759">
        <ele>2081.8723144531</ele>
        <time>2012-09-15T12:47:04Z</time>
      </trkpt>
      <trkpt lat="42.69817" lon="1.38755">
        <ele>2081.8723144531</ele>
        <time>2012-09-15T12:47:10Z</time>
      </trkpt>
      <trkpt lat="42.69817" lon="1.38755">
        <ele>2081.8723144531</ele>
        <time>2012-09-15T12:47:11Z</time>
      </trkpt>
      <trkpt lat="42.69812" lon="1.3875">
        <ele>2081.8723144531</ele>
        <time>2012-09-15T12:47:16Z</time>
      </trkpt>
      <trkpt lat="42.6981" lon="1.3875">
        <ele>2082.3530273438</ele>
        <time>2012-09-15T12:47:18Z</time>
      </trkpt>
      <trkpt lat="42.69805" lon="1.3875">
        <ele>2081.3916015625</ele>
        <time>2012-09-15T12:47:23Z</time>
      </trkpt>
      <trkpt lat="42.69798" lon="1.3875">
        <ele>2079.4689941406</ele>
        <time>2012-09-15T12:47:30Z</time>
      </trkpt>
      <trkpt lat="42.69793" lon="1.38756">
        <ele>2078.5078125</ele>
        <time>2012-09-15T12:47:36Z</time>
      </trkpt>
      <trkpt lat="42.69788" lon="1.38762">
        <ele>2078.5078125</ele>
        <time>2012-09-15T12:47:43Z</time>
      </trkpt>
      <trkpt lat="42.69786" lon="1.38763">
        <ele>2078.0270996094</ele>
        <time>2012-09-15T12:47:45Z</time>
      </trkpt>
      <trkpt lat="42.6978" lon="1.38772">
        <ele>2077.5463867188</ele>
        <time>2012-09-15T12:47:53Z</time>
      </trkpt>
      <trkpt lat="42.69778" lon="1.38775">
        <ele>2077.0659179688</ele>
        <time>2012-09-15T12:47:56Z</time>
      </trkpt>
      <trkpt lat="42.69773" lon="1.38781">
        <ele>2076.5852050781</ele>
        <time>2012-09-15T12:48:02Z</time>
      </trkpt>
      <trkpt lat="42.69766" lon="1.38787">
        <ele>2075.1428222656</ele>
        <time>2012-09-15T12:48:10Z</time>
      </trkpt>
      <trkpt lat="42.69762" lon="1.38789">
        <ele>2076.1044921875</ele>
        <time>2012-09-15T12:48:14Z</time>
      </trkpt>
      <trkpt lat="42.6976" lon="1.38796">
        <ele>2077.0659179688</ele>
        <time>2012-09-15T12:48:20Z</time>
      </trkpt>
      <trkpt lat="42.69759" lon="1.38801">
        <ele>2076.5852050781</ele>
        <time>2012-09-15T12:48:24Z</time>
      </trkpt>
      <trkpt lat="42.69757" lon="1.38809">
        <ele>2077.5463867188</ele>
        <time>2012-09-15T12:48:30Z</time>
      </trkpt>
      <trkpt lat="42.69757" lon="1.38814">
        <ele>2079.4689941406</ele>
        <time>2012-09-15T12:48:34Z</time>
      </trkpt>
      <trkpt lat="42.69757" lon="1.38821">
        <ele>2080.9111328125</ele>
        <time>2012-09-15T12:48:40Z</time>
      </trkpt>
      <trkpt lat="42.69759" lon="1.38828">
        <ele>2082.3530273438</ele>
        <time>2012-09-15T12:48:46Z</time>
      </trkpt>
      <trkpt lat="42.69759" lon="1.38832">
        <ele>2083.3142089844</ele>
        <time>2012-09-15T12:48:51Z</time>
      </trkpt>
      <trkpt lat="42.69761" lon="1.38836">
        <ele>2081.3916015625</ele>
        <time>2012-09-15T12:49:04Z</time>
      </trkpt>
      <trkpt lat="42.69762" lon="1.38842">
        <ele>2082.3530273438</ele>
        <time>2012-09-15T12:49:11Z</time>
      </trkpt>
      <trkpt lat="42.69762" lon="1.38844">
        <ele>2082.8334960938</ele>
        <time>2012-09-15T12:49:15Z</time>
      </trkpt>
      <trkpt lat="42.6976" lon="1.38846">
        <ele>2082.3530273438</ele>
        <time>2012-09-15T12:49:18Z</time>
      </trkpt>
      <trkpt lat="42.69759" lon="1.38855">
        <ele>2081.8723144531</ele>
        <time>2012-09-15T12:49:25Z</time>
      </trkpt>
      <trkpt lat="42.69758" lon="1.3886">
        <ele>2081.3916015625</ele>
        <time>2012-09-15T12:49:28Z</time>
      </trkpt>
      <trkpt lat="42.69753" lon="1.38865">
        <ele>2079.9497070312</ele>
        <time>2012-09-15T12:49:34Z</time>
      </trkpt>
      <trkpt lat="42.6975" lon="1.38873">
        <ele>2079.4689941406</ele>
        <time>2012-09-15T12:49:40Z</time>
      </trkpt>
      <trkpt lat="42.69749" lon="1.38877">
        <ele>2079.4689941406</ele>
        <time>2012-09-15T12:49:43Z</time>
      </trkpt>
      <trkpt lat="42.69742" lon="1.38888">
        <ele>2081.3916015625</ele>
        <time>2012-09-15T12:49:53Z</time>
      </trkpt>
      <trkpt lat="42.69737" lon="1.38893">
        <ele>2082.8334960938</ele>
        <time>2012-09-15T12:50:00Z</time>
      </trkpt>
      <trkpt lat="42.69733" lon="1.38898">
        <ele>2083.794921875</ele>
        <time>2012-09-15T12:50:06Z</time>
      </trkpt>
      <trkpt lat="42.69728" lon="1.38902">
        <ele>2083.794921875</ele>
        <time>2012-09-15T12:50:11Z</time>
      </trkpt>
      <trkpt lat="42.69721" lon="1.38901">
        <ele>2083.794921875</ele>
        <time>2012-09-15T12:50:18Z</time>
      </trkpt>
      <trkpt lat="42.69715" lon="1.38902">
        <ele>2084.2756347656</ele>
        <time>2012-09-15T12:50:25Z</time>
      </trkpt>
      <trkpt lat="42.69709" lon="1.38904">
        <ele>2084.2756347656</ele>
        <time>2012-09-15T12:50:31Z</time>
      </trkpt>
      <trkpt lat="42.69701" lon="1.38903">
        <ele>2084.2756347656</ele>
        <time>2012-09-15T12:50:40Z</time>
      </trkpt>
      <trkpt lat="42.69693" lon="1.38906">
        <ele>2081.8723144531</ele>
        <time>2012-09-15T12:50:48Z</time>
      </trkpt>
      <trkpt lat="42.69686" lon="1.38907">
        <ele>2079.4689941406</ele>
        <time>2012-09-15T12:50:54Z</time>
      </trkpt>
      <trkpt lat="42.69678" lon="1.38906">
        <ele>2079.4689941406</ele>
        <time>2012-09-15T12:51:01Z</time>
      </trkpt>
      <trkpt lat="42.69677" lon="1.38906">
        <ele>2079.9497070312</ele>
        <time>2012-09-15T12:51:02Z</time>
      </trkpt>
      <trkpt lat="42.69673" lon="1.38906">
        <ele>2080.9111328125</ele>
        <time>2012-09-15T12:51:09Z</time>
      </trkpt>
      <trkpt lat="42.6967" lon="1.38908">
        <ele>2081.3916015625</ele>
        <time>2012-09-15T12:51:14Z</time>
      </trkpt>
      <trkpt lat="42.69667" lon="1.38907">
        <ele>2082.3530273438</ele>
        <time>2012-09-15T12:51:19Z</time>
      </trkpt>
      <trkpt lat="42.69663" lon="1.38908">
        <ele>2082.3530273438</ele>
        <time>2012-09-15T12:51:25Z</time>
      </trkpt>
      <trkpt lat="42.69661" lon="1.38911">
        <ele>2082.8334960938</ele>
        <time>2012-09-15T12:51:31Z</time>
      </trkpt>
      <trkpt lat="42.69658" lon="1.38916">
        <ele>2082.3530273438</ele>
        <time>2012-09-15T12:51:37Z</time>
      </trkpt>
      <trkpt lat="42.69655" lon="1.3892">
        <ele>2082.3530273438</ele>
        <time>2012-09-15T12:51:42Z</time>
      </trkpt>
      <trkpt lat="42.69655" lon="1.38921">
        <ele>2082.3530273438</ele>
        <time>2012-09-15T12:51:47Z</time>
      </trkpt>
      <trkpt lat="42.69653" lon="1.38922">
        <ele>2082.8334960938</ele>
        <time>2012-09-15T12:51:52Z</time>
      </trkpt>
      <trkpt lat="42.69651" lon="1.38923">
        <ele>2082.8334960938</ele>
        <time>2012-09-15T12:51:58Z</time>
      </trkpt>
      <trkpt lat="42.69648" lon="1.38922">
        <ele>2083.3142089844</ele>
        <time>2012-09-15T12:52:03Z</time>
      </trkpt>
      <trkpt lat="42.69643" lon="1.38924">
        <ele>2083.794921875</ele>
        <time>2012-09-15T12:52:10Z</time>
      </trkpt>
      <trkpt lat="42.69642" lon="1.38925">
        <ele>2083.794921875</ele>
        <time>2012-09-15T12:52:14Z</time>
      </trkpt>
      <trkpt lat="42.69638" lon="1.3893">
        <ele>2085.2368164062</ele>
        <time>2012-09-15T12:52:20Z</time>
      </trkpt>
      <trkpt lat="42.69635" lon="1.38933">
        <ele>2086.6787109375</ele>
        <time>2012-09-15T12:52:25Z</time>
      </trkpt>
      <trkpt lat="42.69631" lon="1.38938">
        <ele>2087.1594238281</ele>
        <time>2012-09-15T12:52:32Z</time>
      </trkpt>
      <trkpt lat="42.69627" lon="1.38943">
        <ele>2087.1594238281</ele>
        <time>2012-09-15T12:52:38Z</time>
      </trkpt>
      <trkpt lat="42.69622" lon="1.38948">
        <ele>2087.6401367188</ele>
        <time>2012-09-15T12:52:45Z</time>
      </trkpt>
      <trkpt lat="42.69617" lon="1.3895">
        <ele>2088.6015625</ele>
        <time>2012-09-15T12:52:50Z</time>
      </trkpt>
      <trkpt lat="42.69614" lon="1.38952">
        <ele>2089.5627441406</ele>
        <time>2012-09-15T12:52:55Z</time>
      </trkpt>
      <trkpt lat="42.69611" lon="1.38955">
        <ele>2091.0046386719</ele>
        <time>2012-09-15T12:53:01Z</time>
      </trkpt>
      <trkpt lat="42.69607" lon="1.38958">
        <ele>2091.9660644531</ele>
        <time>2012-09-15T12:53:07Z</time>
      </trkpt>
      <trkpt lat="42.69603" lon="1.38962">
        <ele>2092.9274902344</ele>
        <time>2012-09-15T12:53:13Z</time>
      </trkpt>
      <trkpt lat="42.696" lon="1.38964">
        <ele>2093.8889160156</ele>
        <time>2012-09-15T12:53:19Z</time>
      </trkpt>
      <trkpt lat="42.69599" lon="1.38963">
        <ele>2093.8889160156</ele>
        <time>2012-09-15T12:53:27Z</time>
      </trkpt>
      <trkpt lat="42.69599" lon="1.38964">
        <ele>2093.408203125</ele>
        <time>2012-09-15T12:53:35Z</time>
      </trkpt>
      <trkpt lat="42.696" lon="1.38965">
        <ele>2092.4470214844</ele>
        <time>2012-09-15T12:53:54Z</time>
      </trkpt>
      <trkpt lat="42.69598" lon="1.38965">
        <ele>2093.408203125</ele>
        <time>2012-09-15T12:54:37Z</time>
      </trkpt>
      <trkpt lat="42.69596" lon="1.38966">
        <ele>2093.8889160156</ele>
        <time>2012-09-15T12:54:42Z</time>
      </trkpt>
      <trkpt lat="42.69591" lon="1.38967">
        <ele>2094.3693847656</ele>
        <time>2012-09-15T12:54:48Z</time>
      </trkpt>
      <trkpt lat="42.69589" lon="1.38966">
        <ele>2095.3308105469</ele>
        <time>2012-09-15T12:54:52Z</time>
      </trkpt>
      <trkpt lat="42.69584" lon="1.38969">
        <ele>2096.2922363281</ele>
        <time>2012-09-15T12:54:59Z</time>
      </trkpt>
      <trkpt lat="42.69579" lon="1.38971">
        <ele>2096.7727050781</ele>
        <time>2012-09-15T12:55:06Z</time>
      </trkpt>
      <trkpt lat="42.69575" lon="1.38972">
        <ele>2098.6953125</ele>
        <time>2012-09-15T12:55:13Z</time>
      </trkpt>
      <trkpt lat="42.69571" lon="1.38973">
        <ele>2100.1374511719</ele>
        <time>2012-09-15T12:55:20Z</time>
      </trkpt>
      <trkpt lat="42.69567" lon="1.38977">
        <ele>2101.0986328125</ele>
        <time>2012-09-15T12:55:27Z</time>
      </trkpt>
      <trkpt lat="42.69562" lon="1.3898">
        <ele>2102.0598144531</ele>
        <time>2012-09-15T12:55:35Z</time>
      </trkpt>
      <trkpt lat="42.69558" lon="1.38983">
        <ele>2103.9826660156</ele>
        <time>2012-09-15T12:55:41Z</time>
      </trkpt>
      <trkpt lat="42.69551" lon="1.38986">
        <ele>2105.9050292969</ele>
        <time>2012-09-15T12:55:49Z</time>
      </trkpt>
      <trkpt lat="42.69546" lon="1.38988">
        <ele>2106.8664550781</ele>
        <time>2012-09-15T12:55:55Z</time>
      </trkpt>
      <trkpt lat="42.69543" lon="1.38989">
        <ele>2107.8278808594</ele>
        <time>2012-09-15T12:56:00Z</time>
      </trkpt>
      <trkpt lat="42.69539" lon="1.3899">
        <ele>2108.30859375</ele>
        <time>2012-09-15T12:56:05Z</time>
      </trkpt>
      <trkpt lat="42.69534" lon="1.38993">
        <ele>2108.7893066406</ele>
        <time>2012-09-15T12:56:12Z</time>
      </trkpt>
      <trkpt lat="42.69531" lon="1.38994">
        <ele>2109.7504882812</ele>
        <time>2012-09-15T12:56:17Z</time>
      </trkpt>
      <trkpt lat="42.69526" lon="1.38994">
        <ele>2110.2312011719</ele>
        <time>2012-09-15T12:56:24Z</time>
      </trkpt>
      <trkpt lat="42.69523" lon="1.38994">
        <ele>2110.7119140625</ele>
        <time>2012-09-15T12:56:30Z</time>
      </trkpt>
      <trkpt lat="42.6952" lon="1.38994">
        <ele>2112.1538085938</ele>
        <time>2012-09-15T12:56:36Z</time>
      </trkpt>
      <trkpt lat="42.69518" lon="1.38994">
        <ele>2113.115234375</ele>
        <time>2012-09-15T12:56:41Z</time>
      </trkpt>
      <trkpt lat="42.69514" lon="1.38994">
        <ele>2114.5571289062</ele>
        <time>2012-09-15T12:56:47Z</time>
      </trkpt>
      <trkpt lat="42.69512" lon="1.38995">
        <ele>2115.0378417969</ele>
        <time>2012-09-15T12:56:52Z</time>
      </trkpt>
      <trkpt lat="42.69509" lon="1.39002">
        <ele>2115.9990234375</ele>
        <time>2012-09-15T12:56:59Z</time>
      </trkpt>
      <trkpt lat="42.69505" lon="1.39001">
        <ele>2115.9990234375</ele>
        <time>2012-09-15T12:57:06Z</time>
      </trkpt>
      <trkpt lat="42.69502" lon="1.39001">
        <ele>2117.4409179688</ele>
        <time>2012-09-15T12:57:12Z</time>
      </trkpt>
      <trkpt lat="42.69501" lon="1.39004">
        <ele>2118.8830566406</ele>
        <time>2012-09-15T12:57:17Z</time>
      </trkpt>
      <trkpt lat="42.69499" lon="1.39008">
        <ele>2119.3637695312</ele>
        <time>2012-09-15T12:57:23Z</time>
      </trkpt>
      <trkpt lat="42.69495" lon="1.39017">
        <ele>2118.8830566406</ele>
        <time>2012-09-15T12:57:30Z</time>
      </trkpt>
      <trkpt lat="42.69494" lon="1.39018">
        <ele>2118.8830566406</ele>
        <time>2012-09-15T12:57:31Z</time>
      </trkpt>
      <trkpt lat="42.69487" lon="1.39025">
        <ele>2119.8442382812</ele>
        <time>2012-09-15T12:57:39Z</time>
      </trkpt>
      <trkpt lat="42.69485" lon="1.39026">
        <ele>2119.8442382812</ele>
        <time>2012-09-15T12:57:41Z</time>
      </trkpt>
      <trkpt lat="42.69481" lon="1.39031">
        <ele>2119.3637695312</ele>
        <time>2012-09-15T12:57:47Z</time>
      </trkpt>
      <trkpt lat="42.6948" lon="1.39032">
        <ele>2119.8442382812</ele>
        <time>2012-09-15T12:57:48Z</time>
      </trkpt>
      <trkpt lat="42.69476" lon="1.39033">
        <ele>2120.8056640625</ele>
        <time>2012-09-15T12:57:54Z</time>
      </trkpt>
      <trkpt lat="42.69472" lon="1.39037">
        <ele>2120.8056640625</ele>
        <time>2012-09-15T12:58:00Z</time>
      </trkpt>
      <trkpt lat="42.69469" lon="1.39043">
        <ele>2119.8442382812</ele>
        <time>2012-09-15T12:58:06Z</time>
      </trkpt>
      <trkpt lat="42.69464" lon="1.3905">
        <ele>2119.3637695312</ele>
        <time>2012-09-15T12:58:13Z</time>
      </trkpt>
      <trkpt lat="42.69464" lon="1.3905">
        <ele>2119.3637695312</ele>
        <time>2012-09-15T12:58:14Z</time>
      </trkpt>
      <trkpt lat="42.69459" lon="1.39057">
        <ele>2119.8442382812</ele>
        <time>2012-09-15T12:58:21Z</time>
      </trkpt>
      <trkpt lat="42.69454" lon="1.39062">
        <ele>2121.2861328125</ele>
        <time>2012-09-15T12:58:28Z</time>
      </trkpt>
      <trkpt lat="42.69448" lon="1.39069">
        <ele>2124.1704101562</ele>
        <time>2012-09-15T12:58:37Z</time>
      </trkpt>
      <trkpt lat="42.69442" lon="1.39074">
        <ele>2125.6123046875</ele>
        <time>2012-09-15T12:58:46Z</time>
      </trkpt>
      <trkpt lat="42.69439" lon="1.39079">
        <ele>2127.0544433594</ele>
        <time>2012-09-15T12:58:52Z</time>
      </trkpt>
      <trkpt lat="42.69437" lon="1.39081">
        <ele>2127.5349121094</ele>
        <time>2012-09-15T12:58:56Z</time>
      </trkpt>
      <trkpt lat="42.69434" lon="1.39083">
        <ele>2127.0544433594</ele>
        <time>2012-09-15T12:59:01Z</time>
      </trkpt>
      <trkpt lat="42.69431" lon="1.39084">
        <ele>2127.0544433594</ele>
        <time>2012-09-15T12:59:05Z</time>
      </trkpt>
      <trkpt lat="42.69427" lon="1.39089">
        <ele>2126.5737304688</ele>
        <time>2012-09-15T12:59:11Z</time>
      </trkpt>
      <trkpt lat="42.69421" lon="1.39094">
        <ele>2126.0930175781</ele>
        <time>2012-09-15T12:59:18Z</time>
      </trkpt>
      <trkpt lat="42.69416" lon="1.39099">
        <ele>2126.0930175781</ele>
        <time>2012-09-15T12:59:24Z</time>
      </trkpt>
      <trkpt lat="42.69411" lon="1.39104">
        <ele>2125.6123046875</ele>
        <time>2012-09-15T12:59:31Z</time>
      </trkpt>
      <trkpt lat="42.69405" lon="1.39111">
        <ele>2125.1315917969</ele>
        <time>2012-09-15T12:59:40Z</time>
      </trkpt>
      <trkpt lat="42.69401" lon="1.39113">
        <ele>2125.6123046875</ele>
        <time>2012-09-15T12:59:44Z</time>
      </trkpt>
      <trkpt lat="42.69396" lon="1.39114">
        <ele>2126.5737304688</ele>
        <time>2012-09-15T12:59:50Z</time>
      </trkpt>
      <trkpt lat="42.6939" lon="1.39117">
        <ele>2128.015625</ele>
        <time>2012-09-15T12:59:56Z</time>
      </trkpt>
      <trkpt lat="42.69386" lon="1.3912">
        <ele>2129.9382324219</ele>
        <time>2012-09-15T13:00:01Z</time>
      </trkpt>
      <trkpt lat="42.69382" lon="1.39122">
        <ele>2129.9382324219</ele>
        <time>2012-09-15T13:00:07Z</time>
      </trkpt>
      <trkpt lat="42.69377" lon="1.39125">
        <ele>2130.4189453125</ele>
        <time>2012-09-15T13:00:12Z</time>
      </trkpt>
      <trkpt lat="42.69375" lon="1.39133">
        <ele>2130.8996582031</ele>
        <time>2012-09-15T13:00:19Z</time>
      </trkpt>
      <trkpt lat="42.69375" lon="1.39136">
        <ele>2130.4189453125</ele>
        <time>2012-09-15T13:00:21Z</time>
      </trkpt>
      <trkpt lat="42.69372" lon="1.39146">
        <ele>2130.8996582031</ele>
        <time>2012-09-15T13:00:28Z</time>
      </trkpt>
      <trkpt lat="42.69368" lon="1.39153">
        <ele>2130.8996582031</ele>
        <time>2012-09-15T13:00:35Z</time>
      </trkpt>
      <trkpt lat="42.69364" lon="1.39156">
        <ele>2130.4189453125</ele>
        <time>2012-09-15T13:00:41Z</time>
      </trkpt>
      <trkpt lat="42.6936" lon="1.39154">
        <ele>2130.4189453125</ele>
        <time>2012-09-15T13:00:46Z</time>
      </trkpt>
      <trkpt lat="42.69357" lon="1.39147">
        <ele>2130.8996582031</ele>
        <time>2012-09-15T13:00:53Z</time>
      </trkpt>
      <trkpt lat="42.69355" lon="1.39144">
        <ele>2131.8608398438</ele>
        <time>2012-09-15T13:00:57Z</time>
      </trkpt>
      <trkpt lat="42.6935" lon="1.39146">
        <ele>2132.8220214844</ele>
        <time>2012-09-15T13:01:03Z</time>
      </trkpt>
      <trkpt lat="42.69347" lon="1.39145">
        <ele>2133.7834472656</ele>
        <time>2012-09-15T13:01:08Z</time>
      </trkpt>
      <trkpt lat="42.69345" lon="1.39147">
        <ele>2133.7834472656</ele>
        <time>2012-09-15T13:01:13Z</time>
      </trkpt>
      <trkpt lat="42.69342" lon="1.3915">
        <ele>2133.7834472656</ele>
        <time>2012-09-15T13:01:19Z</time>
      </trkpt>
      <trkpt lat="42.69338" lon="1.39155">
        <ele>2133.302734375</ele>
        <time>2012-09-15T13:01:26Z</time>
      </trkpt>
      <trkpt lat="42.69334" lon="1.39162">
        <ele>2133.302734375</ele>
        <time>2012-09-15T13:01:33Z</time>
      </trkpt>
      <trkpt lat="42.69333" lon="1.39168">
        <ele>2133.7834472656</ele>
        <time>2012-09-15T13:01:38Z</time>
      </trkpt>
      <trkpt lat="42.69328" lon="1.39173">
        <ele>2134.7448730469</ele>
        <time>2012-09-15T13:01:44Z</time>
      </trkpt>
      <trkpt lat="42.69324" lon="1.3918">
        <ele>2134.7448730469</ele>
        <time>2012-09-15T13:01:51Z</time>
      </trkpt>
      <trkpt lat="42.6932" lon="1.39186">
        <ele>2133.302734375</ele>
        <time>2012-09-15T13:01:57Z</time>
      </trkpt>
      <trkpt lat="42.69314" lon="1.39191">
        <ele>2132.3415527344</ele>
        <time>2012-09-15T13:02:03Z</time>
      </trkpt>
      <trkpt lat="42.6931" lon="1.39195">
        <ele>2131.8608398438</ele>
        <time>2012-09-15T13:02:09Z</time>
      </trkpt>
      <trkpt lat="42.69304" lon="1.39206">
        <ele>2130.4189453125</ele>
        <time>2012-09-15T13:02:17Z</time>
      </trkpt>
      <trkpt lat="42.69302" lon="1.39215">
        <ele>2130.4189453125</ele>
        <time>2012-09-15T13:02:23Z</time>
      </trkpt>
      <trkpt lat="42.69297" lon="1.39225">
        <ele>2129.4575195312</ele>
        <time>2012-09-15T13:02:30Z</time>
      </trkpt>
      <trkpt lat="42.69295" lon="1.39229">
        <ele>2128.015625</ele>
        <time>2012-09-15T13:02:35Z</time>
      </trkpt>
      <trkpt lat="42.6929" lon="1.39231">
        <ele>2128.4963378906</ele>
        <time>2012-09-15T13:02:42Z</time>
      </trkpt>
      <trkpt lat="42.69288" lon="1.39233">
        <ele>2129.4575195312</ele>
        <time>2012-09-15T13:02:47Z</time>
      </trkpt>
      <trkpt lat="42.69287" lon="1.39231">
        <ele>2130.4189453125</ele>
        <time>2012-09-15T13:02:51Z</time>
      </trkpt>
      <trkpt lat="42.69285" lon="1.3923">
        <ele>2131.8608398438</ele>
        <time>2012-09-15T13:02:56Z</time>
      </trkpt>
      <trkpt lat="42.69281" lon="1.39228">
        <ele>2133.302734375</ele>
        <time>2012-09-15T13:03:03Z</time>
      </trkpt>
      <trkpt lat="42.69279" lon="1.39228">
        <ele>2134.7448730469</ele>
        <time>2012-09-15T13:03:09Z</time>
      </trkpt>
      <trkpt lat="42.69279" lon="1.39227">
        <ele>2135.7060546875</ele>
        <time>2012-09-15T13:03:13Z</time>
      </trkpt>
      <trkpt lat="42.69272" lon="1.39228">
        <ele>2135.7060546875</ele>
        <time>2012-09-15T13:04:37Z</time>
      </trkpt>
      <trkpt lat="42.69254" lon="1.39229">
        <ele>2128.4963378906</ele>
        <time>2012-09-15T13:04:50Z</time>
      </trkpt>
      <trkpt lat="42.69255" lon="1.39229">
        <ele>2128.9768066406</ele>
        <time>2012-09-15T13:05:07Z</time>
      </trkpt>
      <trkpt lat="42.69255" lon="1.39228">
        <ele>2128.9768066406</ele>
        <time>2012-09-15T13:05:10Z</time>
      </trkpt>
      <trkpt lat="42.69258" lon="1.39231">
        <ele>2130.4189453125</ele>
        <time>2012-09-15T13:05:20Z</time>
      </trkpt>
      <trkpt lat="42.69257" lon="1.39232">
        <ele>2131.8608398438</ele>
        <time>2012-09-15T13:05:25Z</time>
      </trkpt>
      <trkpt lat="42.69261" lon="1.39228">
        <ele>2135.7060546875</ele>
        <time>2012-09-15T13:05:30Z</time>
      </trkpt>
      <trkpt lat="42.69263" lon="1.39228">
        <ele>2140.5126953125</ele>
        <time>2012-09-15T13:05:36Z</time>
      </trkpt>
      <trkpt lat="42.69266" lon="1.39229">
        <ele>2145.8000488281</ele>
        <time>2012-09-15T13:05:48Z</time>
      </trkpt>
      <trkpt lat="42.69267" lon="1.39228">
        <ele>2147.72265625</ele>
        <time>2012-09-15T13:06:02Z</time>
      </trkpt>
      <trkpt lat="42.69264" lon="1.39228">
        <ele>2148.6838378906</ele>
        <time>2012-09-15T13:06:08Z</time>
      </trkpt>
      <trkpt lat="42.69262" lon="1.39229">
        <ele>2149.6452636719</ele>
        <time>2012-09-15T13:06:14Z</time>
      </trkpt>
      <trkpt lat="42.69261" lon="1.39227">
        <ele>2150.6064453125</ele>
        <time>2012-09-15T13:06:18Z</time>
      </trkpt>
      <trkpt lat="42.6926" lon="1.39224">
        <ele>2151.5678710938</ele>
        <time>2012-09-15T13:06:23Z</time>
      </trkpt>
      <trkpt lat="42.69258" lon="1.39224">
        <ele>2152.5290527344</ele>
        <time>2012-09-15T13:06:28Z</time>
      </trkpt>
      <trkpt lat="42.69256" lon="1.39223">
        <ele>2153.4904785156</ele>
        <time>2012-09-15T13:06:34Z</time>
      </trkpt>
      <trkpt lat="42.69255" lon="1.39223">
        <ele>2153.9711914062</ele>
        <time>2012-09-15T13:06:35Z</time>
      </trkpt>
      <trkpt lat="42.69252" lon="1.39224">
        <ele>2154.4516601562</ele>
        <time>2012-09-15T13:06:41Z</time>
      </trkpt>
      <trkpt lat="42.69252" lon="1.39222">
        <ele>2155.8935546875</ele>
        <time>2012-09-15T13:06:46Z</time>
      </trkpt>
      <trkpt lat="42.69252" lon="1.39221">
        <ele>2155.8935546875</ele>
        <time>2012-09-15T13:06:51Z</time>
      </trkpt>
      <trkpt lat="42.6925" lon="1.39222">
        <ele>2156.8552246094</ele>
        <time>2012-09-15T13:07:03Z</time>
      </trkpt>
      <trkpt lat="42.69249" lon="1.3922">
        <ele>2157.3359375</ele>
        <time>2012-09-15T13:07:09Z</time>
      </trkpt>
      <trkpt lat="42.69248" lon="1.39218">
        <ele>2158.2971191406</ele>
        <time>2012-09-15T13:07:15Z</time>
      </trkpt>
      <trkpt lat="42.69245" lon="1.39217">
        <ele>2158.2971191406</ele>
        <time>2012-09-15T13:07:20Z</time>
      </trkpt>
      <trkpt lat="42.69243" lon="1.39216">
        <ele>2159.2585449219</ele>
        <time>2012-09-15T13:07:25Z</time>
      </trkpt>
      <trkpt lat="42.69243" lon="1.39215">
        <ele>2160.2197265625</ele>
        <time>2012-09-15T13:07:28Z</time>
      </trkpt>
      <trkpt lat="42.6924" lon="1.39215">
        <ele>2161.1811523438</ele>
        <time>2012-09-15T13:07:32Z</time>
      </trkpt>
      <trkpt lat="42.69237" lon="1.39215">
        <ele>2161.6618652344</ele>
        <time>2012-09-15T13:07:39Z</time>
      </trkpt>
      <trkpt lat="42.69234" lon="1.39216">
        <ele>2162.623046875</ele>
        <time>2012-09-15T13:07:44Z</time>
      </trkpt>
      <trkpt lat="42.69233" lon="1.39215">
        <ele>2163.5842285156</ele>
        <time>2012-09-15T13:07:49Z</time>
      </trkpt>
      <trkpt lat="42.69232" lon="1.39211">
        <ele>2164.0649414062</ele>
        <time>2012-09-15T13:07:55Z</time>
      </trkpt>
      <trkpt lat="42.69231" lon="1.39209">
        <ele>2164.5456542969</ele>
        <time>2012-09-15T13:08:00Z</time>
      </trkpt>
      <trkpt lat="42.69233" lon="1.3921">
        <ele>2165.9875488281</ele>
        <time>2012-09-15T13:08:17Z</time>
      </trkpt>
      <trkpt lat="42.69232" lon="1.39208">
        <ele>2165.5070800781</ele>
        <time>2012-09-15T13:08:32Z</time>
      </trkpt>
      <trkpt lat="42.69228" lon="1.39208">
        <ele>2166.9489746094</ele>
        <time>2012-09-15T13:08:45Z</time>
      </trkpt>
      <trkpt lat="42.69226" lon="1.39207">
        <ele>2168.3908691406</ele>
        <time>2012-09-15T13:08:50Z</time>
      </trkpt>
      <trkpt lat="42.69224" lon="1.39206">
        <ele>2169.8327636719</ele>
        <time>2012-09-15T13:08:56Z</time>
      </trkpt>
      <trkpt lat="42.69223" lon="1.39204">
        <ele>2171.2746582031</ele>
        <time>2012-09-15T13:09:02Z</time>
      </trkpt>
      <trkpt lat="42.69221" lon="1.39203">
        <ele>2172.236328125</ele>
        <time>2012-09-15T13:09:08Z</time>
      </trkpt>
      <trkpt lat="42.6922" lon="1.392">
        <ele>2172.7170410156</ele>
        <time>2012-09-15T13:09:13Z</time>
      </trkpt>
      <trkpt lat="42.69218" lon="1.392">
        <ele>2174.1589355469</ele>
        <time>2012-09-15T13:09:20Z</time>
      </trkpt>
      <trkpt lat="42.69217" lon="1.39199">
        <ele>2175.1201171875</ele>
        <time>2012-09-15T13:09:25Z</time>
      </trkpt>
      <trkpt lat="42.69216" lon="1.39199">
        <ele>2176.0815429688</ele>
        <time>2012-09-15T13:09:32Z</time>
      </trkpt>
      <trkpt lat="42.69215" lon="1.392">
        <ele>2177.04296875</ele>
        <time>2012-09-15T13:09:38Z</time>
      </trkpt>
      <trkpt lat="42.69213" lon="1.39198">
        <ele>2178.0041503906</ele>
        <time>2012-09-15T13:09:43Z</time>
      </trkpt>
      <trkpt lat="42.69212" lon="1.39199">
        <ele>2179.4460449219</ele>
        <time>2012-09-15T13:09:49Z</time>
      </trkpt>
      <trkpt lat="42.69211" lon="1.39201">
        <ele>2180.4074707031</ele>
        <time>2012-09-15T13:09:54Z</time>
      </trkpt>
      <trkpt lat="42.69209" lon="1.39202">
        <ele>2180.8881835938</ele>
        <time>2012-09-15T13:09:58Z</time>
      </trkpt>
      <trkpt lat="42.69209" lon="1.39202">
        <ele>2180.8881835938</ele>
        <time>2012-09-15T13:10:11Z</time>
      </trkpt>
      <trkpt lat="42.69207" lon="1.39202">
        <ele>2181.3686523438</ele>
        <time>2012-09-15T13:10:17Z</time>
      </trkpt>
      <trkpt lat="42.69204" lon="1.392">
        <ele>2182.330078125</ele>
        <time>2012-09-15T13:10:23Z</time>
      </trkpt>
      <trkpt lat="42.69202" lon="1.39199">
        <ele>2183.2912597656</ele>
        <time>2012-09-15T13:10:28Z</time>
      </trkpt>
      <trkpt lat="42.69201" lon="1.39198">
        <ele>2183.7719726562</ele>
        <time>2012-09-15T13:10:34Z</time>
      </trkpt>
      <trkpt lat="42.69201" lon="1.39196">
        <ele>2184.7333984375</ele>
        <time>2012-09-15T13:10:42Z</time>
      </trkpt>
      <trkpt lat="42.69202" lon="1.39193">
        <ele>2185.6945800781</ele>
        <time>2012-09-15T13:10:54Z</time>
      </trkpt>
      <trkpt lat="42.69202" lon="1.3919">
        <ele>2186.1752929688</ele>
        <time>2012-09-15T13:11:00Z</time>
      </trkpt>
      <trkpt lat="42.69201" lon="1.39188">
        <ele>2188.0981445312</ele>
        <time>2012-09-15T13:11:07Z</time>
      </trkpt>
      <trkpt lat="42.69201" lon="1.39185">
        <ele>2189.5400390625</ele>
        <time>2012-09-15T13:11:13Z</time>
      </trkpt>
      <trkpt lat="42.69201" lon="1.39184">
        <ele>2190.0207519531</ele>
        <time>2012-09-15T13:11:17Z</time>
      </trkpt>
      <trkpt lat="42.69199" lon="1.39184">
        <ele>2191.4626464844</ele>
        <time>2012-09-15T13:11:22Z</time>
      </trkpt>
      <trkpt lat="42.69198" lon="1.39184">
        <ele>2191.943359375</ele>
        <time>2012-09-15T13:11:28Z</time>
      </trkpt>
      <trkpt lat="42.69196" lon="1.39186">
        <ele>2192.9045410156</ele>
        <time>2012-09-15T13:12:00Z</time>
      </trkpt>
      <trkpt lat="42.69193" lon="1.39185">
        <ele>2193.8659667969</ele>
        <time>2012-09-15T13:12:05Z</time>
      </trkpt>
      <trkpt lat="42.69192" lon="1.39183">
        <ele>2195.3078613281</ele>
        <time>2012-09-15T13:12:12Z</time>
      </trkpt>
      <trkpt lat="42.69191" lon="1.39181">
        <ele>2196.2692871094</ele>
        <time>2012-09-15T13:12:17Z</time>
      </trkpt>
      <trkpt lat="42.69188" lon="1.39181">
        <ele>2197.23046875</ele>
        <time>2012-09-15T13:12:22Z</time>
      </trkpt>
      <trkpt lat="42.69186" lon="1.39179">
        <ele>2198.1916503906</ele>
        <time>2012-09-15T13:12:28Z</time>
      </trkpt>
      <trkpt lat="42.69185" lon="1.39177">
        <ele>2199.6337890625</ele>
        <time>2012-09-15T13:12:34Z</time>
      </trkpt>
      <trkpt lat="42.69186" lon="1.39175">
        <ele>2200.1145019531</ele>
        <time>2012-09-15T13:12:38Z</time>
      </trkpt>
      <trkpt lat="42.69185" lon="1.39173">
        <ele>2201.5563964844</ele>
        <time>2012-09-15T13:12:45Z</time>
      </trkpt>
      <trkpt lat="42.69184" lon="1.39171">
        <ele>2202.0368652344</ele>
        <time>2012-09-15T13:12:51Z</time>
      </trkpt>
      <trkpt lat="42.69183" lon="1.3917">
        <ele>2203.4790039062</ele>
        <time>2012-09-15T13:12:58Z</time>
      </trkpt>
      <trkpt lat="42.69181" lon="1.39169">
        <ele>2205.4018554688</ele>
        <time>2012-09-15T13:13:10Z</time>
      </trkpt>
      <trkpt lat="42.6918" lon="1.39168">
        <ele>2205.4018554688</ele>
        <time>2012-09-15T13:13:17Z</time>
      </trkpt>
      <trkpt lat="42.69177" lon="1.3917">
        <ele>2205.8823242188</ele>
        <time>2012-09-15T13:13:24Z</time>
      </trkpt>
      <trkpt lat="42.69175" lon="1.39172">
        <ele>2206.84375</ele>
        <time>2012-09-15T13:13:31Z</time>
      </trkpt>
      <trkpt lat="42.69172" lon="1.39174">
        <ele>2208.7663574219</ele>
        <time>2012-09-15T13:13:40Z</time>
      </trkpt>
      <trkpt lat="42.6917" lon="1.39174">
        <ele>2209.2470703125</ele>
        <time>2012-09-15T13:13:45Z</time>
      </trkpt>
      <trkpt lat="42.69167" lon="1.39174">
        <ele>2210.2082519531</ele>
        <time>2012-09-15T13:13:51Z</time>
      </trkpt>
      <trkpt lat="42.69167" lon="1.39174">
        <ele>2210.6889648438</ele>
        <time>2012-09-15T13:13:53Z</time>
      </trkpt>
      <trkpt lat="42.69164" lon="1.39176">
        <ele>2212.6115722656</ele>
        <time>2012-09-15T13:13:58Z</time>
      </trkpt>
      <trkpt lat="42.69163" lon="1.39178">
        <ele>2214.0534667969</ele>
        <time>2012-09-15T13:14:03Z</time>
      </trkpt>
      <trkpt lat="42.69161" lon="1.39179">
        <ele>2214.5341796875</ele>
        <time>2012-09-15T13:14:10Z</time>
      </trkpt>
      <trkpt lat="42.69159" lon="1.39181">
        <ele>2215.0148925781</ele>
        <time>2012-09-15T13:14:16Z</time>
      </trkpt>
      <trkpt lat="42.69157" lon="1.39183">
        <ele>2216.9375</ele>
        <time>2012-09-15T13:14:22Z</time>
      </trkpt>
      <trkpt lat="42.69155" lon="1.39183">
        <ele>2217.41796875</ele>
        <time>2012-09-15T13:14:28Z</time>
      </trkpt>
      <trkpt lat="42.69153" lon="1.39184">
        <ele>2218.3793945312</ele>
        <time>2012-09-15T13:14:39Z</time>
      </trkpt>
      <trkpt lat="42.69151" lon="1.39186">
        <ele>2217.41796875</ele>
        <time>2012-09-15T13:14:55Z</time>
      </trkpt>
      <trkpt lat="42.69149" lon="1.39187">
        <ele>2218.8601074219</ele>
        <time>2012-09-15T13:15:00Z</time>
      </trkpt>
      <trkpt lat="42.69148" lon="1.39187">
        <ele>2219.8212890625</ele>
        <time>2012-09-15T13:15:06Z</time>
      </trkpt>
      <trkpt lat="42.69147" lon="1.3919">
        <ele>2220.7829589844</ele>
        <time>2012-09-15T13:15:11Z</time>
      </trkpt>
      <trkpt lat="42.69146" lon="1.39192">
        <ele>2221.2634277344</ele>
        <time>2012-09-15T13:15:16Z</time>
      </trkpt>
      <trkpt lat="42.69145" lon="1.39195">
        <ele>2222.2248535156</ele>
        <time>2012-09-15T13:15:21Z</time>
      </trkpt>
      <trkpt lat="42.69144" lon="1.39199">
        <ele>2224.6281738281</ele>
        <time>2012-09-15T13:15:26Z</time>
      </trkpt>
      <trkpt lat="42.69142" lon="1.39202">
        <ele>2225.1086425781</ele>
        <time>2012-09-15T13:15:31Z</time>
      </trkpt>
      <trkpt lat="42.69138" lon="1.3921">
        <ele>2226.0700683594</ele>
        <time>2012-09-15T13:15:39Z</time>
      </trkpt>
      <trkpt lat="42.69136" lon="1.3922">
        <ele>2227.5119628906</ele>
        <time>2012-09-15T13:15:47Z</time>
      </trkpt>
      <trkpt lat="42.69135" lon="1.3923">
        <ele>2227.9926757812</ele>
        <time>2012-09-15T13:15:55Z</time>
      </trkpt>
      <trkpt lat="42.69132" lon="1.39238">
        <ele>2228.4733886719</ele>
        <time>2012-09-15T13:16:01Z</time>
      </trkpt>
      <trkpt lat="42.69131" lon="1.39242">
        <ele>2228.9538574219</ele>
        <time>2012-09-15T13:16:06Z</time>
      </trkpt>
      <trkpt lat="42.69128" lon="1.39246">
        <ele>2230.3959960938</ele>
        <time>2012-09-15T13:16:12Z</time>
      </trkpt>
      <trkpt lat="42.69126" lon="1.39248">
        <ele>2230.8767089844</ele>
        <time>2012-09-15T13:16:18Z</time>
      </trkpt>
      <trkpt lat="42.69125" lon="1.39251">
        <ele>2230.8767089844</ele>
        <time>2012-09-15T13:16:22Z</time>
      </trkpt>
      <trkpt lat="42.69126" lon="1.39256">
        <ele>2231.837890625</ele>
        <time>2012-09-15T13:16:28Z</time>
      </trkpt>
      <trkpt lat="42.69131" lon="1.39258">
        <ele>2234.7219238281</ele>
        <time>2012-09-15T13:16:44Z</time>
      </trkpt>
      <trkpt lat="42.69133" lon="1.39263">
        <ele>2237.1252441406</ele>
        <time>2012-09-15T13:16:54Z</time>
      </trkpt>
      <trkpt lat="42.69133" lon="1.39267">
        <ele>2236.64453125</ele>
        <time>2012-09-15T13:16:59Z</time>
      </trkpt>
      <trkpt lat="42.69135" lon="1.39269">
        <ele>2236.64453125</ele>
        <time>2012-09-15T13:17:04Z</time>
      </trkpt>
      <trkpt lat="42.69136" lon="1.39274">
        <ele>2237.6059570312</ele>
        <time>2012-09-15T13:17:10Z</time>
      </trkpt>
      <trkpt lat="42.69133" lon="1.39278">
        <ele>2237.6059570312</ele>
        <time>2012-09-15T13:17:16Z</time>
      </trkpt>
      <trkpt lat="42.69131" lon="1.39281">
        <ele>2237.6059570312</ele>
        <time>2012-09-15T13:17:20Z</time>
      </trkpt>
      <trkpt lat="42.6913" lon="1.39286">
        <ele>2238.0866699219</ele>
        <time>2012-09-15T13:17:27Z</time>
      </trkpt>
      <trkpt lat="42.69129" lon="1.39291">
        <ele>2238.0866699219</ele>
        <time>2012-09-15T13:17:35Z</time>
      </trkpt>
      <trkpt lat="42.69128" lon="1.39298">
        <ele>2238.0866699219</ele>
        <time>2012-09-15T13:17:41Z</time>
      </trkpt>
      <trkpt lat="42.69125" lon="1.39304">
        <ele>2238.0866699219</ele>
        <time>2012-09-15T13:17:46Z</time>
      </trkpt>
      <trkpt lat="42.69125" lon="1.39311">
        <ele>2237.6059570312</ele>
        <time>2012-09-15T13:17:52Z</time>
      </trkpt>
      <trkpt lat="42.69124" lon="1.39317">
        <ele>2237.6059570312</ele>
        <time>2012-09-15T13:17:57Z</time>
      </trkpt>
      <trkpt lat="42.69124" lon="1.39322">
        <ele>2238.0866699219</ele>
        <time>2012-09-15T13:18:01Z</time>
      </trkpt>
      <trkpt lat="42.69126" lon="1.39334">
        <ele>2239.0478515625</ele>
        <time>2012-09-15T13:18:10Z</time>
      </trkpt>
      <trkpt lat="42.69127" lon="1.39342">
        <ele>2239.0478515625</ele>
        <time>2012-09-15T13:18:16Z</time>
      </trkpt>
      <trkpt lat="42.69129" lon="1.39348">
        <ele>2238.5673828125</ele>
        <time>2012-09-15T13:18:21Z</time>
      </trkpt>
      <trkpt lat="42.6913" lon="1.39356">
        <ele>2238.5673828125</ele>
        <time>2012-09-15T13:18:27Z</time>
      </trkpt>
      <trkpt lat="42.69133" lon="1.39364">
        <ele>2238.5673828125</ele>
        <time>2012-09-15T13:18:33Z</time>
      </trkpt>
      <trkpt lat="42.69132" lon="1.39372">
        <ele>2240.0092773438</ele>
        <time>2012-09-15T13:18:39Z</time>
      </trkpt>
      <trkpt lat="42.6913" lon="1.3938">
        <ele>2240.9704589844</ele>
        <time>2012-09-15T13:18:46Z</time>
      </trkpt>
      <trkpt lat="42.69127" lon="1.39387">
        <ele>2240.0092773438</ele>
        <time>2012-09-15T13:18:53Z</time>
      </trkpt>
      <trkpt lat="42.69125" lon="1.39388">
        <ele>2240.0092773438</ele>
        <time>2012-09-15T13:18:58Z</time>
      </trkpt>
      <trkpt lat="42.69126" lon="1.39386">
        <ele>2240.4897460938</ele>
        <time>2012-09-15T13:19:05Z</time>
      </trkpt>
      <trkpt lat="42.69127" lon="1.39378">
        <ele>2240.4897460938</ele>
        <time>2012-09-15T13:19:11Z</time>
      </trkpt>
      <trkpt lat="42.6913" lon="1.39371">
        <ele>2240.4897460938</ele>
        <time>2012-09-15T13:19:18Z</time>
      </trkpt>
      <trkpt lat="42.6913" lon="1.39363">
        <ele>2239.5285644531</ele>
        <time>2012-09-15T13:19:24Z</time>
      </trkpt>
      <trkpt lat="42.69128" lon="1.39357">
        <ele>2239.0478515625</ele>
        <time>2012-09-15T13:19:30Z</time>
      </trkpt>
      <trkpt lat="42.69126" lon="1.39347">
        <ele>2240.0092773438</ele>
        <time>2012-09-15T13:19:38Z</time>
      </trkpt>
      <trkpt lat="42.69124" lon="1.39341">
        <ele>2240.4897460938</ele>
        <time>2012-09-15T13:19:44Z</time>
      </trkpt>
      <trkpt lat="42.69122" lon="1.39334">
        <ele>2241.451171875</ele>
        <time>2012-09-15T13:19:50Z</time>
      </trkpt>
      <trkpt lat="42.69121" lon="1.39327">
        <ele>2240.9704589844</ele>
        <time>2012-09-15T13:19:57Z</time>
      </trkpt>
      <trkpt lat="42.69121" lon="1.3932">
        <ele>2240.4897460938</ele>
        <time>2012-09-15T13:20:02Z</time>
      </trkpt>
      <trkpt lat="42.69121" lon="1.39312">
        <ele>2240.0092773438</ele>
        <time>2012-09-15T13:20:09Z</time>
      </trkpt>
      <trkpt lat="42.69121" lon="1.39308">
        <ele>2239.5285644531</ele>
        <time>2012-09-15T13:20:14Z</time>
      </trkpt>
      <trkpt lat="42.69123" lon="1.39301">
        <ele>2240.4897460938</ele>
        <time>2012-09-15T13:20:20Z</time>
      </trkpt>
      <trkpt lat="42.69125" lon="1.39295">
        <ele>2240.9704589844</ele>
        <time>2012-09-15T13:20:25Z</time>
      </trkpt>
      <trkpt lat="42.69127" lon="1.39289">
        <ele>2240.4897460938</ele>
        <time>2012-09-15T13:20:31Z</time>
      </trkpt>
      <trkpt lat="42.69127" lon="1.39283">
        <ele>2240.0092773438</ele>
        <time>2012-09-15T13:20:39Z</time>
      </trkpt>
      <trkpt lat="42.69123" lon="1.39282">
        <ele>2240.9704589844</ele>
        <time>2012-09-15T13:20:44Z</time>
      </trkpt>
      <trkpt lat="42.69121" lon="1.3928">
        <ele>2241.9318847656</ele>
        <time>2012-09-15T13:20:48Z</time>
      </trkpt>
      <trkpt lat="42.69119" lon="1.39278">
        <ele>2242.8930664062</ele>
        <time>2012-09-15T13:20:54Z</time>
      </trkpt>
      <trkpt lat="42.69116" lon="1.39275">
        <ele>2243.8544921875</ele>
        <time>2012-09-15T13:21:00Z</time>
      </trkpt>
      <trkpt lat="42.69113" lon="1.39272">
        <ele>2244.8156738281</ele>
        <time>2012-09-15T13:21:07Z</time>
      </trkpt>
      <trkpt lat="42.69111" lon="1.39271">
        <ele>2245.7770996094</ele>
        <time>2012-09-15T13:21:11Z</time>
      </trkpt>
      <trkpt lat="42.69107" lon="1.39267">
        <ele>2246.73828125</ele>
        <time>2012-09-15T13:21:18Z</time>
      </trkpt>
      <trkpt lat="42.69102" lon="1.39262">
        <ele>2247.2189941406</ele>
        <time>2012-09-15T13:21:26Z</time>
      </trkpt>
      <trkpt lat="42.69099" lon="1.39259">
        <ele>2248.1801757812</ele>
        <time>2012-09-15T13:21:31Z</time>
      </trkpt>
      <trkpt lat="42.69098" lon="1.39256">
        <ele>2249.1416015625</ele>
        <time>2012-09-15T13:21:37Z</time>
      </trkpt>
      <trkpt lat="42.69095" lon="1.39254">
        <ele>2249.6223144531</ele>
        <time>2012-09-15T13:21:42Z</time>
      </trkpt>
      <trkpt lat="42.69093" lon="1.3925">
        <ele>2250.5834960938</ele>
        <time>2012-09-15T13:21:48Z</time>
      </trkpt>
      <trkpt lat="42.69091" lon="1.39249">
        <ele>2251.0642089844</ele>
        <time>2012-09-15T13:21:54Z</time>
      </trkpt>
      <trkpt lat="42.6909" lon="1.39247">
        <ele>2251.544921875</ele>
        <time>2012-09-15T13:22:00Z</time>
      </trkpt>
      <trkpt lat="42.69088" lon="1.39246">
        <ele>2250.1030273438</ele>
        <time>2012-09-15T13:22:26Z</time>
      </trkpt>
      <trkpt lat="42.69084" lon="1.39242">
        <ele>2251.544921875</ele>
        <time>2012-09-15T13:22:33Z</time>
      </trkpt>
      <trkpt lat="42.69081" lon="1.39237">
        <ele>2252.0256347656</ele>
        <time>2012-09-15T13:22:39Z</time>
      </trkpt>
      <trkpt lat="42.6908" lon="1.39235">
        <ele>2252.9870605469</ele>
        <time>2012-09-15T13:22:43Z</time>
      </trkpt>
      <trkpt lat="42.69078" lon="1.39232">
        <ele>2253.9484863281</ele>
        <time>2012-09-15T13:22:48Z</time>
      </trkpt>
      <trkpt lat="42.69077" lon="1.39227">
        <ele>2254.9096679688</ele>
        <time>2012-09-15T13:22:54Z</time>
      </trkpt>
      <trkpt lat="42.69076" lon="1.39223">
        <ele>2256.3515625</ele>
        <time>2012-09-15T13:23:00Z</time>
      </trkpt>
      <trkpt lat="42.69074" lon="1.39218">
        <ele>2257.7937011719</ele>
        <time>2012-09-15T13:23:06Z</time>
      </trkpt>
      <trkpt lat="42.69073" lon="1.39215">
        <ele>2258.7548828125</ele>
        <time>2012-09-15T13:23:13Z</time>
      </trkpt>
      <trkpt lat="42.69071" lon="1.39213">
        <ele>2260.1967773438</ele>
        <time>2012-09-15T13:23:18Z</time>
      </trkpt>
      <trkpt lat="42.6907" lon="1.3921">
        <ele>2261.158203125</ele>
        <time>2012-09-15T13:23:25Z</time>
      </trkpt>
      <trkpt lat="42.6907" lon="1.3921">
        <ele>2261.6389160156</ele>
        <time>2012-09-15T13:23:35Z</time>
      </trkpt>
      <trkpt lat="42.6907" lon="1.3921">
        <ele>2263.0808105469</ele>
        <time>2012-09-15T13:23:49Z</time>
      </trkpt>
      <trkpt lat="42.69068" lon="1.39207">
        <ele>2263.5612792969</ele>
        <time>2012-09-15T13:24:02Z</time>
      </trkpt>
      <trkpt lat="42.69065" lon="1.39203">
        <ele>2265.4841308594</ele>
        <time>2012-09-15T13:24:08Z</time>
      </trkpt>
      <trkpt lat="42.69064" lon="1.39201">
        <ele>2266.4453125</ele>
        <time>2012-09-15T13:24:14Z</time>
      </trkpt>
      <trkpt lat="42.69061" lon="1.39199">
        <ele>2267.4064941406</ele>
        <time>2012-09-15T13:24:20Z</time>
      </trkpt>
      <trkpt lat="42.69059" lon="1.39197">
        <ele>2268.8488769531</ele>
        <time>2012-09-15T13:24:25Z</time>
      </trkpt>
      <trkpt lat="42.69058" lon="1.39195">
        <ele>2269.8100585938</ele>
        <time>2012-09-15T13:24:30Z</time>
      </trkpt>
      <trkpt lat="42.69056" lon="1.39194">
        <ele>2270.771484375</ele>
        <time>2012-09-15T13:24:35Z</time>
      </trkpt>
      <trkpt lat="42.69055" lon="1.39195">
        <ele>2271.251953125</ele>
        <time>2012-09-15T13:24:44Z</time>
      </trkpt>
      <trkpt lat="42.69053" lon="1.39197">
        <ele>2272.6940917969</ele>
        <time>2012-09-15T13:24:49Z</time>
      </trkpt>
      <trkpt lat="42.69051" lon="1.39199">
        <ele>2273.1748046875</ele>
        <time>2012-09-15T13:24:55Z</time>
      </trkpt>
      <trkpt lat="42.6905" lon="1.39199">
        <ele>2273.6552734375</ele>
        <time>2012-09-15T13:25:00Z</time>
      </trkpt>
      <trkpt lat="42.69048" lon="1.39201">
        <ele>2274.6166992188</ele>
        <time>2012-09-15T13:25:24Z</time>
      </trkpt>
      <trkpt lat="42.69046" lon="1.39201">
        <ele>2275.5778808594</ele>
        <time>2012-09-15T13:25:29Z</time>
      </trkpt>
      <trkpt lat="42.69044" lon="1.39202">
        <ele>2277.0200195312</ele>
        <time>2012-09-15T13:25:35Z</time>
      </trkpt>
      <trkpt lat="42.69042" lon="1.39203">
        <ele>2277.9812011719</ele>
        <time>2012-09-15T13:25:39Z</time>
      </trkpt>
      <trkpt lat="42.6904" lon="1.39202">
        <ele>2278.9423828125</ele>
        <time>2012-09-15T13:25:44Z</time>
      </trkpt>
      <trkpt lat="42.69039" lon="1.39205">
        <ele>2279.9038085938</ele>
        <time>2012-09-15T13:25:50Z</time>
      </trkpt>
      <trkpt lat="42.69036" lon="1.39205">
        <ele>2281.345703125</ele>
        <time>2012-09-15T13:25:56Z</time>
      </trkpt>
      <trkpt lat="42.69035" lon="1.39206">
        <ele>2281.8264160156</ele>
        <time>2012-09-15T13:26:03Z</time>
      </trkpt>
      <trkpt lat="42.69034" lon="1.39209">
        <ele>2283.2683105469</ele>
        <time>2012-09-15T13:26:21Z</time>
      </trkpt>
      <trkpt lat="42.69031" lon="1.39211">
        <ele>2284.2299804688</ele>
        <time>2012-09-15T13:26:28Z</time>
      </trkpt>
      <trkpt lat="42.69029" lon="1.39211">
        <ele>2285.671875</ele>
        <time>2012-09-15T13:26:33Z</time>
      </trkpt>
      <trkpt lat="42.69028" lon="1.39213">
        <ele>2286.1525878906</ele>
        <time>2012-09-15T13:26:39Z</time>
      </trkpt>
      <trkpt lat="42.69026" lon="1.39218">
        <ele>2287.5944824219</ele>
        <time>2012-09-15T13:26:46Z</time>
      </trkpt>
      <trkpt lat="42.69025" lon="1.3922">
        <ele>2288.0751953125</ele>
        <time>2012-09-15T13:26:51Z</time>
      </trkpt>
      <trkpt lat="42.69024" lon="1.39222">
        <ele>2289.0363769531</ele>
        <time>2012-09-15T13:26:55Z</time>
      </trkpt>
      <trkpt lat="42.69022" lon="1.39222">
        <ele>2289.5170898438</ele>
        <time>2012-09-15T13:27:00Z</time>
      </trkpt>
      <trkpt lat="42.6902" lon="1.39224">
        <ele>2289.9978027344</ele>
        <time>2012-09-15T13:27:05Z</time>
      </trkpt>
      <trkpt lat="42.69018" lon="1.39224">
        <ele>2291.4396972656</ele>
        <time>2012-09-15T13:27:12Z</time>
      </trkpt>
      <trkpt lat="42.69017" lon="1.39226">
        <ele>2292.8815917969</ele>
        <time>2012-09-15T13:27:19Z</time>
      </trkpt>
      <trkpt lat="42.69014" lon="1.39226">
        <ele>2292.4011230469</ele>
        <time>2012-09-15T13:27:48Z</time>
      </trkpt>
      <trkpt lat="42.69011" lon="1.39224">
        <ele>2294.3234863281</ele>
        <time>2012-09-15T13:27:53Z</time>
      </trkpt>
      <trkpt lat="42.69011" lon="1.3922">
        <ele>2295.765625</ele>
        <time>2012-09-15T13:28:00Z</time>
      </trkpt>
      <trkpt lat="42.69007" lon="1.39222">
        <ele>2297.6882324219</ele>
        <time>2012-09-15T13:28:07Z</time>
      </trkpt>
      <trkpt lat="42.69003" lon="1.39223">
        <ele>2298.6494140625</ele>
        <time>2012-09-15T13:28:13Z</time>
      </trkpt>
      <trkpt lat="42.68999" lon="1.39229">
        <ele>2299.6108398438</ele>
        <time>2012-09-15T13:28:20Z</time>
      </trkpt>
      <trkpt lat="42.68994" lon="1.39233">
        <ele>2300.572265625</ele>
        <time>2012-09-15T13:28:27Z</time>
      </trkpt>
      <trkpt lat="42.6899" lon="1.39236">
        <ele>2302.4948730469</ele>
        <time>2012-09-15T13:28:34Z</time>
      </trkpt>
      <trkpt lat="42.68988" lon="1.39238">
        <ele>2302.4948730469</ele>
        <time>2012-09-15T13:28:38Z</time>
      </trkpt>
      <trkpt lat="42.68984" lon="1.39243">
        <ele>2302.9755859375</ele>
        <time>2012-09-15T13:28:44Z</time>
      </trkpt>
      <trkpt lat="42.6898" lon="1.39249">
        <ele>2303.4562988281</ele>
        <time>2012-09-15T13:28:51Z</time>
      </trkpt>
      <trkpt lat="42.68977" lon="1.39256">
        <ele>2304.8981933594</ele>
        <time>2012-09-15T13:28:58Z</time>
      </trkpt>
      <trkpt lat="42.68973" lon="1.39261">
        <ele>2306.3400878906</ele>
        <time>2012-09-15T13:29:05Z</time>
      </trkpt>
      <trkpt lat="42.6897" lon="1.39266">
        <ele>2307.3015136719</ele>
        <time>2012-09-15T13:29:11Z</time>
      </trkpt>
      <trkpt lat="42.68969" lon="1.39268">
        <ele>2308.7434082031</ele>
        <time>2012-09-15T13:29:16Z</time>
      </trkpt>
      <trkpt lat="42.68967" lon="1.3927">
        <ele>2309.2241210938</ele>
        <time>2012-09-15T13:29:21Z</time>
      </trkpt>
      <trkpt lat="42.68963" lon="1.39273">
        <ele>2309.7045898438</ele>
        <time>2012-09-15T13:29:27Z</time>
      </trkpt>
      <trkpt lat="42.6896" lon="1.39274">
        <ele>2310.666015625</ele>
        <time>2012-09-15T13:29:32Z</time>
      </trkpt>
      <trkpt lat="42.68956" lon="1.39273">
        <ele>2311.1467285156</ele>
        <time>2012-09-15T13:29:38Z</time>
      </trkpt>
      <trkpt lat="42.68955" lon="1.39273">
        <ele>2312.1079101562</ele>
        <time>2012-09-15T13:29:45Z</time>
      </trkpt>
      <trkpt lat="42.6895" lon="1.39273">
        <ele>2313.0693359375</ele>
        <time>2012-09-15T13:29:52Z</time>
      </trkpt>
      <trkpt lat="42.68943" lon="1.39274">
        <ele>2313.0693359375</ele>
        <time>2012-09-15T13:30:01Z</time>
      </trkpt>
      <trkpt lat="42.68938" lon="1.39275">
        <ele>2311.6274414062</ele>
        <time>2012-09-15T13:30:08Z</time>
      </trkpt>
      <trkpt lat="42.68934" lon="1.39276">
        <ele>2312.1079101562</ele>
        <time>2012-09-15T13:30:13Z</time>
      </trkpt>
      <trkpt lat="42.68932" lon="1.3928">
        <ele>2313.0693359375</ele>
        <time>2012-09-15T13:30:19Z</time>
      </trkpt>
      <trkpt lat="42.6893" lon="1.39288">
        <ele>2312.5886230469</ele>
        <time>2012-09-15T13:30:27Z</time>
      </trkpt>
      <trkpt lat="42.68929" lon="1.39293">
        <ele>2310.1853027344</ele>
        <time>2012-09-15T13:30:35Z</time>
      </trkpt>
      <trkpt lat="42.68924" lon="1.39296">
        <ele>2308.7434082031</ele>
        <time>2012-09-15T13:30:41Z</time>
      </trkpt>
      <trkpt lat="42.68918" lon="1.39299">
        <ele>2308.2626953125</ele>
        <time>2012-09-15T13:30:48Z</time>
      </trkpt>
      <trkpt lat="42.68916" lon="1.393">
        <ele>2307.3015136719</ele>
        <time>2012-09-15T13:30:53Z</time>
      </trkpt>
      <trkpt lat="42.68914" lon="1.39301">
        <ele>2305.859375</ele>
        <time>2012-09-15T13:31:01Z</time>
      </trkpt>
      <trkpt lat="42.68911" lon="1.39305">
        <ele>2302.9755859375</ele>
        <time>2012-09-15T13:31:08Z</time>
      </trkpt>
      <trkpt lat="42.68907" lon="1.3931">
        <ele>2301.5336914062</ele>
        <time>2012-09-15T13:31:12Z</time>
      </trkpt>
      <trkpt lat="42.68904" lon="1.39314">
        <ele>2300.091796875</ele>
        <time>2012-09-15T13:31:16Z</time>
      </trkpt>
      <trkpt lat="42.68899" lon="1.3932">
        <ele>2298.1687011719</ele>
        <time>2012-09-15T13:31:24Z</time>
      </trkpt>
      <trkpt lat="42.68894" lon="1.3932">
        <ele>2296.2463378906</ele>
        <time>2012-09-15T13:31:30Z</time>
      </trkpt>
      <trkpt lat="42.68892" lon="1.39323">
        <ele>2295.2849121094</ele>
        <time>2012-09-15T13:31:34Z</time>
      </trkpt>
      <trkpt lat="42.68885" lon="1.39323">
        <ele>2294.3234863281</ele>
        <time>2012-09-15T13:31:40Z</time>
      </trkpt>
      <trkpt lat="42.68882" lon="1.39325">
        <ele>2293.8430175781</ele>
        <time>2012-09-15T13:31:44Z</time>
      </trkpt>
      <trkpt lat="42.68881" lon="1.39326">
        <ele>2293.3623046875</ele>
        <time>2012-09-15T13:31:45Z</time>
      </trkpt>
      <trkpt lat="42.68877" lon="1.3933">
        <ele>2293.8430175781</ele>
        <time>2012-09-15T13:31:51Z</time>
      </trkpt>
      <trkpt lat="42.68875" lon="1.39332">
        <ele>2297.2075195312</ele>
        <time>2012-09-15T13:32:01Z</time>
      </trkpt>
      <trkpt lat="42.68873" lon="1.39333">
        <ele>2297.2075195312</ele>
        <time>2012-09-15T13:32:06Z</time>
      </trkpt>
      <trkpt lat="42.68871" lon="1.39335">
        <ele>2296.2463378906</ele>
        <time>2012-09-15T13:32:10Z</time>
      </trkpt>
      <trkpt lat="42.68869" lon="1.39339">
        <ele>2294.8041992188</ele>
        <time>2012-09-15T13:32:15Z</time>
      </trkpt>
      <trkpt lat="42.68866" lon="1.39342">
        <ele>2293.3623046875</ele>
        <time>2012-09-15T13:32:20Z</time>
      </trkpt>
      <trkpt lat="42.68863" lon="1.39345">
        <ele>2292.4011230469</ele>
        <time>2012-09-15T13:32:24Z</time>
      </trkpt>
      <trkpt lat="42.6886" lon="1.39349">
        <ele>2289.9978027344</ele>
        <time>2012-09-15T13:32:29Z</time>
      </trkpt>
      <trkpt lat="42.68856" lon="1.39351">
        <ele>2288.0751953125</ele>
        <time>2012-09-15T13:32:35Z</time>
      </trkpt>
      <trkpt lat="42.68854" lon="1.39355">
        <ele>2285.671875</ele>
        <time>2012-09-15T13:32:41Z</time>
      </trkpt>
      <trkpt lat="42.68854" lon="1.39359">
        <ele>2283.2683105469</ele>
        <time>2012-09-15T13:32:45Z</time>
      </trkpt>
      <trkpt lat="42.68851" lon="1.39362">
        <ele>2280.865234375</ele>
        <time>2012-09-15T13:32:51Z</time>
      </trkpt>
      <trkpt lat="42.68849" lon="1.39365">
        <ele>2279.9038085938</ele>
        <time>2012-09-15T13:32:55Z</time>
      </trkpt>
      <trkpt lat="42.6885" lon="1.39368">
        <ele>2277.9812011719</ele>
        <time>2012-09-15T13:33:00Z</time>
      </trkpt>
      <trkpt lat="42.68848" lon="1.3937">
        <ele>2276.5393066406</ele>
        <time>2012-09-15T13:33:05Z</time>
      </trkpt>
      <trkpt lat="42.68847" lon="1.39371">
        <ele>2274.1359863281</ele>
        <time>2012-09-15T13:33:09Z</time>
      </trkpt>
      <trkpt lat="42.68844" lon="1.39374">
        <ele>2271.7326660156</ele>
        <time>2012-09-15T13:33:14Z</time>
      </trkpt>
      <trkpt lat="42.68841" lon="1.39375">
        <ele>2270.771484375</ele>
        <time>2012-09-15T13:33:18Z</time>
      </trkpt>
      <trkpt lat="42.6884" lon="1.39379">
        <ele>2270.2907714844</ele>
        <time>2012-09-15T13:33:23Z</time>
      </trkpt>
      <trkpt lat="42.68842" lon="1.39383">
        <ele>2268.3681640625</ele>
        <time>2012-09-15T13:33:28Z</time>
      </trkpt>
      <trkpt lat="42.68843" lon="1.39386">
        <ele>2267.8872070312</ele>
        <time>2012-09-15T13:33:32Z</time>
      </trkpt>
      <trkpt lat="42.68844" lon="1.3939">
        <ele>2265.9645996094</ele>
        <time>2012-09-15T13:33:36Z</time>
      </trkpt>
      <trkpt lat="42.68846" lon="1.39396">
        <ele>2263.5612792969</ele>
        <time>2012-09-15T13:33:41Z</time>
      </trkpt>
      <trkpt lat="42.68844" lon="1.39401">
        <ele>2260.6774902344</ele>
        <time>2012-09-15T13:33:46Z</time>
      </trkpt>
      <trkpt lat="42.68846" lon="1.39405">
        <ele>2259.2355957031</ele>
        <time>2012-09-15T13:33:51Z</time>
      </trkpt>
      <trkpt lat="42.68845" lon="1.39409">
        <ele>2260.1967773438</ele>
        <time>2012-09-15T13:33:56Z</time>
      </trkpt>
      <trkpt lat="42.68848" lon="1.39413">
        <ele>2260.1967773438</ele>
        <time>2012-09-15T13:34:00Z</time>
      </trkpt>
      <trkpt lat="42.68849" lon="1.39417">
        <ele>2258.7548828125</ele>
        <time>2012-09-15T13:34:04Z</time>
      </trkpt>
      <trkpt lat="42.6885" lon="1.3942">
        <ele>2258.2741699219</ele>
        <time>2012-09-15T13:34:08Z</time>
      </trkpt>
      <trkpt lat="42.68854" lon="1.39422">
        <ele>2256.8322753906</ele>
        <time>2012-09-15T13:34:13Z</time>
      </trkpt>
      <trkpt lat="42.68855" lon="1.39427">
        <ele>2257.3129882812</ele>
        <time>2012-09-15T13:34:18Z</time>
      </trkpt>
      <trkpt lat="42.68854" lon="1.39431">
        <ele>2257.3129882812</ele>
        <time>2012-09-15T13:34:22Z</time>
      </trkpt>
      <trkpt lat="42.68849" lon="1.39431">
        <ele>2257.3129882812</ele>
        <time>2012-09-15T13:34:28Z</time>
      </trkpt>
      <trkpt lat="42.68848" lon="1.39434">
        <ele>2256.8322753906</ele>
        <time>2012-09-15T13:34:33Z</time>
      </trkpt>
      <trkpt lat="42.68849" lon="1.39439">
        <ele>2255.8708496094</ele>
        <time>2012-09-15T13:34:38Z</time>
      </trkpt>
      <trkpt lat="42.6885" lon="1.39441">
        <ele>2253.9484863281</ele>
        <time>2012-09-15T13:34:49Z</time>
      </trkpt>
      <trkpt lat="42.68853" lon="1.39446">
        <ele>2253.4677734375</ele>
        <time>2012-09-15T13:34:58Z</time>
      </trkpt>
      <trkpt lat="42.68856" lon="1.39443">
        <ele>2255.3903808594</ele>
        <time>2012-09-15T13:35:03Z</time>
      </trkpt>
      <trkpt lat="42.68859" lon="1.3944">
        <ele>2258.2741699219</ele>
        <time>2012-09-15T13:35:09Z</time>
      </trkpt>
      <trkpt lat="42.68864" lon="1.39441">
        <ele>2260.6774902344</ele>
        <time>2012-09-15T13:35:15Z</time>
      </trkpt>
      <trkpt lat="42.68869" lon="1.39442">
        <ele>2263.0808105469</ele>
        <time>2012-09-15T13:35:23Z</time>
      </trkpt>
      <trkpt lat="42.68875" lon="1.39444">
        <ele>2265.0034179688</ele>
        <time>2012-09-15T13:35:32Z</time>
      </trkpt>
      <trkpt lat="42.68879" lon="1.39446">
        <ele>2265.9645996094</ele>
        <time>2012-09-15T13:35:38Z</time>
      </trkpt>
      <trkpt lat="42.68884" lon="1.39449">
        <ele>2265.9645996094</ele>
        <time>2012-09-15T13:35:45Z</time>
      </trkpt>
      <trkpt lat="42.68886" lon="1.3945">
        <ele>2266.4453125</ele>
        <time>2012-09-15T13:35:50Z</time>
      </trkpt>
      <trkpt lat="42.68889" lon="1.39452">
        <ele>2266.9260253906</ele>
        <time>2012-09-15T13:35:56Z</time>
      </trkpt>
      <trkpt lat="42.68892" lon="1.39452">
        <ele>2267.8872070312</ele>
        <time>2012-09-15T13:36:02Z</time>
      </trkpt>
      <trkpt lat="42.68895" lon="1.39452">
        <ele>2267.8872070312</ele>
        <time>2012-09-15T13:36:06Z</time>
      </trkpt>
      <trkpt lat="42.68901" lon="1.39453">
        <ele>2267.4064941406</ele>
        <time>2012-09-15T13:36:13Z</time>
      </trkpt>
      <trkpt lat="42.68907" lon="1.39458">
        <ele>2268.3681640625</ele>
        <time>2012-09-15T13:36:20Z</time>
      </trkpt>
      <trkpt lat="42.68911" lon="1.39461">
        <ele>2268.3681640625</ele>
        <time>2012-09-15T13:36:27Z</time>
      </trkpt>
      <trkpt lat="42.68914" lon="1.39461">
        <ele>2269.8100585938</ele>
        <time>2012-09-15T13:36:34Z</time>
      </trkpt>
      <trkpt lat="42.6892" lon="1.39461">
        <ele>2272.6940917969</ele>
        <time>2012-09-15T13:36:50Z</time>
      </trkpt>
      <trkpt lat="42.68916" lon="1.39449">
        <ele>2284.7106933594</ele>
        <time>2012-09-15T13:36:57Z</time>
      </trkpt>
      <trkpt lat="42.68916" lon="1.39442">
        <ele>2293.8430175781</ele>
        <time>2012-09-15T13:37:17Z</time>
      </trkpt>
      <trkpt lat="42.68917" lon="1.39441">
        <ele>2296.7268066406</ele>
        <time>2012-09-15T13:37:27Z</time>
      </trkpt>
      <trkpt lat="42.68916" lon="1.3944">
        <ele>2296.2463378906</ele>
        <time>2012-09-15T13:37:35Z</time>
      </trkpt>
      <trkpt lat="42.68918" lon="1.39441">
        <ele>2296.2463378906</ele>
        <time>2012-09-15T13:37:43Z</time>
      </trkpt>
      <trkpt lat="42.68922" lon="1.39452">
        <ele>2281.345703125</ele>
        <time>2012-09-15T13:38:26Z</time>
      </trkpt>
      <trkpt lat="42.68923" lon="1.39457">
        <ele>2284.2299804688</ele>
        <time>2012-09-15T13:39:18Z</time>
      </trkpt>
      <trkpt lat="42.68927" lon="1.39464">
        <ele>2284.7106933594</ele>
        <time>2012-09-15T13:39:22Z</time>
      </trkpt>
      <trkpt lat="42.6893" lon="1.39465">
        <ele>2283.2683105469</ele>
        <time>2012-09-15T13:39:54Z</time>
      </trkpt>
      <trkpt lat="42.68925" lon="1.39459">
        <ele>2276.05859375</ele>
        <time>2012-09-15T13:40:00Z</time>
      </trkpt>
      <trkpt lat="42.68916" lon="1.39447">
        <ele>2273.1748046875</ele>
        <time>2012-09-15T13:40:13Z</time>
      </trkpt>
      <trkpt lat="42.68916" lon="1.39446">
        <ele>2273.1748046875</ele>
        <time>2012-09-15T13:40:20Z</time>
      </trkpt>
      <trkpt lat="42.68923" lon="1.39457">
        <ele>2274.6166992188</ele>
        <time>2012-09-15T13:40:25Z</time>
      </trkpt>
      <trkpt lat="42.6893" lon="1.39465">
        <ele>2273.1748046875</ele>
        <time>2012-09-15T13:40:31Z</time>
      </trkpt>
      <trkpt lat="42.68885" lon="1.39365">
        <ele>2369.306640625</ele>
        <time>2012-09-15T13:44:05Z</time>
      </trkpt>
      <trkpt lat="42.689" lon="1.39395">
        <ele>2344.7927246094</ele>
        <time>2012-09-15T13:44:07Z</time>
      </trkpt>
      <trkpt lat="42.68908" lon="1.39413">
        <ele>2329.4116210938</ele>
        <time>2012-09-15T13:44:09Z</time>
      </trkpt>
      <trkpt lat="42.68921" lon="1.39441">
        <ele>2300.572265625</ele>
        <time>2012-09-15T13:44:15Z</time>
      </trkpt>
      <trkpt lat="42.68928" lon="1.39455">
        <ele>2289.9978027344</ele>
        <time>2012-09-15T13:44:25Z</time>
      </trkpt>
      <trkpt lat="42.68932" lon="1.39458">
        <ele>2283.7490234375</ele>
        <time>2012-09-15T13:44:31Z</time>
      </trkpt>
      <trkpt lat="42.68936" lon="1.39462">
        <ele>2284.2299804688</ele>
        <time>2012-09-15T13:44:38Z</time>
      </trkpt>
      <trkpt lat="42.6894" lon="1.39461">
        <ele>2289.0363769531</ele>
        <time>2012-09-15T13:44:44Z</time>
      </trkpt>
      <trkpt lat="42.68941" lon="1.39463">
        <ele>2288.0751953125</ele>
        <time>2012-09-15T13:44:49Z</time>
      </trkpt>
      <trkpt lat="42.68946" lon="1.39463">
        <ele>2287.1137695312</ele>
        <time>2012-09-15T13:44:54Z</time>
      </trkpt>
      <trkpt lat="42.68952" lon="1.39463">
        <ele>2289.5170898438</ele>
        <time>2012-09-15T13:44:58Z</time>
      </trkpt>
      <trkpt lat="42.68959" lon="1.39467">
        <ele>2288.5559082031</ele>
        <time>2012-09-15T13:45:05Z</time>
      </trkpt>
      <trkpt lat="42.68958" lon="1.39469">
        <ele>2283.2683105469</ele>
        <time>2012-09-15T13:45:12Z</time>
      </trkpt>
      <trkpt lat="42.68961" lon="1.3947">
        <ele>2282.3071289062</ele>
        <time>2012-09-15T13:45:20Z</time>
      </trkpt>
      <trkpt lat="42.68967" lon="1.39474">
        <ele>2279.9038085938</ele>
        <time>2012-09-15T13:45:27Z</time>
      </trkpt>
      <trkpt lat="42.68972" lon="1.39479">
        <ele>2277.5004882812</ele>
        <time>2012-09-15T13:45:35Z</time>
      </trkpt>
      <trkpt lat="42.68978" lon="1.39483">
        <ele>2277.0200195312</ele>
        <time>2012-09-15T13:45:42Z</time>
      </trkpt>
      <trkpt lat="42.68984" lon="1.39483">
        <ele>2276.05859375</ele>
        <time>2012-09-15T13:45:48Z</time>
      </trkpt>
      <trkpt lat="42.68992" lon="1.39487">
        <ele>2277.0200195312</ele>
        <time>2012-09-15T13:45:56Z</time>
      </trkpt>
      <trkpt lat="42.68997" lon="1.39493">
        <ele>2275.0971679688</ele>
        <time>2012-09-15T13:46:03Z</time>
      </trkpt>
      <trkpt lat="42.69" lon="1.395">
        <ele>2272.6940917969</ele>
        <time>2012-09-15T13:46:10Z</time>
      </trkpt>
      <trkpt lat="42.69001" lon="1.39503">
        <ele>2272.2133789062</ele>
        <time>2012-09-15T13:46:15Z</time>
      </trkpt>
      <trkpt lat="42.69003" lon="1.39507">
        <ele>2272.6940917969</ele>
        <time>2012-09-15T13:46:21Z</time>
      </trkpt>
      <trkpt lat="42.69005" lon="1.39509">
        <ele>2273.1748046875</ele>
        <time>2012-09-15T13:46:26Z</time>
      </trkpt>
      <trkpt lat="42.69006" lon="1.39512">
        <ele>2274.1359863281</ele>
        <time>2012-09-15T13:46:32Z</time>
      </trkpt>
      <trkpt lat="42.69008" lon="1.39517">
        <ele>2275.0971679688</ele>
        <time>2012-09-15T13:46:38Z</time>
      </trkpt>
      <trkpt lat="42.69012" lon="1.39519">
        <ele>2274.6166992188</ele>
        <time>2012-09-15T13:46:44Z</time>
      </trkpt>
      <trkpt lat="42.69016" lon="1.39519">
        <ele>2272.2133789062</ele>
        <time>2012-09-15T13:46:49Z</time>
      </trkpt>
      <trkpt lat="42.69018" lon="1.39516">
        <ele>2270.2907714844</ele>
        <time>2012-09-15T13:46:55Z</time>
      </trkpt>
      <trkpt lat="42.69018" lon="1.3951">
        <ele>2270.2907714844</ele>
        <time>2012-09-15T13:47:01Z</time>
      </trkpt>
      <trkpt lat="42.69021" lon="1.39506">
        <ele>2268.3681640625</ele>
        <time>2012-09-15T13:47:06Z</time>
      </trkpt>
      <trkpt lat="42.69024" lon="1.39502">
        <ele>2265.9645996094</ele>
        <time>2012-09-15T13:47:11Z</time>
      </trkpt>
      <trkpt lat="42.69029" lon="1.39501">
        <ele>2263.0808105469</ele>
        <time>2012-09-15T13:47:17Z</time>
      </trkpt>
      <trkpt lat="42.69032" lon="1.39504">
        <ele>2262.1193847656</ele>
        <time>2012-09-15T13:47:21Z</time>
      </trkpt>
      <trkpt lat="42.69033" lon="1.39506">
        <ele>2261.6389160156</ele>
        <time>2012-09-15T13:47:25Z</time>
      </trkpt>
      <trkpt lat="42.69035" lon="1.39509">
        <ele>2260.6774902344</ele>
        <time>2012-09-15T13:47:29Z</time>
      </trkpt>
      <trkpt lat="42.69038" lon="1.3951">
        <ele>2260.1967773438</ele>
        <time>2012-09-15T13:47:33Z</time>
      </trkpt>
      <trkpt lat="42.69043" lon="1.39511">
        <ele>2258.7548828125</ele>
        <time>2012-09-15T13:47:39Z</time>
      </trkpt>
      <trkpt lat="42.69048" lon="1.39508">
        <ele>2257.7937011719</ele>
        <time>2012-09-15T13:47:46Z</time>
      </trkpt>
      <trkpt lat="42.69049" lon="1.39504">
        <ele>2257.7937011719</ele>
        <time>2012-09-15T13:47:49Z</time>
      </trkpt>
      <trkpt lat="42.69049" lon="1.39497">
        <ele>2257.7937011719</ele>
        <time>2012-09-15T13:47:55Z</time>
      </trkpt>
      <trkpt lat="42.69052" lon="1.39491">
        <ele>2257.7937011719</ele>
        <time>2012-09-15T13:48:01Z</time>
      </trkpt>
      <trkpt lat="42.69053" lon="1.39488">
        <ele>2256.8322753906</ele>
        <time>2012-09-15T13:48:05Z</time>
      </trkpt>
      <trkpt lat="42.69057" lon="1.39487">
        <ele>2254.9096679688</ele>
        <time>2012-09-15T13:48:10Z</time>
      </trkpt>
      <trkpt lat="42.69061" lon="1.39493">
        <ele>2254.9096679688</ele>
        <time>2012-09-15T13:48:15Z</time>
      </trkpt>
      <trkpt lat="42.69066" lon="1.39498">
        <ele>2253.4677734375</ele>
        <time>2012-09-15T13:48:22Z</time>
      </trkpt>
      <trkpt lat="42.69072" lon="1.39505">
        <ele>2252.0256347656</ele>
        <time>2012-09-15T13:48:29Z</time>
      </trkpt>
      <trkpt lat="42.69074" lon="1.39507">
        <ele>2250.5834960938</ele>
        <time>2012-09-15T13:48:35Z</time>
      </trkpt>
      <trkpt lat="42.69075" lon="1.39511">
        <ele>2249.6223144531</ele>
        <time>2012-09-15T13:48:40Z</time>
      </trkpt>
      <trkpt lat="42.69076" lon="1.39513">
        <ele>2248.1801757812</ele>
        <time>2012-09-15T13:48:47Z</time>
      </trkpt>
      <trkpt lat="42.6908" lon="1.39516">
        <ele>2247.6997070312</ele>
        <time>2012-09-15T13:48:53Z</time>
      </trkpt>
      <trkpt lat="42.69085" lon="1.39517">
        <ele>2245.2963867188</ele>
        <time>2012-09-15T13:48:59Z</time>
      </trkpt>
      <trkpt lat="42.69089" lon="1.39515">
        <ele>2244.3349609375</ele>
        <time>2012-09-15T13:49:04Z</time>
      </trkpt>
      <trkpt lat="42.69091" lon="1.3952">
        <ele>2243.8544921875</ele>
        <time>2012-09-15T13:49:08Z</time>
      </trkpt>
      <trkpt lat="42.69097" lon="1.39523">
        <ele>2242.4125976562</ele>
        <time>2012-09-15T13:49:15Z</time>
      </trkpt>
      <trkpt lat="42.69101" lon="1.39519">
        <ele>2241.9318847656</ele>
        <time>2012-09-15T13:49:21Z</time>
      </trkpt>
      <trkpt lat="42.69104" lon="1.3952">
        <ele>2243.3737792969</ele>
        <time>2012-09-15T13:49:26Z</time>
      </trkpt>
      <trkpt lat="42.69108" lon="1.39527">
        <ele>2242.8930664062</ele>
        <time>2012-09-15T13:49:32Z</time>
      </trkpt>
      <trkpt lat="42.6911" lon="1.39534">
        <ele>2241.9318847656</ele>
        <time>2012-09-15T13:49:37Z</time>
      </trkpt>
      <trkpt lat="42.69113" lon="1.39539">
        <ele>2241.451171875</ele>
        <time>2012-09-15T13:49:42Z</time>
      </trkpt>
      <trkpt lat="42.69122" lon="1.39545">
        <ele>2240.9704589844</ele>
        <time>2012-09-15T13:49:50Z</time>
      </trkpt>
      <trkpt lat="42.69128" lon="1.39553">
        <ele>2240.4897460938</ele>
        <time>2012-09-15T13:49:57Z</time>
      </trkpt>
      <trkpt lat="42.69131" lon="1.39559">
        <ele>2239.0478515625</ele>
        <time>2012-09-15T13:50:02Z</time>
      </trkpt>
      <trkpt lat="42.69131" lon="1.39559">
        <ele>2238.5673828125</ele>
        <time>2012-09-15T13:50:03Z</time>
      </trkpt>
      <trkpt lat="42.69132" lon="1.39562">
        <ele>2238.0866699219</ele>
        <time>2012-09-15T13:50:06Z</time>
      </trkpt>
      <trkpt lat="42.69131" lon="1.39573">
        <ele>2234.2412109375</ele>
        <time>2012-09-15T13:50:13Z</time>
      </trkpt>
      <trkpt lat="42.69132" lon="1.39578">
        <ele>2233.7604980469</ele>
        <time>2012-09-15T13:50:17Z</time>
      </trkpt>
      <trkpt lat="42.69135" lon="1.39588">
        <ele>2233.7604980469</ele>
        <time>2012-09-15T13:50:24Z</time>
      </trkpt>
      <trkpt lat="42.69136" lon="1.39597">
        <ele>2233.2797851562</ele>
        <time>2012-09-15T13:50:31Z</time>
      </trkpt>
      <trkpt lat="42.69136" lon="1.39599">
        <ele>2233.7604980469</ele>
        <time>2012-09-15T13:50:32Z</time>
      </trkpt>
      <trkpt lat="42.6913" lon="1.39605">
        <ele>2233.7604980469</ele>
        <time>2012-09-15T13:50:40Z</time>
      </trkpt>
      <trkpt lat="42.6913" lon="1.39613">
        <ele>2233.7604980469</ele>
        <time>2012-09-15T13:50:47Z</time>
      </trkpt>
      <trkpt lat="42.69129" lon="1.39622">
        <ele>2234.2412109375</ele>
        <time>2012-09-15T13:50:56Z</time>
      </trkpt>
      <trkpt lat="42.69125" lon="1.3963">
        <ele>2234.7219238281</ele>
        <time>2012-09-15T13:51:05Z</time>
      </trkpt>
      <trkpt lat="42.69123" lon="1.39636">
        <ele>2237.1252441406</ele>
        <time>2012-09-15T13:51:12Z</time>
      </trkpt>
      <trkpt lat="42.69122" lon="1.39643">
        <ele>2240.0092773438</ele>
        <time>2012-09-15T13:51:19Z</time>
      </trkpt>
      <trkpt lat="42.69122" lon="1.39653">
        <ele>2240.0092773438</ele>
        <time>2012-09-15T13:51:28Z</time>
      </trkpt>
      <trkpt lat="42.6912" lon="1.39658">
        <ele>2239.0478515625</ele>
        <time>2012-09-15T13:51:34Z</time>
      </trkpt>
      <trkpt lat="42.69119" lon="1.3966">
        <ele>2238.5673828125</ele>
        <time>2012-09-15T13:51:40Z</time>
      </trkpt>
      <trkpt lat="42.6912" lon="1.39659">
        <ele>2238.5673828125</ele>
        <time>2012-09-15T13:51:51Z</time>
      </trkpt>
      <trkpt lat="42.69122" lon="1.39662">
        <ele>2239.0478515625</ele>
        <time>2012-09-15T13:51:57Z</time>
      </trkpt>
      <trkpt lat="42.69122" lon="1.39661">
        <ele>2238.0866699219</ele>
        <time>2012-09-15T13:52:02Z</time>
      </trkpt>
      <trkpt lat="42.69119" lon="1.39661">
        <ele>2240.4897460938</ele>
        <time>2012-09-15T13:52:13Z</time>
      </trkpt>
      <trkpt lat="42.69119" lon="1.39661">
        <ele>2237.6059570312</ele>
        <time>2012-09-15T13:52:18Z</time>
      </trkpt>
      <trkpt lat="42.69119" lon="1.39661">
        <ele>2235.6831054688</ele>
        <time>2012-09-15T13:52:24Z</time>
      </trkpt>
      <trkpt lat="42.69122" lon="1.39661">
        <ele>2230.3959960938</ele>
        <time>2012-09-15T13:52:33Z</time>
      </trkpt>
      <trkpt lat="42.69122" lon="1.3966">
        <ele>2228.9538574219</ele>
        <time>2012-09-15T13:52:41Z</time>
      </trkpt>
      <trkpt lat="42.69123" lon="1.39659">
        <ele>2229.4345703125</ele>
        <time>2012-09-15T13:52:48Z</time>
      </trkpt>
      <trkpt lat="42.69122" lon="1.3966">
        <ele>2233.2797851562</ele>
        <time>2012-09-15T13:53:15Z</time>
      </trkpt>
      <trkpt lat="42.69122" lon="1.3966">
        <ele>2233.2797851562</ele>
        <time>2012-09-15T13:53:23Z</time>
      </trkpt>
      <trkpt lat="42.69122" lon="1.3966">
        <ele>2234.2412109375</ele>
        <time>2012-09-15T13:53:39Z</time>
      </trkpt>
      <trkpt lat="42.69124" lon="1.3966">
        <ele>2244.3349609375</ele>
        <time>2012-09-15T13:53:52Z</time>
      </trkpt>
      <trkpt lat="42.69118" lon="1.39659">
        <ele>2239.0478515625</ele>
        <time>2012-09-15T13:54:03Z</time>
      </trkpt>
      <trkpt lat="42.69136" lon="1.39716">
        <ele>2244.3349609375</ele>
        <time>2012-09-15T14:17:50Z</time>
      </trkpt>
      <trkpt lat="42.69136" lon="1.39716">
        <ele>2243.8544921875</ele>
        <time>2012-09-15T14:17:51Z</time>
      </trkpt>
      <trkpt lat="42.69136" lon="1.39721">
        <ele>2243.8544921875</ele>
        <time>2012-09-15T14:17:55Z</time>
      </trkpt>
      <trkpt lat="42.69136" lon="1.39729">
        <ele>2244.8156738281</ele>
        <time>2012-09-15T14:18:01Z</time>
      </trkpt>
      <trkpt lat="42.69136" lon="1.39738">
        <ele>2245.7770996094</ele>
        <time>2012-09-15T14:18:09Z</time>
      </trkpt>
      <trkpt lat="42.69135" lon="1.39744">
        <ele>2246.2578125</ele>
        <time>2012-09-15T14:18:15Z</time>
      </trkpt>
      <trkpt lat="42.69135" lon="1.39747">
        <ele>2246.2578125</ele>
        <time>2012-09-15T14:18:20Z</time>
      </trkpt>
      <trkpt lat="42.69134" lon="1.39749">
        <ele>2245.2963867188</ele>
        <time>2012-09-15T14:18:27Z</time>
      </trkpt>
      <trkpt lat="42.69134" lon="1.39754">
        <ele>2245.2963867188</ele>
        <time>2012-09-15T14:18:31Z</time>
      </trkpt>
      <trkpt lat="42.69131" lon="1.39758">
        <ele>2244.3349609375</ele>
        <time>2012-09-15T14:18:36Z</time>
      </trkpt>
      <trkpt lat="42.69129" lon="1.39765">
        <ele>2244.3349609375</ele>
        <time>2012-09-15T14:18:40Z</time>
      </trkpt>
      <trkpt lat="42.69129" lon="1.39776">
        <ele>2241.9318847656</ele>
        <time>2012-09-15T14:18:46Z</time>
      </trkpt>
      <trkpt lat="42.69127" lon="1.39783">
        <ele>2240.4897460938</ele>
        <time>2012-09-15T14:18:50Z</time>
      </trkpt>
      <trkpt lat="42.69127" lon="1.3979">
        <ele>2238.0866699219</ele>
        <time>2012-09-15T14:18:57Z</time>
      </trkpt>
      <trkpt lat="42.69127" lon="1.39794">
        <ele>2237.6059570312</ele>
        <time>2012-09-15T14:18:59Z</time>
      </trkpt>
      <trkpt lat="42.69129" lon="1.39798">
        <ele>2235.6831054688</ele>
        <time>2012-09-15T14:19:02Z</time>
      </trkpt>
      <trkpt lat="42.6913" lon="1.39808">
        <ele>2234.2412109375</ele>
        <time>2012-09-15T14:19:08Z</time>
      </trkpt>
      <trkpt lat="42.6913" lon="1.39809">
        <ele>2233.7604980469</ele>
        <time>2012-09-15T14:19:09Z</time>
      </trkpt>
      <trkpt lat="42.69132" lon="1.39815">
        <ele>2231.3571777344</ele>
        <time>2012-09-15T14:19:17Z</time>
      </trkpt>
      <trkpt lat="42.69136" lon="1.3982">
        <ele>2229.9152832031</ele>
        <time>2012-09-15T14:19:24Z</time>
      </trkpt>
      <trkpt lat="42.69139" lon="1.39827">
        <ele>2228.4733886719</ele>
        <time>2012-09-15T14:19:30Z</time>
      </trkpt>
      <trkpt lat="42.69141" lon="1.39832">
        <ele>2227.0314941406</ele>
        <time>2012-09-15T14:19:35Z</time>
      </trkpt>
      <trkpt lat="42.69143" lon="1.39839">
        <ele>2225.5893554688</ele>
        <time>2012-09-15T14:19:40Z</time>
      </trkpt>
      <trkpt lat="42.69144" lon="1.39845">
        <ele>2223.6667480469</ele>
        <time>2012-09-15T14:19:45Z</time>
      </trkpt>
      <trkpt lat="42.69148" lon="1.39853">
        <ele>2221.2634277344</ele>
        <time>2012-09-15T14:19:51Z</time>
      </trkpt>
      <trkpt lat="42.6915" lon="1.39858">
        <ele>2219.3408203125</ele>
        <time>2012-09-15T14:19:55Z</time>
      </trkpt>
      <trkpt lat="42.69151" lon="1.39866">
        <ele>2218.3793945312</ele>
        <time>2012-09-15T14:20:00Z</time>
      </trkpt>
      <trkpt lat="42.69151" lon="1.39868">
        <ele>2218.3793945312</ele>
        <time>2012-09-15T14:20:01Z</time>
      </trkpt>
      <trkpt lat="42.6915" lon="1.39873">
        <ele>2217.41796875</ele>
        <time>2012-09-15T14:20:04Z</time>
      </trkpt>
      <trkpt lat="42.69149" lon="1.39882">
        <ele>2216.9375</ele>
        <time>2012-09-15T14:20:10Z</time>
      </trkpt>
      <trkpt lat="42.69149" lon="1.39883">
        <ele>2216.9375</ele>
        <time>2012-09-15T14:20:11Z</time>
      </trkpt>
      <trkpt lat="42.6915" lon="1.39888">
        <ele>2215.4956054688</ele>
        <time>2012-09-15T14:20:16Z</time>
      </trkpt>
      <trkpt lat="42.69149" lon="1.39896">
        <ele>2213.5727539062</ele>
        <time>2012-09-15T14:20:22Z</time>
      </trkpt>
      <trkpt lat="42.69151" lon="1.39908">
        <ele>2211.650390625</ele>
        <time>2012-09-15T14:20:26Z</time>
      </trkpt>
      <trkpt lat="42.6915" lon="1.39921">
        <ele>2209.2470703125</ele>
        <time>2012-09-15T14:20:31Z</time>
      </trkpt>
      <trkpt lat="42.69149" lon="1.39923">
        <ele>2208.7663574219</ele>
        <time>2012-09-15T14:20:32Z</time>
      </trkpt>
      <trkpt lat="42.69151" lon="1.39932">
        <ele>2207.3244628906</ele>
        <time>2012-09-15T14:20:37Z</time>
      </trkpt>
      <trkpt lat="42.69149" lon="1.39942">
        <ele>2205.4018554688</ele>
        <time>2012-09-15T14:20:40Z</time>
      </trkpt>
      <trkpt lat="42.69147" lon="1.3995">
        <ele>2203.9597167969</ele>
        <time>2012-09-15T14:20:42Z</time>
      </trkpt>
      <trkpt lat="42.69145" lon="1.39965">
        <ele>2201.5563964844</ele>
        <time>2012-09-15T14:20:47Z</time>
      </trkpt>
      <trkpt lat="42.69142" lon="1.39976">
        <ele>2200.5949707031</ele>
        <time>2012-09-15T14:20:53Z</time>
      </trkpt>
      <trkpt lat="42.69141" lon="1.39977">
        <ele>2200.5949707031</ele>
        <time>2012-09-15T14:20:54Z</time>
      </trkpt>
      <trkpt lat="42.69141" lon="1.3999">
        <ele>2198.6723632812</ele>
        <time>2012-09-15T14:21:01Z</time>
      </trkpt>
      <trkpt lat="42.69143" lon="1.4">
        <ele>2197.23046875</ele>
        <time>2012-09-15T14:21:06Z</time>
      </trkpt>
      <trkpt lat="42.69143" lon="1.40001">
        <ele>2196.7497558594</ele>
        <time>2012-09-15T14:21:08Z</time>
      </trkpt>
      <trkpt lat="42.69149" lon="1.39999">
        <ele>2194.8271484375</ele>
        <time>2012-09-15T14:21:15Z</time>
      </trkpt>
      <trkpt lat="42.69152" lon="1.4">
        <ele>2193.8659667969</ele>
        <time>2012-09-15T14:21:23Z</time>
      </trkpt>
      <trkpt lat="42.69153" lon="1.40006">
        <ele>2191.4626464844</ele>
        <time>2012-09-15T14:21:28Z</time>
      </trkpt>
      <trkpt lat="42.69152" lon="1.40011">
        <ele>2189.5400390625</ele>
        <time>2012-09-15T14:21:31Z</time>
      </trkpt>
      <trkpt lat="42.6915" lon="1.4002">
        <ele>2185.6945800781</ele>
        <time>2012-09-15T14:21:37Z</time>
      </trkpt>
      <trkpt lat="42.6915" lon="1.40024">
        <ele>2184.7333984375</ele>
        <time>2012-09-15T14:21:39Z</time>
      </trkpt>
      <trkpt lat="42.69152" lon="1.40031">
        <ele>2183.2912597656</ele>
        <time>2012-09-15T14:21:44Z</time>
      </trkpt>
      <trkpt lat="42.69156" lon="1.40031">
        <ele>2181.3686523438</ele>
        <time>2012-09-15T14:21:49Z</time>
      </trkpt>
      <trkpt lat="42.69161" lon="1.4003">
        <ele>2179.9267578125</ele>
        <time>2012-09-15T14:21:54Z</time>
      </trkpt>
      <trkpt lat="42.69163" lon="1.40033">
        <ele>2178.4848632812</ele>
        <time>2012-09-15T14:21:58Z</time>
      </trkpt>
      <trkpt lat="42.69165" lon="1.40039">
        <ele>2176.5622558594</ele>
        <time>2012-09-15T14:22:04Z</time>
      </trkpt>
      <trkpt lat="42.69168" lon="1.40041">
        <ele>2174.6396484375</ele>
        <time>2012-09-15T14:22:09Z</time>
      </trkpt>
      <trkpt lat="42.69172" lon="1.40039">
        <ele>2172.7170410156</ele>
        <time>2012-09-15T14:22:15Z</time>
      </trkpt>
      <trkpt lat="42.69172" lon="1.40046">
        <ele>2170.7941894531</ele>
        <time>2012-09-15T14:22:21Z</time>
      </trkpt>
      <trkpt lat="42.69172" lon="1.40055">
        <ele>2169.8327636719</ele>
        <time>2012-09-15T14:22:28Z</time>
      </trkpt>
      <trkpt lat="42.69171" lon="1.40062">
        <ele>2168.8715820312</ele>
        <time>2012-09-15T14:22:34Z</time>
      </trkpt>
      <trkpt lat="42.69172" lon="1.40065">
        <ele>2167.4294433594</ele>
        <time>2012-09-15T14:22:39Z</time>
      </trkpt>
      <trkpt lat="42.69175" lon="1.40072">
        <ele>2165.0263671875</ele>
        <time>2012-09-15T14:22:45Z</time>
      </trkpt>
      <trkpt lat="42.69178" lon="1.40078">
        <ele>2163.5842285156</ele>
        <time>2012-09-15T14:22:50Z</time>
      </trkpt>
      <trkpt lat="42.69181" lon="1.4008">
        <ele>2163.1037597656</ele>
        <time>2012-09-15T14:22:53Z</time>
      </trkpt>
      <trkpt lat="42.69186" lon="1.4009">
        <ele>2161.6618652344</ele>
        <time>2012-09-15T14:22:58Z</time>
      </trkpt>
      <trkpt lat="42.69188" lon="1.40097">
        <ele>2160.7004394531</ele>
        <time>2012-09-15T14:23:02Z</time>
      </trkpt>
      <trkpt lat="42.69191" lon="1.40103">
        <ele>2158.7778320312</ele>
        <time>2012-09-15T14:23:07Z</time>
      </trkpt>
      <trkpt lat="42.69193" lon="1.40109">
        <ele>2156.3745117188</ele>
        <time>2012-09-15T14:23:12Z</time>
      </trkpt>
      <trkpt lat="42.69194" lon="1.40121">
        <ele>2153.4904785156</ele>
        <time>2012-09-15T14:23:19Z</time>
      </trkpt>
      <trkpt lat="42.69196" lon="1.40129">
        <ele>2151.5678710938</ele>
        <time>2012-09-15T14:23:27Z</time>
      </trkpt>
      <trkpt lat="42.69199" lon="1.40136">
        <ele>2149.6452636719</ele>
        <time>2012-09-15T14:23:33Z</time>
      </trkpt>
      <trkpt lat="42.69202" lon="1.4014">
        <ele>2147.2419433594</ele>
        <time>2012-09-15T14:23:38Z</time>
      </trkpt>
      <trkpt lat="42.69207" lon="1.40147">
        <ele>2143.8774414062</ele>
        <time>2012-09-15T14:23:43Z</time>
      </trkpt>
      <trkpt lat="42.6921" lon="1.40155">
        <ele>2141.9548339844</ele>
        <time>2012-09-15T14:23:48Z</time>
      </trkpt>
      <trkpt lat="42.69212" lon="1.40164">
        <ele>2140.0322265625</ele>
        <time>2012-09-15T14:23:54Z</time>
      </trkpt>
      <trkpt lat="42.69214" lon="1.40169">
        <ele>2138.5900878906</ele>
        <time>2012-09-15T14:23:59Z</time>
      </trkpt>
      <trkpt lat="42.6922" lon="1.40174">
        <ele>2134.7448730469</ele>
        <time>2012-09-15T14:24:06Z</time>
      </trkpt>
      <trkpt lat="42.6922" lon="1.40175">
        <ele>2133.7834472656</ele>
        <time>2012-09-15T14:24:07Z</time>
      </trkpt>
      <trkpt lat="42.69223" lon="1.40182">
        <ele>2131.3801269531</ele>
        <time>2012-09-15T14:24:12Z</time>
      </trkpt>
      <trkpt lat="42.69228" lon="1.40193">
        <ele>2128.4963378906</ele>
        <time>2012-09-15T14:24:19Z</time>
      </trkpt>
      <trkpt lat="42.69234" lon="1.40202">
        <ele>2126.5737304688</ele>
        <time>2012-09-15T14:24:26Z</time>
      </trkpt>
      <trkpt lat="42.69237" lon="1.40206">
        <ele>2125.6123046875</ele>
        <time>2012-09-15T14:24:32Z</time>
      </trkpt>
      <trkpt lat="42.69239" lon="1.40208">
        <ele>2125.1315917969</ele>
        <time>2012-09-15T14:24:40Z</time>
      </trkpt>
      <trkpt lat="42.69238" lon="1.40204">
        <ele>2124.6511230469</ele>
        <time>2012-09-15T14:24:43Z</time>
      </trkpt>
      <trkpt lat="42.69237" lon="1.40196">
        <ele>2124.1704101562</ele>
        <time>2012-09-15T14:24:51Z</time>
      </trkpt>
      <trkpt lat="42.69238" lon="1.40193">
        <ele>2122.7282714844</ele>
        <time>2012-09-15T14:25:02Z</time>
      </trkpt>
      <trkpt lat="42.69238" lon="1.40193">
        <ele>2122.2475585938</ele>
        <time>2012-09-15T14:25:11Z</time>
      </trkpt>
      <trkpt lat="42.69241" lon="1.40198">
        <ele>2121.2861328125</ele>
        <time>2012-09-15T14:25:18Z</time>
      </trkpt>
      <trkpt lat="42.69241" lon="1.40199">
        <ele>2120.8056640625</ele>
        <time>2012-09-15T14:25:19Z</time>
      </trkpt>
      <trkpt lat="42.69244" lon="1.40204">
        <ele>2119.8442382812</ele>
        <time>2012-09-15T14:25:23Z</time>
      </trkpt>
      <trkpt lat="42.69249" lon="1.4021">
        <ele>2117.9216308594</ele>
        <time>2012-09-15T14:25:30Z</time>
      </trkpt>
      <trkpt lat="42.69253" lon="1.40215">
        <ele>2115.5185546875</ele>
        <time>2012-09-15T14:25:36Z</time>
      </trkpt>
      <trkpt lat="42.69257" lon="1.40218">
        <ele>2113.115234375</ele>
        <time>2012-09-15T14:25:41Z</time>
      </trkpt>
      <trkpt lat="42.69259" lon="1.4022">
        <ele>2112.1538085938</ele>
        <time>2012-09-15T14:25:43Z</time>
      </trkpt>
      <trkpt lat="42.69266" lon="1.40228">
        <ele>2109.2700195312</ele>
        <time>2012-09-15T14:25:49Z</time>
      </trkpt>
      <trkpt lat="42.69271" lon="1.40233">
        <ele>2109.2700195312</ele>
        <time>2012-09-15T14:25:53Z</time>
      </trkpt>
      <trkpt lat="42.69273" lon="1.40237">
        <ele>2109.7504882812</ele>
        <time>2012-09-15T14:25:57Z</time>
      </trkpt>
      <trkpt lat="42.69277" lon="1.4024">
        <ele>2108.7893066406</ele>
        <time>2012-09-15T14:26:01Z</time>
      </trkpt>
      <trkpt lat="42.69282" lon="1.40252">
        <ele>2107.8278808594</ele>
        <time>2012-09-15T14:26:06Z</time>
      </trkpt>
      <trkpt lat="42.69279" lon="1.40265">
        <ele>2105.9050292969</ele>
        <time>2012-09-15T14:26:11Z</time>
      </trkpt>
      <trkpt lat="42.69277" lon="1.40268">
        <ele>2104.9438476562</ele>
        <time>2012-09-15T14:26:12Z</time>
      </trkpt>
      <trkpt lat="42.69273" lon="1.40276">
        <ele>2103.0212402344</ele>
        <time>2012-09-15T14:26:18Z</time>
      </trkpt>
      <trkpt lat="42.69278" lon="1.40277">
        <ele>2099.6567382812</ele>
        <time>2012-09-15T14:26:24Z</time>
      </trkpt>
      <trkpt lat="42.69284" lon="1.40277">
        <ele>2096.7727050781</ele>
        <time>2012-09-15T14:26:29Z</time>
      </trkpt>
      <trkpt lat="42.69286" lon="1.40281">
        <ele>2094.8500976562</ele>
        <time>2012-09-15T14:26:33Z</time>
      </trkpt>
      <trkpt lat="42.69297" lon="1.40281">
        <ele>2090.0434570312</ele>
        <time>2012-09-15T14:26:40Z</time>
      </trkpt>
      <trkpt lat="42.69304" lon="1.40283">
        <ele>2087.6401367188</ele>
        <time>2012-09-15T14:26:44Z</time>
      </trkpt>
      <trkpt lat="42.69305" lon="1.40284">
        <ele>2087.1594238281</ele>
        <time>2012-09-15T14:26:45Z</time>
      </trkpt>
      <trkpt lat="42.69307" lon="1.40287">
        <ele>2083.794921875</ele>
        <time>2012-09-15T14:26:51Z</time>
      </trkpt>
      <trkpt lat="42.6931" lon="1.4029">
        <ele>2082.3530273438</ele>
        <time>2012-09-15T14:26:55Z</time>
      </trkpt>
      <trkpt lat="42.69314" lon="1.40299">
        <ele>2079.9497070312</ele>
        <time>2012-09-15T14:26:59Z</time>
      </trkpt>
      <trkpt lat="42.69316" lon="1.40307">
        <ele>2078.98828125</ele>
        <time>2012-09-15T14:27:03Z</time>
      </trkpt>
      <trkpt lat="42.69316" lon="1.40317">
        <ele>2078.0270996094</ele>
        <time>2012-09-15T14:27:07Z</time>
      </trkpt>
      <trkpt lat="42.69318" lon="1.40325">
        <ele>2077.0659179688</ele>
        <time>2012-09-15T14:27:12Z</time>
      </trkpt>
      <trkpt lat="42.69319" lon="1.40332">
        <ele>2075.6235351562</ele>
        <time>2012-09-15T14:27:18Z</time>
      </trkpt>
      <trkpt lat="42.69321" lon="1.40339">
        <ele>2072.7397460938</ele>
        <time>2012-09-15T14:27:24Z</time>
      </trkpt>
      <trkpt lat="42.69323" lon="1.40342">
        <ele>2072.7397460938</ele>
        <time>2012-09-15T14:27:25Z</time>
      </trkpt>
      <trkpt lat="42.69325" lon="1.40354">
        <ele>2069.8557128906</ele>
        <time>2012-09-15T14:27:31Z</time>
      </trkpt>
      <trkpt lat="42.69325" lon="1.40358">
        <ele>2069.3752441406</ele>
        <time>2012-09-15T14:27:34Z</time>
      </trkpt>
      <trkpt lat="42.69326" lon="1.40361">
        <ele>2068.4138183594</ele>
        <time>2012-09-15T14:27:36Z</time>
      </trkpt>
      <trkpt lat="42.69325" lon="1.40364">
        <ele>2068.89453125</ele>
        <time>2012-09-15T14:27:38Z</time>
      </trkpt>
      <trkpt lat="42.69327" lon="1.40375">
        <ele>2066.9719238281</ele>
        <time>2012-09-15T14:27:45Z</time>
      </trkpt>
      <trkpt lat="42.69328" lon="1.40384">
        <ele>2065.0493164062</ele>
        <time>2012-09-15T14:27:51Z</time>
      </trkpt>
      <trkpt lat="42.69332" lon="1.4039">
        <ele>2063.6071777344</ele>
        <time>2012-09-15T14:27:58Z</time>
      </trkpt>
      <trkpt lat="42.69337" lon="1.40393">
        <ele>2062.1652832031</ele>
        <time>2012-09-15T14:28:03Z</time>
      </trkpt>
      <trkpt lat="42.6934" lon="1.40396">
        <ele>2061.2041015625</ele>
        <time>2012-09-15T14:28:08Z</time>
      </trkpt>
      <trkpt lat="42.69341" lon="1.404">
        <ele>2060.7233886719</ele>
        <time>2012-09-15T14:28:11Z</time>
      </trkpt>
      <trkpt lat="42.69344" lon="1.40412">
        <ele>2057.8393554688</ele>
        <time>2012-09-15T14:28:22Z</time>
      </trkpt>
      <trkpt lat="42.69347" lon="1.40418">
        <ele>2055.9165039062</ele>
        <time>2012-09-15T14:28:29Z</time>
      </trkpt>
      <trkpt lat="42.69349" lon="1.40423">
        <ele>2054.474609375</ele>
        <time>2012-09-15T14:28:35Z</time>
      </trkpt>
      <trkpt lat="42.69353" lon="1.40427">
        <ele>2053.0327148438</ele>
        <time>2012-09-15T14:28:42Z</time>
      </trkpt>
      <trkpt lat="42.69356" lon="1.40432">
        <ele>2050.6293945312</ele>
        <time>2012-09-15T14:28:48Z</time>
      </trkpt>
      <trkpt lat="42.69359" lon="1.40437">
        <ele>2049.1875</ele>
        <time>2012-09-15T14:28:53Z</time>
      </trkpt>
      <trkpt lat="42.69364" lon="1.40443">
        <ele>2048.7067871094</ele>
        <time>2012-09-15T14:29:00Z</time>
      </trkpt>
      <trkpt lat="42.69369" lon="1.40446">
        <ele>2047.7456054688</ele>
        <time>2012-09-15T14:29:07Z</time>
      </trkpt>
      <trkpt lat="42.6937" lon="1.40447">
        <ele>2047.7456054688</ele>
        <time>2012-09-15T14:29:13Z</time>
      </trkpt>
      <trkpt lat="42.69373" lon="1.40451">
        <ele>2046.7841796875</ele>
        <time>2012-09-15T14:29:28Z</time>
      </trkpt>
      <trkpt lat="42.69377" lon="1.40459">
        <ele>2046.3037109375</ele>
        <time>2012-09-15T14:29:34Z</time>
      </trkpt>
      <trkpt lat="42.69381" lon="1.40465">
        <ele>2047.2648925781</ele>
        <time>2012-09-15T14:29:41Z</time>
      </trkpt>
      <trkpt lat="42.69383" lon="1.40472">
        <ele>2047.2648925781</ele>
        <time>2012-09-15T14:29:45Z</time>
      </trkpt>
      <trkpt lat="42.6939" lon="1.4048">
        <ele>2047.2648925781</ele>
        <time>2012-09-15T14:29:53Z</time>
      </trkpt>
      <trkpt lat="42.69396" lon="1.40484">
        <ele>2047.2648925781</ele>
        <time>2012-09-15T14:29:59Z</time>
      </trkpt>
      <trkpt lat="42.69403" lon="1.40491">
        <ele>2048.2260742188</ele>
        <time>2012-09-15T14:30:07Z</time>
      </trkpt>
      <trkpt lat="42.69404" lon="1.40494">
        <ele>2047.7456054688</ele>
        <time>2012-09-15T14:30:09Z</time>
      </trkpt>
      <trkpt lat="42.6941" lon="1.40499">
        <ele>2048.2260742188</ele>
        <time>2012-09-15T14:30:14Z</time>
      </trkpt>
      <trkpt lat="42.6942" lon="1.40508">
        <ele>2048.2260742188</ele>
        <time>2012-09-15T14:30:24Z</time>
      </trkpt>
      <trkpt lat="42.69429" lon="1.40514">
        <ele>2048.2260742188</ele>
        <time>2012-09-15T14:30:32Z</time>
      </trkpt>
      <trkpt lat="42.69437" lon="1.4052">
        <ele>2045.8229980469</ele>
        <time>2012-09-15T14:30:38Z</time>
      </trkpt>
      <trkpt lat="42.69445" lon="1.40521">
        <ele>2042.9387207031</ele>
        <time>2012-09-15T14:30:44Z</time>
      </trkpt>
      <trkpt lat="42.69452" lon="1.40523">
        <ele>2041.0161132812</ele>
        <time>2012-09-15T14:30:49Z</time>
      </trkpt>
      <trkpt lat="42.69458" lon="1.40526">
        <ele>2039.0935058594</ele>
        <time>2012-09-15T14:30:54Z</time>
      </trkpt>
      <trkpt lat="42.69465" lon="1.4053">
        <ele>2037.1708984375</ele>
        <time>2012-09-15T14:31:00Z</time>
      </trkpt>
      <trkpt lat="42.69466" lon="1.40531">
        <ele>2036.6901855469</ele>
        <time>2012-09-15T14:31:01Z</time>
      </trkpt>
      <trkpt lat="42.69471" lon="1.40534">
        <ele>2034.7678222656</ele>
        <time>2012-09-15T14:31:06Z</time>
      </trkpt>
      <trkpt lat="42.69474" lon="1.40534">
        <ele>2032.3645019531</ele>
        <time>2012-09-15T14:31:11Z</time>
      </trkpt>
      <trkpt lat="42.69479" lon="1.40537">
        <ele>2030.9226074219</ele>
        <time>2012-09-15T14:31:16Z</time>
      </trkpt>
      <trkpt lat="42.69485" lon="1.40537">
        <ele>2027.5576171875</ele>
        <time>2012-09-15T14:31:22Z</time>
      </trkpt>
      <trkpt lat="42.69492" lon="1.40538">
        <ele>2024.673828125</ele>
        <time>2012-09-15T14:31:27Z</time>
      </trkpt>
      <trkpt lat="42.69497" lon="1.40539">
        <ele>2024.1931152344</ele>
        <time>2012-09-15T14:31:31Z</time>
      </trkpt>
      <trkpt lat="42.69503" lon="1.40539">
        <ele>2022.2705078125</ele>
        <time>2012-09-15T14:31:36Z</time>
      </trkpt>
      <trkpt lat="42.6951" lon="1.40544">
        <ele>2018.9060058594</ele>
        <time>2012-09-15T14:31:43Z</time>
      </trkpt>
      <trkpt lat="42.69515" lon="1.40545">
        <ele>2016.5026855469</ele>
        <time>2012-09-15T14:31:48Z</time>
      </trkpt>
      <trkpt lat="42.69519" lon="1.40543">
        <ele>2014.0993652344</ele>
        <time>2012-09-15T14:31:52Z</time>
      </trkpt>
      <trkpt lat="42.69524" lon="1.40544">
        <ele>2012.6574707031</ele>
        <time>2012-09-15T14:31:56Z</time>
      </trkpt>
      <trkpt lat="42.69527" lon="1.40541">
        <ele>2010.7346191406</ele>
        <time>2012-09-15T14:32:01Z</time>
      </trkpt>
      <trkpt lat="42.69531" lon="1.40544">
        <ele>2008.3312988281</ele>
        <time>2012-09-15T14:32:06Z</time>
      </trkpt>
      <trkpt lat="42.69534" lon="1.40546">
        <ele>2007.3701171875</ele>
        <time>2012-09-15T14:32:09Z</time>
      </trkpt>
      <trkpt lat="42.69536" lon="1.40546">
        <ele>2006.4086914062</ele>
        <time>2012-09-15T14:32:11Z</time>
      </trkpt>
      <trkpt lat="42.6954" lon="1.40544">
        <ele>2004.0056152344</ele>
        <time>2012-09-15T14:32:15Z</time>
      </trkpt>
      <trkpt lat="42.69546" lon="1.40547">
        <ele>2001.6022949219</ele>
        <time>2012-09-15T14:32:21Z</time>
      </trkpt>
      <trkpt lat="42.69549" lon="1.40549">
        <ele>2000.1604003906</ele>
        <time>2012-09-15T14:32:25Z</time>
      </trkpt>
      <trkpt lat="42.69553" lon="1.40551">
        <ele>1998.2375488281</ele>
        <time>2012-09-15T14:32:31Z</time>
      </trkpt>
      <trkpt lat="42.69555" lon="1.40554">
        <ele>1996.3151855469</ele>
        <time>2012-09-15T14:32:35Z</time>
      </trkpt>
      <trkpt lat="42.6956" lon="1.40551">
        <ele>1994.3920898438</ele>
        <time>2012-09-15T14:32:41Z</time>
      </trkpt>
      <trkpt lat="42.69563" lon="1.40551">
        <ele>1992.9501953125</ele>
        <time>2012-09-15T14:32:45Z</time>
      </trkpt>
      <trkpt lat="42.69567" lon="1.40545">
        <ele>1991.5083007812</ele>
        <time>2012-09-15T14:32:51Z</time>
      </trkpt>
      <trkpt lat="42.6957" lon="1.40538">
        <ele>1990.06640625</ele>
        <time>2012-09-15T14:32:57Z</time>
      </trkpt>
      <trkpt lat="42.69574" lon="1.40537">
        <ele>1987.6630859375</ele>
        <time>2012-09-15T14:33:03Z</time>
      </trkpt>
      <trkpt lat="42.69577" lon="1.40538">
        <ele>1986.7016601562</ele>
        <time>2012-09-15T14:33:08Z</time>
      </trkpt>
      <trkpt lat="42.69577" lon="1.40538">
        <ele>1986.2211914062</ele>
        <time>2012-09-15T14:33:15Z</time>
      </trkpt>
      <trkpt lat="42.69579" lon="1.40539">
        <ele>1985.7404785156</ele>
        <time>2012-09-15T14:33:22Z</time>
      </trkpt>
      <trkpt lat="42.6958" lon="1.40539">
        <ele>1984.779296875</ele>
        <time>2012-09-15T14:33:28Z</time>
      </trkpt>
      <trkpt lat="42.69584" lon="1.40544">
        <ele>1983.8178710938</ele>
        <time>2012-09-15T14:33:35Z</time>
      </trkpt>
      <trkpt lat="42.69585" lon="1.40548">
        <ele>1983.3371582031</ele>
        <time>2012-09-15T14:33:41Z</time>
      </trkpt>
      <trkpt lat="42.69586" lon="1.40547">
        <ele>1982.8564453125</ele>
        <time>2012-09-15T14:33:46Z</time>
      </trkpt>
      <trkpt lat="42.69588" lon="1.40543">
        <ele>1981.8952636719</ele>
        <time>2012-09-15T14:33:52Z</time>
      </trkpt>
      <trkpt lat="42.69591" lon="1.40547">
        <ele>1980.9340820312</ele>
        <time>2012-09-15T14:33:58Z</time>
      </trkpt>
      <trkpt lat="42.69592" lon="1.4055">
        <ele>1980.4533691406</ele>
        <time>2012-09-15T14:34:03Z</time>
      </trkpt>
      <trkpt lat="42.69594" lon="1.40553">
        <ele>1979.0109863281</ele>
        <time>2012-09-15T14:34:09Z</time>
      </trkpt>
      <trkpt lat="42.69596" lon="1.40552">
        <ele>1977.5690917969</ele>
        <time>2012-09-15T14:34:15Z</time>
      </trkpt>
      <trkpt lat="42.69595" lon="1.40546">
        <ele>1976.6079101562</ele>
        <time>2012-09-15T14:34:19Z</time>
      </trkpt>
      <trkpt lat="42.69598" lon="1.40542">
        <ele>1974.2045898438</ele>
        <time>2012-09-15T14:34:25Z</time>
      </trkpt>
      <trkpt lat="42.69599" lon="1.40541">
        <ele>1973.2434082031</ele>
        <time>2012-09-15T14:34:29Z</time>
      </trkpt>
      <trkpt lat="42.69601" lon="1.40533">
        <ele>1970.359375</ele>
        <time>2012-09-15T14:34:36Z</time>
      </trkpt>
      <trkpt lat="42.69604" lon="1.40534">
        <ele>1968.4367675781</ele>
        <time>2012-09-15T14:34:41Z</time>
      </trkpt>
      <trkpt lat="42.69607" lon="1.40533">
        <ele>1967.4753417969</ele>
        <time>2012-09-15T14:34:46Z</time>
      </trkpt>
      <trkpt lat="42.69609" lon="1.40539">
        <ele>1965.072265625</ele>
        <time>2012-09-15T14:34:53Z</time>
      </trkpt>
      <trkpt lat="42.69612" lon="1.4054">
        <ele>1964.1108398438</ele>
        <time>2012-09-15T14:34:57Z</time>
      </trkpt>
      <trkpt lat="42.69616" lon="1.40542">
        <ele>1961.7075195312</ele>
        <time>2012-09-15T14:35:03Z</time>
      </trkpt>
      <trkpt lat="42.6962" lon="1.40544">
        <ele>1960.74609375</ele>
        <time>2012-09-15T14:35:07Z</time>
      </trkpt>
      <trkpt lat="42.69624" lon="1.40548">
        <ele>1957.8623046875</ele>
        <time>2012-09-15T14:35:13Z</time>
      </trkpt>
      <trkpt lat="42.69628" lon="1.40551">
        <ele>1955.939453125</ele>
        <time>2012-09-15T14:35:18Z</time>
      </trkpt>
      <trkpt lat="42.69631" lon="1.40554">
        <ele>1953.5363769531</ele>
        <time>2012-09-15T14:35:24Z</time>
      </trkpt>
      <trkpt lat="42.69636" lon="1.40559">
        <ele>1952.0942382812</ele>
        <time>2012-09-15T14:35:30Z</time>
      </trkpt>
      <trkpt lat="42.6964" lon="1.40564">
        <ele>1949.6911621094</ele>
        <time>2012-09-15T14:35:37Z</time>
      </trkpt>
      <trkpt lat="42.69643" lon="1.4057">
        <ele>1948.2490234375</ele>
        <time>2012-09-15T14:35:43Z</time>
      </trkpt>
      <trkpt lat="42.69641" lon="1.40577">
        <ele>1947.7683105469</ele>
        <time>2012-09-15T14:35:49Z</time>
      </trkpt>
      <trkpt lat="42.69638" lon="1.40582">
        <ele>1947.7683105469</ele>
        <time>2012-09-15T14:35:55Z</time>
      </trkpt>
      <trkpt lat="42.69637" lon="1.40586">
        <ele>1946.3264160156</ele>
        <time>2012-09-15T14:35:59Z</time>
      </trkpt>
      <trkpt lat="42.69635" lon="1.40593">
        <ele>1944.8842773438</ele>
        <time>2012-09-15T14:36:04Z</time>
      </trkpt>
      <trkpt lat="42.69632" lon="1.40595">
        <ele>1944.4035644531</ele>
        <time>2012-09-15T14:36:07Z</time>
      </trkpt>
      <trkpt lat="42.69629" lon="1.40603">
        <ele>1944.8842773438</ele>
        <time>2012-09-15T14:36:14Z</time>
      </trkpt>
      <trkpt lat="42.69628" lon="1.40611">
        <ele>1947.2875976562</ele>
        <time>2012-09-15T14:36:20Z</time>
      </trkpt>
      <trkpt lat="42.69628" lon="1.4062">
        <ele>1948.7297363281</ele>
        <time>2012-09-15T14:36:27Z</time>
      </trkpt>
      <trkpt lat="42.69629" lon="1.40628">
        <ele>1949.2104492188</ele>
        <time>2012-09-15T14:36:32Z</time>
      </trkpt>
      <trkpt lat="42.69629" lon="1.40633">
        <ele>1949.2104492188</ele>
        <time>2012-09-15T14:36:36Z</time>
      </trkpt>
      <trkpt lat="42.69628" lon="1.40636">
        <ele>1949.6911621094</ele>
        <time>2012-09-15T14:36:38Z</time>
      </trkpt>
      <trkpt lat="42.69629" lon="1.40645">
        <ele>1950.171875</ele>
        <time>2012-09-15T14:36:45Z</time>
      </trkpt>
      <trkpt lat="42.69631" lon="1.4065">
        <ele>1950.65234375</ele>
        <time>2012-09-15T14:36:49Z</time>
      </trkpt>
      <trkpt lat="42.69632" lon="1.40652">
        <ele>1951.1330566406</ele>
        <time>2012-09-15T14:36:51Z</time>
      </trkpt>
      <trkpt lat="42.69633" lon="1.40659">
        <ele>1949.2104492188</ele>
        <time>2012-09-15T14:36:59Z</time>
      </trkpt>
      <trkpt lat="42.69634" lon="1.40659">
        <ele>1948.2490234375</ele>
        <time>2012-09-15T14:37:04Z</time>
      </trkpt>
      <trkpt lat="42.69634" lon="1.40659">
        <ele>1949.6911621094</ele>
        <time>2012-09-15T14:37:12Z</time>
      </trkpt>
      <trkpt lat="42.69634" lon="1.40659">
        <ele>1951.1330566406</ele>
        <time>2012-09-15T14:37:22Z</time>
      </trkpt>
      <trkpt lat="42.69635" lon="1.40659">
        <ele>1949.6911621094</ele>
        <time>2012-09-15T14:37:42Z</time>
      </trkpt>
      <trkpt lat="42.69634" lon="1.40659">
        <ele>1950.171875</ele>
        <time>2012-09-15T14:37:49Z</time>
      </trkpt>
      <trkpt lat="42.69633" lon="1.4066">
        <ele>1951.6137695312</ele>
        <time>2012-09-15T14:37:59Z</time>
      </trkpt>
      <trkpt lat="42.69632" lon="1.40659">
        <ele>1950.65234375</ele>
        <time>2012-09-15T14:38:20Z</time>
      </trkpt>
      <trkpt lat="42.69633" lon="1.4066">
        <ele>1951.6137695312</ele>
        <time>2012-09-15T14:38:31Z</time>
      </trkpt>
      <trkpt lat="42.69634" lon="1.40658">
        <ele>1950.65234375</ele>
        <time>2012-09-15T14:38:50Z</time>
      </trkpt>
      <trkpt lat="42.69636" lon="1.40657">
        <ele>1951.1330566406</ele>
        <time>2012-09-15T14:38:57Z</time>
      </trkpt>
      <trkpt lat="42.69636" lon="1.40657">
        <ele>1950.65234375</ele>
        <time>2012-09-15T14:39:04Z</time>
      </trkpt>
      <trkpt lat="42.69635" lon="1.40654">
        <ele>1950.65234375</ele>
        <time>2012-09-15T14:39:28Z</time>
      </trkpt>
      <trkpt lat="42.69634" lon="1.40653">
        <ele>1948.7297363281</ele>
        <time>2012-09-15T14:39:47Z</time>
      </trkpt>
      <trkpt lat="42.69635" lon="1.40653">
        <ele>1948.7297363281</ele>
        <time>2012-09-15T14:40:00Z</time>
      </trkpt>
      <trkpt lat="42.69636" lon="1.40654">
        <ele>1949.2104492188</ele>
        <time>2012-09-15T14:40:03Z</time>
      </trkpt>
      <trkpt lat="42.69638" lon="1.40656">
        <ele>1951.6137695312</ele>
        <time>2012-09-15T14:40:11Z</time>
      </trkpt>
      <trkpt lat="42.69638" lon="1.40657">
        <ele>1950.65234375</ele>
        <time>2012-09-15T14:40:19Z</time>
      </trkpt>
      <trkpt lat="42.69638" lon="1.40659">
        <ele>1951.1330566406</ele>
        <time>2012-09-15T14:40:44Z</time>
      </trkpt>
      <trkpt lat="42.69637" lon="1.40662">
        <ele>1950.171875</ele>
        <time>2012-09-15T14:41:01Z</time>
      </trkpt>
      <trkpt lat="42.69637" lon="1.40662">
        <ele>1949.6911621094</ele>
        <time>2012-09-15T14:41:08Z</time>
      </trkpt>
      <trkpt lat="42.69637" lon="1.4066">
        <ele>1950.65234375</ele>
        <time>2012-09-15T14:41:16Z</time>
      </trkpt>
      <trkpt lat="42.69638" lon="1.4066">
        <ele>1950.65234375</ele>
        <time>2012-09-15T14:41:21Z</time>
      </trkpt>
      <trkpt lat="42.69639" lon="1.40662">
        <ele>1951.1330566406</ele>
        <time>2012-09-15T14:41:45Z</time>
      </trkpt>
      <trkpt lat="42.69638" lon="1.40663">
        <ele>1949.6911621094</ele>
        <time>2012-09-15T14:41:55Z</time>
      </trkpt>
      <trkpt lat="42.69637" lon="1.40666">
        <ele>1950.65234375</ele>
        <time>2012-09-15T14:42:47Z</time>
      </trkpt>
      <trkpt lat="42.69637" lon="1.40667">
        <ele>1952.0942382812</ele>
        <time>2012-09-15T14:42:58Z</time>
      </trkpt>
      <trkpt lat="42.69642" lon="1.40667">
        <ele>1951.1330566406</ele>
        <time>2012-09-15T14:43:02Z</time>
      </trkpt>
      <trkpt lat="42.69644" lon="1.40667">
        <ele>1950.65234375</ele>
        <time>2012-09-15T14:43:04Z</time>
      </trkpt>
      <trkpt lat="42.69648" lon="1.40669">
        <ele>1950.65234375</ele>
        <time>2012-09-15T14:43:09Z</time>
      </trkpt>
      <trkpt lat="42.69651" lon="1.4067">
        <ele>1950.65234375</ele>
        <time>2012-09-15T14:43:12Z</time>
      </trkpt>
      <trkpt lat="42.69659" lon="1.40679">
        <ele>1950.65234375</ele>
        <time>2012-09-15T14:43:20Z</time>
      </trkpt>
      <trkpt lat="42.69665" lon="1.40683">
        <ele>1950.65234375</ele>
        <time>2012-09-15T14:43:24Z</time>
      </trkpt>
      <trkpt lat="42.69671" lon="1.40688">
        <ele>1950.65234375</ele>
        <time>2012-09-15T14:43:30Z</time>
      </trkpt>
      <trkpt lat="42.69672" lon="1.40689">
        <ele>1950.65234375</ele>
        <time>2012-09-15T14:43:31Z</time>
      </trkpt>
      <trkpt lat="42.69677" lon="1.40695">
        <ele>1950.65234375</ele>
        <time>2012-09-15T14:43:36Z</time>
      </trkpt>
      <trkpt lat="42.69682" lon="1.407">
        <ele>1951.6137695312</ele>
        <time>2012-09-15T14:43:42Z</time>
      </trkpt>
      <trkpt lat="42.69689" lon="1.40713">
        <ele>1953.0556640625</ele>
        <time>2012-09-15T14:43:51Z</time>
      </trkpt>
      <trkpt lat="42.69692" lon="1.40724">
        <ele>1954.0170898438</ele>
        <time>2012-09-15T14:43:58Z</time>
      </trkpt>
      <trkpt lat="42.69694" lon="1.40733">
        <ele>1955.458984375</ele>
        <time>2012-09-15T14:44:03Z</time>
      </trkpt>
      <trkpt lat="42.69693" lon="1.40744">
        <ele>1956.4201660156</ele>
        <time>2012-09-15T14:44:09Z</time>
      </trkpt>
      <trkpt lat="42.69694" lon="1.40745">
        <ele>1956.4201660156</ele>
        <time>2012-09-15T14:44:10Z</time>
      </trkpt>
      <trkpt lat="42.69696" lon="1.40759">
        <ele>1955.458984375</ele>
        <time>2012-09-15T14:44:17Z</time>
      </trkpt>
      <trkpt lat="42.69699" lon="1.40767">
        <ele>1954.9782714844</ele>
        <time>2012-09-15T14:44:23Z</time>
      </trkpt>
      <trkpt lat="42.697" lon="1.4077">
        <ele>1954.4975585938</ele>
        <time>2012-09-15T14:44:25Z</time>
      </trkpt>
      <trkpt lat="42.69706" lon="1.40784">
        <ele>1953.5363769531</ele>
        <time>2012-09-15T14:44:33Z</time>
      </trkpt>
      <trkpt lat="42.69711" lon="1.40792">
        <ele>1953.0556640625</ele>
        <time>2012-09-15T14:44:39Z</time>
      </trkpt>
      <trkpt lat="42.69717" lon="1.40799">
        <ele>1951.6137695312</ele>
        <time>2012-09-15T14:44:46Z</time>
      </trkpt>
      <trkpt lat="42.69719" lon="1.40802">
        <ele>1951.1330566406</ele>
        <time>2012-09-15T14:44:49Z</time>
      </trkpt>
      <trkpt lat="42.69724" lon="1.40802">
        <ele>1948.7297363281</ele>
        <time>2012-09-15T14:44:56Z</time>
      </trkpt>
      <trkpt lat="42.6973" lon="1.408">
        <ele>1946.3264160156</ele>
        <time>2012-09-15T14:45:02Z</time>
      </trkpt>
      <trkpt lat="42.69736" lon="1.40801">
        <ele>1943.4423828125</ele>
        <time>2012-09-15T14:45:08Z</time>
      </trkpt>
      <trkpt lat="42.69737" lon="1.40802">
        <ele>1943.4423828125</ele>
        <time>2012-09-15T14:45:09Z</time>
      </trkpt>
      <trkpt lat="42.69743" lon="1.40805">
        <ele>1940.5583496094</ele>
        <time>2012-09-15T14:45:16Z</time>
      </trkpt>
      <trkpt lat="42.69748" lon="1.40808">
        <ele>1937.6745605469</ele>
        <time>2012-09-15T14:45:23Z</time>
      </trkpt>
      <trkpt lat="42.69754" lon="1.4081">
        <ele>1935.751953125</ele>
        <time>2012-09-15T14:45:29Z</time>
      </trkpt>
      <trkpt lat="42.69759" lon="1.4081">
        <ele>1934.3100585938</ele>
        <time>2012-09-15T14:45:34Z</time>
      </trkpt>
      <trkpt lat="42.69762" lon="1.40811">
        <ele>1932.8679199219</ele>
        <time>2012-09-15T14:45:37Z</time>
      </trkpt>
      <trkpt lat="42.6977" lon="1.40812">
        <ele>1929.5031738281</ele>
        <time>2012-09-15T14:45:44Z</time>
      </trkpt>
      <trkpt lat="42.69778" lon="1.40813">
        <ele>1926.138671875</ele>
        <time>2012-09-15T14:45:50Z</time>
      </trkpt>
      <trkpt lat="42.69785" lon="1.4081">
        <ele>1922.7741699219</ele>
        <time>2012-09-15T14:45:57Z</time>
      </trkpt>
      <trkpt lat="42.69787" lon="1.40809">
        <ele>1921.8127441406</ele>
        <time>2012-09-15T14:45:59Z</time>
      </trkpt>
      <trkpt lat="42.69791" lon="1.40807">
        <ele>1919.8901367188</ele>
        <time>2012-09-15T14:46:03Z</time>
      </trkpt>
      <trkpt lat="42.69798" lon="1.40804">
        <ele>1917.0063476562</ele>
        <time>2012-09-15T14:46:09Z</time>
      </trkpt>
      <trkpt lat="42.69801" lon="1.40803">
        <ele>1916.044921875</ele>
        <time>2012-09-15T14:46:11Z</time>
      </trkpt>
      <trkpt lat="42.69808" lon="1.408">
        <ele>1913.1608886719</ele>
        <time>2012-09-15T14:46:18Z</time>
      </trkpt>
      <trkpt lat="42.6981" lon="1.40799">
        <ele>1912.1994628906</ele>
        <time>2012-09-15T14:46:20Z</time>
      </trkpt>
      <trkpt lat="42.69814" lon="1.40796">
        <ele>1909.7961425781</ele>
        <time>2012-09-15T14:46:27Z</time>
      </trkpt>
      <trkpt lat="42.69817" lon="1.4079">
        <ele>1907.3930664062</ele>
        <time>2012-09-15T14:46:33Z</time>
      </trkpt>
      <trkpt lat="42.69819" lon="1.40785">
        <ele>1904.9897460938</ele>
        <time>2012-09-15T14:46:38Z</time>
      </trkpt>
      <trkpt lat="42.69822" lon="1.40785">
        <ele>1903.0671386719</ele>
        <time>2012-09-15T14:46:43Z</time>
      </trkpt>
      <trkpt lat="42.69824" lon="1.40781">
        <ele>1901.6252441406</ele>
        <time>2012-09-15T14:46:48Z</time>
      </trkpt>
      <trkpt lat="42.69828" lon="1.40782">
        <ele>1899.7023925781</ele>
        <time>2012-09-15T14:46:54Z</time>
      </trkpt>
      <trkpt lat="42.6983" lon="1.4078">
        <ele>1898.7409667969</ele>
        <time>2012-09-15T14:46:58Z</time>
      </trkpt>
      <trkpt lat="42.69834" lon="1.40778">
        <ele>1896.818359375</ele>
        <time>2012-09-15T14:47:03Z</time>
      </trkpt>
      <trkpt lat="42.69838" lon="1.40778">
        <ele>1894.4150390625</ele>
        <time>2012-09-15T14:47:08Z</time>
      </trkpt>
      <trkpt lat="42.69841" lon="1.40777">
        <ele>1892.4926757812</ele>
        <time>2012-09-15T14:47:13Z</time>
      </trkpt>
      <trkpt lat="42.69844" lon="1.40777">
        <ele>1890.5698242188</ele>
        <time>2012-09-15T14:47:18Z</time>
      </trkpt>
      <trkpt lat="42.69846" lon="1.40776">
        <ele>1888.6474609375</ele>
        <time>2012-09-15T14:47:23Z</time>
      </trkpt>
      <trkpt lat="42.69849" lon="1.40775">
        <ele>1886.724609375</ele>
        <time>2012-09-15T14:47:28Z</time>
      </trkpt>
      <trkpt lat="42.6985" lon="1.40774">
        <ele>1886.244140625</ele>
        <time>2012-09-15T14:47:30Z</time>
      </trkpt>
      <trkpt lat="42.69853" lon="1.4077">
        <ele>1884.3215332031</ele>
        <time>2012-09-15T14:47:35Z</time>
      </trkpt>
      <trkpt lat="42.69858" lon="1.40769">
        <ele>1882.8791503906</ele>
        <time>2012-09-15T14:47:41Z</time>
      </trkpt>
      <trkpt lat="42.69861" lon="1.40767">
        <ele>1880.9567871094</ele>
        <time>2012-09-15T14:47:46Z</time>
      </trkpt>
      <trkpt lat="42.69866" lon="1.40767">
        <ele>1878.5534667969</ele>
        <time>2012-09-15T14:47:51Z</time>
      </trkpt>
      <trkpt lat="42.6987" lon="1.40767">
        <ele>1876.630859375</ele>
        <time>2012-09-15T14:47:57Z</time>
      </trkpt>
      <trkpt lat="42.69875" lon="1.40768">
        <ele>1874.7082519531</ele>
        <time>2012-09-15T14:48:02Z</time>
      </trkpt>
      <trkpt lat="42.69878" lon="1.4077">
        <ele>1873.2663574219</ele>
        <time>2012-09-15T14:48:08Z</time>
      </trkpt>
      <trkpt lat="42.69882" lon="1.4077">
        <ele>1870.8630371094</ele>
        <time>2012-09-15T14:48:14Z</time>
      </trkpt>
      <trkpt lat="42.69885" lon="1.40772">
        <ele>1868.4597167969</ele>
        <time>2012-09-15T14:48:20Z</time>
      </trkpt>
      <trkpt lat="42.69887" lon="1.4077">
        <ele>1867.498046875</ele>
        <time>2012-09-15T14:48:25Z</time>
      </trkpt>
      <trkpt lat="42.69889" lon="1.40768">
        <ele>1865.5756835938</ele>
        <time>2012-09-15T14:48:30Z</time>
      </trkpt>
      <trkpt lat="42.69892" lon="1.4077">
        <ele>1863.6528320312</ele>
        <time>2012-09-15T14:48:37Z</time>
      </trkpt>
      <trkpt lat="42.69894" lon="1.40767">
        <ele>1861.73046875</ele>
        <time>2012-09-15T14:48:42Z</time>
      </trkpt>
      <trkpt lat="42.69897" lon="1.40767">
        <ele>1860.2883300781</ele>
        <time>2012-09-15T14:48:47Z</time>
      </trkpt>
      <trkpt lat="42.69899" lon="1.40766">
        <ele>1858.8464355469</ele>
        <time>2012-09-15T14:48:52Z</time>
      </trkpt>
      <trkpt lat="42.69902" lon="1.40763">
        <ele>1856.923828125</ele>
        <time>2012-09-15T14:48:57Z</time>
      </trkpt>
      <trkpt lat="42.69908" lon="1.40758">
        <ele>1854.0400390625</ele>
        <time>2012-09-15T14:49:04Z</time>
      </trkpt>
      <trkpt lat="42.6991" lon="1.40754">
        <ele>1853.0786132812</ele>
        <time>2012-09-15T14:49:09Z</time>
      </trkpt>
      <trkpt lat="42.69915" lon="1.4075">
        <ele>1851.1557617188</ele>
        <time>2012-09-15T14:49:15Z</time>
      </trkpt>
      <trkpt lat="42.69921" lon="1.40746">
        <ele>1848.7524414062</ele>
        <time>2012-09-15T14:49:22Z</time>
      </trkpt>
      <trkpt lat="42.69925" lon="1.40744">
        <ele>1847.310546875</ele>
        <time>2012-09-15T14:49:27Z</time>
      </trkpt>
      <trkpt lat="42.69932" lon="1.40742">
        <ele>1845.8686523438</ele>
        <time>2012-09-15T14:49:34Z</time>
      </trkpt>
      <trkpt lat="42.69936" lon="1.40739">
        <ele>1844.4265136719</ele>
        <time>2012-09-15T14:49:39Z</time>
      </trkpt>
      <trkpt lat="42.69943" lon="1.40736">
        <ele>1842.9846191406</ele>
        <time>2012-09-15T14:49:46Z</time>
      </trkpt>
      <trkpt lat="42.69949" lon="1.40735">
        <ele>1840.5812988281</ele>
        <time>2012-09-15T14:49:53Z</time>
      </trkpt>
      <trkpt lat="42.6995" lon="1.40733">
        <ele>1840.5812988281</ele>
        <time>2012-09-15T14:49:54Z</time>
      </trkpt>
      <trkpt lat="42.69955" lon="1.4073">
        <ele>1838.6589355469</ele>
        <time>2012-09-15T14:50:00Z</time>
      </trkpt>
      <trkpt lat="42.6996" lon="1.40727">
        <ele>1836.7360839844</ele>
        <time>2012-09-15T14:50:06Z</time>
      </trkpt>
      <trkpt lat="42.69963" lon="1.40726">
        <ele>1835.7746582031</ele>
        <time>2012-09-15T14:50:08Z</time>
      </trkpt>
      <trkpt lat="42.69968" lon="1.40724">
        <ele>1834.3327636719</ele>
        <time>2012-09-15T14:50:13Z</time>
      </trkpt>
      <trkpt lat="42.6997" lon="1.40718">
        <ele>1832.41015625</ele>
        <time>2012-09-15T14:50:19Z</time>
      </trkpt>
      <trkpt lat="42.69974" lon="1.40714">
        <ele>1830.9682617188</ele>
        <time>2012-09-15T14:50:24Z</time>
      </trkpt>
      <trkpt lat="42.69978" lon="1.40714">
        <ele>1830.0068359375</ele>
        <time>2012-09-15T14:50:29Z</time>
      </trkpt>
      <trkpt lat="42.69979" lon="1.40713">
        <ele>1830.0068359375</ele>
        <time>2012-09-15T14:50:30Z</time>
      </trkpt>
      <trkpt lat="42.69986" lon="1.40709">
        <ele>1829.5261230469</ele>
        <time>2012-09-15T14:50:36Z</time>
      </trkpt>
      <trkpt lat="42.6999" lon="1.40705">
        <ele>1828.0842285156</ele>
        <time>2012-09-15T14:50:41Z</time>
      </trkpt>
      <trkpt lat="42.69992" lon="1.40702">
        <ele>1827.603515625</ele>
        <time>2012-09-15T14:50:44Z</time>
      </trkpt>
      <trkpt lat="42.69996" lon="1.40697">
        <ele>1826.1616210938</ele>
        <time>2012-09-15T14:50:51Z</time>
      </trkpt>
      <trkpt lat="42.7" lon="1.40693">
        <ele>1824.2390136719</ele>
        <time>2012-09-15T14:50:57Z</time>
      </trkpt>
      <trkpt lat="42.70004" lon="1.4069">
        <ele>1822.7971191406</ele>
        <time>2012-09-15T14:51:02Z</time>
      </trkpt>
      <trkpt lat="42.70006" lon="1.40685">
        <ele>1821.3549804688</ele>
        <time>2012-09-15T14:51:07Z</time>
      </trkpt>
      <trkpt lat="42.70012" lon="1.40682">
        <ele>1819.9128417969</ele>
        <time>2012-09-15T14:51:13Z</time>
      </trkpt>
      <trkpt lat="42.70013" lon="1.40681">
        <ele>1819.4323730469</ele>
        <time>2012-09-15T14:51:14Z</time>
      </trkpt>
      <trkpt lat="42.70019" lon="1.40677">
        <ele>1817.990234375</ele>
        <time>2012-09-15T14:51:21Z</time>
      </trkpt>
      <trkpt lat="42.70024" lon="1.40674">
        <ele>1816.0676269531</ele>
        <time>2012-09-15T14:51:27Z</time>
      </trkpt>
      <trkpt lat="42.70029" lon="1.40671">
        <ele>1814.1450195312</ele>
        <time>2012-09-15T14:51:33Z</time>
      </trkpt>
      <trkpt lat="42.70029" lon="1.40667">
        <ele>1812.2224121094</ele>
        <time>2012-09-15T14:51:39Z</time>
      </trkpt>
      <trkpt lat="42.70031" lon="1.40663">
        <ele>1809.8190917969</ele>
        <time>2012-09-15T14:51:44Z</time>
      </trkpt>
      <trkpt lat="42.70033" lon="1.40659">
        <ele>1808.3771972656</ele>
        <time>2012-09-15T14:51:49Z</time>
      </trkpt>
      <trkpt lat="42.70035" lon="1.40656">
        <ele>1806.4545898438</ele>
        <time>2012-09-15T14:51:55Z</time>
      </trkpt>
      <trkpt lat="42.70034" lon="1.40647">
        <ele>1804.5319824219</ele>
        <time>2012-09-15T14:52:01Z</time>
      </trkpt>
      <trkpt lat="42.70034" lon="1.40645">
        <ele>1804.0515136719</ele>
        <time>2012-09-15T14:52:02Z</time>
      </trkpt>
      <trkpt lat="42.70034" lon="1.40638">
        <ele>1801.1672363281</ele>
        <time>2012-09-15T14:52:08Z</time>
      </trkpt>
      <trkpt lat="42.70034" lon="1.40633">
        <ele>1799.2446289062</ele>
        <time>2012-09-15T14:52:12Z</time>
      </trkpt>
      <trkpt lat="42.70033" lon="1.40627">
        <ele>1797.802734375</ele>
        <time>2012-09-15T14:52:17Z</time>
      </trkpt>
      <trkpt lat="42.70033" lon="1.40623">
        <ele>1796.3608398438</ele>
        <time>2012-09-15T14:52:22Z</time>
      </trkpt>
      <trkpt lat="42.70035" lon="1.4062">
        <ele>1794.4379882812</ele>
        <time>2012-09-15T14:52:27Z</time>
      </trkpt>
      <trkpt lat="42.70033" lon="1.40613">
        <ele>1792.515625</ele>
        <time>2012-09-15T14:52:32Z</time>
      </trkpt>
      <trkpt lat="42.70032" lon="1.4061">
        <ele>1792.0349121094</ele>
        <time>2012-09-15T14:52:33Z</time>
      </trkpt>
      <trkpt lat="42.70028" lon="1.40603">
        <ele>1791.0734863281</ele>
        <time>2012-09-15T14:52:38Z</time>
      </trkpt>
      <trkpt lat="42.70031" lon="1.406">
        <ele>1789.6315917969</ele>
        <time>2012-09-15T14:52:42Z</time>
      </trkpt>
      <trkpt lat="42.70031" lon="1.406">
        <ele>1789.1508789062</ele>
        <time>2012-09-15T14:52:43Z</time>
      </trkpt>
      <trkpt lat="42.70036" lon="1.406">
        <ele>1787.7087402344</ele>
        <time>2012-09-15T14:52:48Z</time>
      </trkpt>
      <trkpt lat="42.70043" lon="1.40599">
        <ele>1784.3442382812</ele>
        <time>2012-09-15T14:52:55Z</time>
      </trkpt>
      <trkpt lat="42.70049" lon="1.40601">
        <ele>1781.4602050781</ele>
        <time>2012-09-15T14:53:01Z</time>
      </trkpt>
      <trkpt lat="42.7005" lon="1.40601">
        <ele>1780.9797363281</ele>
        <time>2012-09-15T14:53:02Z</time>
      </trkpt>
      <trkpt lat="42.70057" lon="1.40605">
        <ele>1779.0568847656</ele>
        <time>2012-09-15T14:53:08Z</time>
      </trkpt>
      <trkpt lat="42.7006" lon="1.40608">
        <ele>1777.6149902344</ele>
        <time>2012-09-15T14:53:12Z</time>
      </trkpt>
      <trkpt lat="42.70066" lon="1.40616">
        <ele>1775.6923828125</ele>
        <time>2012-09-15T14:53:19Z</time>
      </trkpt>
      <trkpt lat="42.70066" lon="1.40618">
        <ele>1775.6923828125</ele>
        <time>2012-09-15T14:53:21Z</time>
      </trkpt>
      <trkpt lat="42.70072" lon="1.40621">
        <ele>1773.7697753906</ele>
        <time>2012-09-15T14:53:28Z</time>
      </trkpt>
      <trkpt lat="42.70076" lon="1.40625">
        <ele>1771.8469238281</ele>
        <time>2012-09-15T14:53:32Z</time>
      </trkpt>
      <trkpt lat="42.70082" lon="1.40631">
        <ele>1770.4050292969</ele>
        <time>2012-09-15T14:53:36Z</time>
      </trkpt>
      <trkpt lat="42.7009" lon="1.40638">
        <ele>1767.5209960938</ele>
        <time>2012-09-15T14:53:43Z</time>
      </trkpt>
      <trkpt lat="42.70094" lon="1.40641">
        <ele>1766.0791015625</ele>
        <time>2012-09-15T14:53:50Z</time>
      </trkpt>
      <trkpt lat="42.70098" lon="1.40639">
        <ele>1764.1564941406</ele>
        <time>2012-09-15T14:53:55Z</time>
      </trkpt>
      <trkpt lat="42.70103" lon="1.40645">
        <ele>1761.7534179688</ele>
        <time>2012-09-15T14:54:00Z</time>
      </trkpt>
      <trkpt lat="42.70106" lon="1.40651">
        <ele>1760.7919921875</ele>
        <time>2012-09-15T14:54:06Z</time>
      </trkpt>
      <trkpt lat="42.70111" lon="1.40652">
        <ele>1758.8693847656</ele>
        <time>2012-09-15T14:54:13Z</time>
      </trkpt>
      <trkpt lat="42.70116" lon="1.40658">
        <ele>1756.4660644531</ele>
        <time>2012-09-15T14:54:18Z</time>
      </trkpt>
      <trkpt lat="42.70121" lon="1.4066">
        <ele>1753.58203125</ele>
        <time>2012-09-15T14:54:23Z</time>
      </trkpt>
      <trkpt lat="42.70127" lon="1.40662">
        <ele>1751.1787109375</ele>
        <time>2012-09-15T14:54:29Z</time>
      </trkpt>
      <trkpt lat="42.70129" lon="1.40663">
        <ele>1750.6979980469</ele>
        <time>2012-09-15T14:54:33Z</time>
      </trkpt>
      <trkpt lat="42.70133" lon="1.4066">
        <ele>1749.2561035156</ele>
        <time>2012-09-15T14:54:39Z</time>
      </trkpt>
      <trkpt lat="42.70135" lon="1.40655">
        <ele>1747.8142089844</ele>
        <time>2012-09-15T14:54:44Z</time>
      </trkpt>
      <trkpt lat="42.70137" lon="1.40653">
        <ele>1746.3723144531</ele>
        <time>2012-09-15T14:54:49Z</time>
      </trkpt>
      <trkpt lat="42.7014" lon="1.40655">
        <ele>1744.9301757812</ele>
        <time>2012-09-15T14:54:53Z</time>
      </trkpt>
      <trkpt lat="42.70143" lon="1.40652">
        <ele>1743.48828125</ele>
        <time>2012-09-15T14:54:58Z</time>
      </trkpt>
      <trkpt lat="42.70144" lon="1.40649">
        <ele>1742.0463867188</ele>
        <time>2012-09-15T14:55:02Z</time>
      </trkpt>
      <trkpt lat="42.70147" lon="1.40649">
        <ele>1740.6042480469</ele>
        <time>2012-09-15T14:55:07Z</time>
      </trkpt>
      <trkpt lat="42.70153" lon="1.40649">
        <ele>1737.7202148438</ele>
        <time>2012-09-15T14:55:13Z</time>
      </trkpt>
      <trkpt lat="42.70156" lon="1.40651">
        <ele>1735.7976074219</ele>
        <time>2012-09-15T14:55:19Z</time>
      </trkpt>
      <trkpt lat="42.70161" lon="1.40655">
        <ele>1734.3557128906</ele>
        <time>2012-09-15T14:55:24Z</time>
      </trkpt>
      <trkpt lat="42.70164" lon="1.40658">
        <ele>1732.9135742188</ele>
        <time>2012-09-15T14:55:30Z</time>
      </trkpt>
      <trkpt lat="42.70165" lon="1.40652">
        <ele>1731.9523925781</ele>
        <time>2012-09-15T14:55:35Z</time>
      </trkpt>
      <trkpt lat="42.70168" lon="1.40654">
        <ele>1730.9912109375</ele>
        <time>2012-09-15T14:55:39Z</time>
      </trkpt>
      <trkpt lat="42.70173" lon="1.40657">
        <ele>1729.5490722656</ele>
        <time>2012-09-15T14:55:45Z</time>
      </trkpt>
      <trkpt lat="42.70176" lon="1.40658">
        <ele>1727.6264648438</ele>
        <time>2012-09-15T14:55:48Z</time>
      </trkpt>
      <trkpt lat="42.70185" lon="1.40657">
        <ele>1724.7426757812</ele>
        <time>2012-09-15T14:55:54Z</time>
      </trkpt>
      <trkpt lat="42.70192" lon="1.40657">
        <ele>1720.8972167969</ele>
        <time>2012-09-15T14:55:59Z</time>
      </trkpt>
      <trkpt lat="42.70197" lon="1.40657">
        <ele>1718.0131835938</ele>
        <time>2012-09-15T14:56:03Z</time>
      </trkpt>
      <trkpt lat="42.70206" lon="1.40656">
        <ele>1717.0520019531</ele>
        <time>2012-09-15T14:56:08Z</time>
      </trkpt>
      <trkpt lat="42.70211" lon="1.40654">
        <ele>1716.5712890625</ele>
        <time>2012-09-15T14:56:12Z</time>
      </trkpt>
      <trkpt lat="42.70213" lon="1.4065">
        <ele>1716.0905761719</ele>
        <time>2012-09-15T14:56:15Z</time>
      </trkpt>
      <trkpt lat="42.70216" lon="1.40648">
        <ele>1715.1293945312</ele>
        <time>2012-09-15T14:56:17Z</time>
      </trkpt>
      <trkpt lat="42.70223" lon="1.40645">
        <ele>1714.16796875</ele>
        <time>2012-09-15T14:56:22Z</time>
      </trkpt>
      <trkpt lat="42.70226" lon="1.4064">
        <ele>1713.6872558594</ele>
        <time>2012-09-15T14:56:26Z</time>
      </trkpt>
      <trkpt lat="42.70226" lon="1.40636">
        <ele>1712.7260742188</ele>
        <time>2012-09-15T14:56:28Z</time>
      </trkpt>
      <trkpt lat="42.7023" lon="1.40633">
        <ele>1710.3227539062</ele>
        <time>2012-09-15T14:56:32Z</time>
      </trkpt>
      <trkpt lat="42.70229" lon="1.40624">
        <ele>1706.9580078125</ele>
        <time>2012-09-15T14:56:38Z</time>
      </trkpt>
      <trkpt lat="42.70232" lon="1.40616">
        <ele>1704.07421875</ele>
        <time>2012-09-15T14:56:45Z</time>
      </trkpt>
      <trkpt lat="42.70231" lon="1.40608">
        <ele>1701.6708984375</ele>
        <time>2012-09-15T14:56:51Z</time>
      </trkpt>
      <trkpt lat="42.70235" lon="1.40602">
        <ele>1699.7482910156</ele>
        <time>2012-09-15T14:56:56Z</time>
      </trkpt>
      <trkpt lat="42.70235" lon="1.40593">
        <ele>1697.3449707031</ele>
        <time>2012-09-15T14:57:01Z</time>
      </trkpt>
      <trkpt lat="42.70236" lon="1.40586">
        <ele>1695.4223632812</ele>
        <time>2012-09-15T14:57:07Z</time>
      </trkpt>
      <trkpt lat="42.70236" lon="1.40584">
        <ele>1694.9416503906</ele>
        <time>2012-09-15T14:57:08Z</time>
      </trkpt>
      <trkpt lat="42.70235" lon="1.40575">
        <ele>1694.4609375</ele>
        <time>2012-09-15T14:57:14Z</time>
      </trkpt>
      <trkpt lat="42.70237" lon="1.40573">
        <ele>1693.4997558594</ele>
        <time>2012-09-15T14:57:17Z</time>
      </trkpt>
      <trkpt lat="42.7024" lon="1.40568">
        <ele>1691.0961914062</ele>
        <time>2012-09-15T14:57:24Z</time>
      </trkpt>
      <trkpt lat="42.7024" lon="1.40561">
        <ele>1688.6931152344</ele>
        <time>2012-09-15T14:57:30Z</time>
      </trkpt>
      <trkpt lat="42.70243" lon="1.40563">
        <ele>1687.2509765625</ele>
        <time>2012-09-15T14:57:35Z</time>
      </trkpt>
      <trkpt lat="42.70247" lon="1.40566">
        <ele>1686.2897949219</ele>
        <time>2012-09-15T14:57:40Z</time>
      </trkpt>
      <trkpt lat="42.7025" lon="1.40568">
        <ele>1684.3671875</ele>
        <time>2012-09-15T14:57:46Z</time>
      </trkpt>
      <trkpt lat="42.7025" lon="1.40568">
        <ele>1682.9250488281</ele>
        <time>2012-09-15T14:57:50Z</time>
      </trkpt>
      <trkpt lat="42.70252" lon="1.40569">
        <ele>1682.4445800781</ele>
        <time>2012-09-15T14:58:04Z</time>
      </trkpt>
      <trkpt lat="42.70256" lon="1.40573">
        <ele>1681.0026855469</ele>
        <time>2012-09-15T14:58:10Z</time>
      </trkpt>
      <trkpt lat="42.70258" lon="1.40575">
        <ele>1680.0412597656</ele>
        <time>2012-09-15T14:58:17Z</time>
      </trkpt>
      <trkpt lat="42.70259" lon="1.40575">
        <ele>1678.1186523438</ele>
        <time>2012-09-15T14:58:24Z</time>
      </trkpt>
      <trkpt lat="42.70264" lon="1.40583">
        <ele>1676.6767578125</ele>
        <time>2012-09-15T14:58:32Z</time>
      </trkpt>
      <trkpt lat="42.70267" lon="1.40584">
        <ele>1676.1960449219</ele>
        <time>2012-09-15T14:58:35Z</time>
      </trkpt>
      <trkpt lat="42.70273" lon="1.40585">
        <ele>1676.1960449219</ele>
        <time>2012-09-15T14:58:42Z</time>
      </trkpt>
      <trkpt lat="42.70276" lon="1.40582">
        <ele>1676.1960449219</ele>
        <time>2012-09-15T14:58:48Z</time>
      </trkpt>
      <trkpt lat="42.7028" lon="1.40582">
        <ele>1675.7150878906</ele>
        <time>2012-09-15T14:58:53Z</time>
      </trkpt>
      <trkpt lat="42.70286" lon="1.40583">
        <ele>1674.75390625</ele>
        <time>2012-09-15T14:58:59Z</time>
      </trkpt>
      <trkpt lat="42.70292" lon="1.40585">
        <ele>1673.7924804688</ele>
        <time>2012-09-15T14:59:05Z</time>
      </trkpt>
      <trkpt lat="42.70293" lon="1.40585">
        <ele>1673.7924804688</ele>
        <time>2012-09-15T14:59:06Z</time>
      </trkpt>
      <trkpt lat="42.70297" lon="1.40582">
        <ele>1674.2731933594</ele>
        <time>2012-09-15T14:59:11Z</time>
      </trkpt>
      <trkpt lat="42.70302" lon="1.40584">
        <ele>1672.8312988281</ele>
        <time>2012-09-15T14:59:17Z</time>
      </trkpt>
      <trkpt lat="42.70306" lon="1.40584">
        <ele>1670.9086914062</ele>
        <time>2012-09-15T14:59:23Z</time>
      </trkpt>
      <trkpt lat="42.70312" lon="1.40582">
        <ele>1670.4279785156</ele>
        <time>2012-09-15T14:59:29Z</time>
      </trkpt>
      <trkpt lat="42.70317" lon="1.40581">
        <ele>1668.9860839844</ele>
        <time>2012-09-15T14:59:36Z</time>
      </trkpt>
      <trkpt lat="42.7032" lon="1.4058">
        <ele>1667.5439453125</ele>
        <time>2012-09-15T14:59:40Z</time>
      </trkpt>
      <trkpt lat="42.70325" lon="1.40581">
        <ele>1665.6215820312</ele>
        <time>2012-09-15T14:59:46Z</time>
      </trkpt>
      <trkpt lat="42.70331" lon="1.40584">
        <ele>1663.6987304688</ele>
        <time>2012-09-15T14:59:52Z</time>
      </trkpt>
      <trkpt lat="42.70333" lon="1.40584">
        <ele>1663.6987304688</ele>
        <time>2012-09-15T14:59:54Z</time>
      </trkpt>
      <trkpt lat="42.70339" lon="1.40584">
        <ele>1661.2956542969</ele>
        <time>2012-09-15T15:00:00Z</time>
      </trkpt>
      <trkpt lat="42.70343" lon="1.40586">
        <ele>1660.8149414062</ele>
        <time>2012-09-15T15:00:05Z</time>
      </trkpt>
      <trkpt lat="42.70348" lon="1.40588">
        <ele>1658.8920898438</ele>
        <time>2012-09-15T15:00:09Z</time>
      </trkpt>
      <trkpt lat="42.70351" lon="1.40591">
        <ele>1656.9694824219</ele>
        <time>2012-09-15T15:00:14Z</time>
      </trkpt>
      <trkpt lat="42.70359" lon="1.40596">
        <ele>1654.5661621094</ele>
        <time>2012-09-15T15:00:19Z</time>
      </trkpt>
      <trkpt lat="42.70369" lon="1.40606">
        <ele>1651.6823730469</ele>
        <time>2012-09-15T15:00:26Z</time>
      </trkpt>
      <trkpt lat="42.70371" lon="1.40608">
        <ele>1651.6823730469</ele>
        <time>2012-09-15T15:00:27Z</time>
      </trkpt>
      <trkpt lat="42.70378" lon="1.40611">
        <ele>1648.3176269531</ele>
        <time>2012-09-15T15:00:32Z</time>
      </trkpt>
      <trkpt lat="42.70384" lon="1.40612">
        <ele>1646.3952636719</ele>
        <time>2012-09-15T15:00:36Z</time>
      </trkpt>
      <trkpt lat="42.7039" lon="1.40612">
        <ele>1643.5109863281</ele>
        <time>2012-09-15T15:00:40Z</time>
      </trkpt>
      <trkpt lat="42.70394" lon="1.40614">
        <ele>1642.0690917969</ele>
        <time>2012-09-15T15:00:43Z</time>
      </trkpt>
      <trkpt lat="42.70395" lon="1.40619">
        <ele>1640.626953125</ele>
        <time>2012-09-15T15:00:48Z</time>
      </trkpt>
      <trkpt lat="42.70398" lon="1.40622">
        <ele>1638.2238769531</ele>
        <time>2012-09-15T15:00:52Z</time>
      </trkpt>
      <trkpt lat="42.70403" lon="1.40626">
        <ele>1635.8205566406</ele>
        <time>2012-09-15T15:00:59Z</time>
      </trkpt>
      <trkpt lat="42.70405" lon="1.40632">
        <ele>1632.4560546875</ele>
        <time>2012-09-15T15:01:04Z</time>
      </trkpt>
      <trkpt lat="42.7041" lon="1.40636">
        <ele>1629.0913085938</ele>
        <time>2012-09-15T15:01:10Z</time>
      </trkpt>
      <trkpt lat="42.70412" lon="1.40636">
        <ele>1628.1301269531</ele>
        <time>2012-09-15T15:01:12Z</time>
      </trkpt>
      <trkpt lat="42.70419" lon="1.40635">
        <ele>1626.2072753906</ele>
        <time>2012-09-15T15:01:17Z</time>
      </trkpt>
      <trkpt lat="42.70424" lon="1.40637">
        <ele>1624.7653808594</ele>
        <time>2012-09-15T15:01:22Z</time>
      </trkpt>
      <trkpt lat="42.70427" lon="1.40641">
        <ele>1623.8039550781</ele>
        <time>2012-09-15T15:01:25Z</time>
      </trkpt>
      <trkpt lat="42.70428" lon="1.40648">
        <ele>1620.9201660156</ele>
        <time>2012-09-15T15:01:30Z</time>
      </trkpt>
      <trkpt lat="42.70432" lon="1.40655">
        <ele>1618.5168457031</ele>
        <time>2012-09-15T15:01:36Z</time>
      </trkpt>
      <trkpt lat="42.70434" lon="1.40657">
        <ele>1616.5942382812</ele>
        <time>2012-09-15T15:01:40Z</time>
      </trkpt>
      <trkpt lat="42.70438" lon="1.40653">
        <ele>1613.2297363281</ele>
        <time>2012-09-15T15:01:45Z</time>
      </trkpt>
      <trkpt lat="42.70441" lon="1.40654">
        <ele>1611.3068847656</ele>
        <time>2012-09-15T15:01:50Z</time>
      </trkpt>
      <trkpt lat="42.70445" lon="1.40653">
        <ele>1609.8647460938</ele>
        <time>2012-09-15T15:01:57Z</time>
      </trkpt>
      <trkpt lat="42.70446" lon="1.40657">
        <ele>1608.4228515625</ele>
        <time>2012-09-15T15:02:01Z</time>
      </trkpt>
      <trkpt lat="42.70447" lon="1.40658">
        <ele>1606.5002441406</ele>
        <time>2012-09-15T15:02:06Z</time>
      </trkpt>
      <trkpt lat="42.70451" lon="1.40655">
        <ele>1605.5390625</ele>
        <time>2012-09-15T15:02:12Z</time>
      </trkpt>
      <trkpt lat="42.70455" lon="1.40651">
        <ele>1603.6164550781</ele>
        <time>2012-09-15T15:02:18Z</time>
      </trkpt>
      <trkpt lat="42.70459" lon="1.40644">
        <ele>1602.6550292969</ele>
        <time>2012-09-15T15:02:24Z</time>
      </trkpt>
      <trkpt lat="42.70461" lon="1.40639">
        <ele>1601.6938476562</ele>
        <time>2012-09-15T15:02:28Z</time>
      </trkpt>
      <trkpt lat="42.70467" lon="1.40633">
        <ele>1599.2905273438</ele>
        <time>2012-09-15T15:02:35Z</time>
      </trkpt>
      <trkpt lat="42.70471" lon="1.40641">
        <ele>1595.92578125</ele>
        <time>2012-09-15T15:02:40Z</time>
      </trkpt>
      <trkpt lat="42.70472" lon="1.40644">
        <ele>1594.4836425781</ele>
        <time>2012-09-15T15:02:42Z</time>
      </trkpt>
      <trkpt lat="42.70475" lon="1.40652">
        <ele>1591.5998535156</ele>
        <time>2012-09-15T15:02:49Z</time>
      </trkpt>
      <trkpt lat="42.70479" lon="1.40651">
        <ele>1589.6772460938</ele>
        <time>2012-09-15T15:02:54Z</time>
      </trkpt>
      <trkpt lat="42.70484" lon="1.40649">
        <ele>1588.7160644531</ele>
        <time>2012-09-15T15:03:00Z</time>
      </trkpt>
      <trkpt lat="42.70488" lon="1.40647">
        <ele>1588.2353515625</ele>
        <time>2012-09-15T15:03:06Z</time>
      </trkpt>
      <trkpt lat="42.70493" lon="1.40649">
        <ele>1585.83203125</ele>
        <time>2012-09-15T15:03:12Z</time>
      </trkpt>
      <trkpt lat="42.70494" lon="1.40657">
        <ele>1582.4675292969</ele>
        <time>2012-09-15T15:03:18Z</time>
      </trkpt>
      <trkpt lat="42.70496" lon="1.40666">
        <ele>1579.1025390625</ele>
        <time>2012-09-15T15:03:25Z</time>
      </trkpt>
      <trkpt lat="42.70499" lon="1.40668">
        <ele>1577.6606445312</ele>
        <time>2012-09-15T15:03:30Z</time>
      </trkpt>
      <trkpt lat="42.70503" lon="1.40665">
        <ele>1576.6994628906</ele>
        <time>2012-09-15T15:03:34Z</time>
      </trkpt>
      <trkpt lat="42.70507" lon="1.40661">
        <ele>1574.7768554688</ele>
        <time>2012-09-15T15:03:39Z</time>
      </trkpt>
      <trkpt lat="42.70512" lon="1.40661">
        <ele>1572.8542480469</ele>
        <time>2012-09-15T15:03:46Z</time>
      </trkpt>
      <trkpt lat="42.70514" lon="1.40656">
        <ele>1571.8928222656</ele>
        <time>2012-09-15T15:03:52Z</time>
      </trkpt>
      <trkpt lat="42.70515" lon="1.40653">
        <ele>1570.931640625</ele>
        <time>2012-09-15T15:03:57Z</time>
      </trkpt>
      <trkpt lat="42.70518" lon="1.40655">
        <ele>1569.0090332031</ele>
        <time>2012-09-15T15:04:01Z</time>
      </trkpt>
      <trkpt lat="42.7052" lon="1.40662">
        <ele>1567.5668945312</ele>
        <time>2012-09-15T15:04:07Z</time>
      </trkpt>
      <trkpt lat="42.7052" lon="1.40667">
        <ele>1565.1638183594</ele>
        <time>2012-09-15T15:04:12Z</time>
      </trkpt>
      <trkpt lat="42.70521" lon="1.40671">
        <ele>1563.7214355469</ele>
        <time>2012-09-15T15:04:16Z</time>
      </trkpt>
      <trkpt lat="42.70523" lon="1.40678">
        <ele>1560.8376464844</ele>
        <time>2012-09-15T15:04:22Z</time>
      </trkpt>
      <trkpt lat="42.70523" lon="1.40681">
        <ele>1560.3569335938</ele>
        <time>2012-09-15T15:04:26Z</time>
      </trkpt>
      <trkpt lat="42.70527" lon="1.40683">
        <ele>1559.8762207031</ele>
        <time>2012-09-15T15:04:31Z</time>
      </trkpt>
      <trkpt lat="42.70531" lon="1.40687">
        <ele>1556.9924316406</ele>
        <time>2012-09-15T15:04:37Z</time>
      </trkpt>
      <trkpt lat="42.70533" lon="1.4069">
        <ele>1554.5891113281</ele>
        <time>2012-09-15T15:04:43Z</time>
      </trkpt>
      <trkpt lat="42.70535" lon="1.40696">
        <ele>1554.5891113281</ele>
        <time>2012-09-15T15:04:50Z</time>
      </trkpt>
      <trkpt lat="42.70537" lon="1.40703">
        <ele>1552.1857910156</ele>
        <time>2012-09-15T15:04:56Z</time>
      </trkpt>
      <trkpt lat="42.70537" lon="1.40706">
        <ele>1550.2634277344</ele>
        <time>2012-09-15T15:04:59Z</time>
      </trkpt>
      <trkpt lat="42.70539" lon="1.40714">
        <ele>1548.8212890625</ele>
        <time>2012-09-15T15:05:04Z</time>
      </trkpt>
      <trkpt lat="42.70539" lon="1.40723">
        <ele>1548.8212890625</ele>
        <time>2012-09-15T15:05:09Z</time>
      </trkpt>
      <trkpt lat="42.70541" lon="1.40735">
        <ele>1548.3405761719</ele>
        <time>2012-09-15T15:05:13Z</time>
      </trkpt>
      <trkpt lat="42.70543" lon="1.40737">
        <ele>1548.3405761719</ele>
        <time>2012-09-15T15:05:18Z</time>
      </trkpt>
      <trkpt lat="42.70546" lon="1.40734">
        <ele>1545.9372558594</ele>
        <time>2012-09-15T15:05:23Z</time>
      </trkpt>
      <trkpt lat="42.70549" lon="1.40729">
        <ele>1544.4951171875</ele>
        <time>2012-09-15T15:05:28Z</time>
      </trkpt>
      <trkpt lat="42.70554" lon="1.40731">
        <ele>1543.5339355469</ele>
        <time>2012-09-15T15:05:34Z</time>
      </trkpt>
      <trkpt lat="42.70555" lon="1.40738">
        <ele>1542.5727539062</ele>
        <time>2012-09-15T15:05:37Z</time>
      </trkpt>
      <trkpt lat="42.70557" lon="1.40743">
        <ele>1541.1306152344</ele>
        <time>2012-09-15T15:05:40Z</time>
      </trkpt>
      <trkpt lat="42.70559" lon="1.40748">
        <ele>1536.8046875</ele>
        <time>2012-09-15T15:05:47Z</time>
      </trkpt>
      <trkpt lat="42.7056" lon="1.40752">
        <ele>1535.8435058594</ele>
        <time>2012-09-15T15:05:50Z</time>
      </trkpt>
      <trkpt lat="42.70562" lon="1.40755">
        <ele>1532.4790039062</ele>
        <time>2012-09-15T15:05:54Z</time>
      </trkpt>
      <trkpt lat="42.70563" lon="1.40761">
        <ele>1531.0368652344</ele>
        <time>2012-09-15T15:05:59Z</time>
      </trkpt>
      <trkpt lat="42.70564" lon="1.40771">
        <ele>1531.5173339844</ele>
        <time>2012-09-15T15:06:05Z</time>
      </trkpt>
      <trkpt lat="42.70564" lon="1.40772">
        <ele>1531.0368652344</ele>
        <time>2012-09-15T15:06:06Z</time>
      </trkpt>
      <trkpt lat="42.70566" lon="1.40777">
        <ele>1529.5947265625</ele>
        <time>2012-09-15T15:06:10Z</time>
      </trkpt>
      <trkpt lat="42.70567" lon="1.40783">
        <ele>1526.7109375</ele>
        <time>2012-09-15T15:06:14Z</time>
      </trkpt>
      <trkpt lat="42.70567" lon="1.40793">
        <ele>1526.7109375</ele>
        <time>2012-09-15T15:06:20Z</time>
      </trkpt>
      <trkpt lat="42.70569" lon="1.40799">
        <ele>1525.2687988281</ele>
        <time>2012-09-15T15:06:25Z</time>
      </trkpt>
      <trkpt lat="42.70572" lon="1.40802">
        <ele>1525.7495117188</ele>
        <time>2012-09-15T15:06:28Z</time>
      </trkpt>
      <trkpt lat="42.70575" lon="1.40807">
        <ele>1524.7883300781</ele>
        <time>2012-09-15T15:06:34Z</time>
      </trkpt>
      <trkpt lat="42.70576" lon="1.40811">
        <ele>1522.3850097656</ele>
        <time>2012-09-15T15:06:40Z</time>
      </trkpt>
      <trkpt lat="42.70582" lon="1.40812">
        <ele>1519.0205078125</ele>
        <time>2012-09-15T15:06:47Z</time>
      </trkpt>
      <trkpt lat="42.70585" lon="1.40809">
        <ele>1520.9431152344</ele>
        <time>2012-09-15T15:06:52Z</time>
      </trkpt>
      <trkpt lat="42.70586" lon="1.40804">
        <ele>1520.4624023438</ele>
        <time>2012-09-15T15:06:57Z</time>
      </trkpt>
      <trkpt lat="42.70586" lon="1.40803">
        <ele>1520.4624023438</ele>
        <time>2012-09-15T15:06:58Z</time>
      </trkpt>
      <trkpt lat="42.70588" lon="1.40799">
        <ele>1518.5397949219</ele>
        <time>2012-09-15T15:07:03Z</time>
      </trkpt>
      <trkpt lat="42.7059" lon="1.40794">
        <ele>1515.1750488281</ele>
        <time>2012-09-15T15:07:08Z</time>
      </trkpt>
      <trkpt lat="42.70592" lon="1.40791">
        <ele>1511.810546875</ele>
        <time>2012-09-15T15:07:12Z</time>
      </trkpt>
      <trkpt lat="42.70601" lon="1.40788">
        <ele>1508.9265136719</ele>
        <time>2012-09-15T15:07:22Z</time>
      </trkpt>
      <trkpt lat="42.70602" lon="1.40788">
        <ele>1508.9265136719</ele>
        <time>2012-09-15T15:07:23Z</time>
      </trkpt>
      <trkpt lat="42.70608" lon="1.40788">
        <ele>1508.9265136719</ele>
        <time>2012-09-15T15:07:28Z</time>
      </trkpt>
      <trkpt lat="42.70614" lon="1.40788">
        <ele>1506.0424804688</ele>
        <time>2012-09-15T15:07:36Z</time>
      </trkpt>
      <trkpt lat="42.70618" lon="1.40791">
        <ele>1504.1201171875</ele>
        <time>2012-09-15T15:07:40Z</time>
      </trkpt>
      <trkpt lat="42.7062" lon="1.40792">
        <ele>1503.1586914062</ele>
        <time>2012-09-15T15:07:42Z</time>
      </trkpt>
      <trkpt lat="42.70621" lon="1.40795">
        <ele>1502.6779785156</ele>
        <time>2012-09-15T15:07:44Z</time>
      </trkpt>
      <trkpt lat="42.70625" lon="1.40799">
        <ele>1499.3132324219</ele>
        <time>2012-09-15T15:07:52Z</time>
      </trkpt>
      <trkpt lat="42.70627" lon="1.40802">
        <ele>1497.390625</ele>
        <time>2012-09-15T15:07:57Z</time>
      </trkpt>
      <trkpt lat="42.7063" lon="1.40802">
        <ele>1495.4680175781</ele>
        <time>2012-09-15T15:08:03Z</time>
      </trkpt>
      <trkpt lat="42.70635" lon="1.40808">
        <ele>1492.5842285156</ele>
        <time>2012-09-15T15:08:09Z</time>
      </trkpt>
      <trkpt lat="42.70636" lon="1.40811">
        <ele>1490.1809082031</ele>
        <time>2012-09-15T15:08:12Z</time>
      </trkpt>
      <trkpt lat="42.70641" lon="1.4082">
        <ele>1487.296875</ele>
        <time>2012-09-15T15:08:19Z</time>
      </trkpt>
      <trkpt lat="42.70644" lon="1.40826">
        <ele>1485.3742675781</ele>
        <time>2012-09-15T15:08:25Z</time>
      </trkpt>
      <trkpt lat="42.70645" lon="1.4083">
        <ele>1484.4130859375</ele>
        <time>2012-09-15T15:08:29Z</time>
      </trkpt>
      <trkpt lat="42.70646" lon="1.40838">
        <ele>1484.4130859375</ele>
        <time>2012-09-15T15:08:34Z</time>
      </trkpt>
      <trkpt lat="42.70647" lon="1.40842">
        <ele>1483.4514160156</ele>
        <time>2012-09-15T15:08:38Z</time>
      </trkpt>
      <trkpt lat="42.70651" lon="1.40849">
        <ele>1482.490234375</ele>
        <time>2012-09-15T15:08:43Z</time>
      </trkpt>
      <trkpt lat="42.70652" lon="1.40858">
        <ele>1481.5288085938</ele>
        <time>2012-09-15T15:08:50Z</time>
      </trkpt>
      <trkpt lat="42.70653" lon="1.40865">
        <ele>1479.6062011719</ele>
        <time>2012-09-15T15:08:55Z</time>
      </trkpt>
      <trkpt lat="42.70653" lon="1.40872">
        <ele>1479.6062011719</ele>
        <time>2012-09-15T15:09:00Z</time>
      </trkpt>
      <trkpt lat="42.70652" lon="1.40879">
        <ele>1479.6062011719</ele>
        <time>2012-09-15T15:09:06Z</time>
      </trkpt>
      <trkpt lat="42.70652" lon="1.40887">
        <ele>1480.5676269531</ele>
        <time>2012-09-15T15:09:11Z</time>
      </trkpt>
      <trkpt lat="42.70654" lon="1.40896">
        <ele>1481.5288085938</ele>
        <time>2012-09-15T15:09:16Z</time>
      </trkpt>
      <trkpt lat="42.70655" lon="1.40898">
        <ele>1481.5288085938</ele>
        <time>2012-09-15T15:09:17Z</time>
      </trkpt>
      <trkpt lat="42.70655" lon="1.40908">
        <ele>1481.5288085938</ele>
        <time>2012-09-15T15:09:23Z</time>
      </trkpt>
      <trkpt lat="42.70654" lon="1.40913">
        <ele>1482.970703125</ele>
        <time>2012-09-15T15:09:26Z</time>
      </trkpt>
      <trkpt lat="42.70653" lon="1.4092">
        <ele>1483.4514160156</ele>
        <time>2012-09-15T15:09:31Z</time>
      </trkpt>
      <trkpt lat="42.70652" lon="1.40929">
        <ele>1482.490234375</ele>
        <time>2012-09-15T15:09:37Z</time>
      </trkpt>
      <trkpt lat="42.70652" lon="1.40935">
        <ele>1482.0095214844</ele>
        <time>2012-09-15T15:09:42Z</time>
      </trkpt>
      <trkpt lat="42.70651" lon="1.40945">
        <ele>1481.0483398438</ele>
        <time>2012-09-15T15:09:48Z</time>
      </trkpt>
      <trkpt lat="42.70651" lon="1.40947">
        <ele>1479.6062011719</ele>
        <time>2012-09-15T15:09:50Z</time>
      </trkpt>
      <trkpt lat="42.7065" lon="1.40955">
        <ele>1475.2802734375</ele>
        <time>2012-09-15T15:09:57Z</time>
      </trkpt>
      <trkpt lat="42.7065" lon="1.40961">
        <ele>1471.9157714844</ele>
        <time>2012-09-15T15:10:02Z</time>
      </trkpt>
      <trkpt lat="42.7065" lon="1.40968">
        <ele>1472.396484375</ele>
        <time>2012-09-15T15:10:07Z</time>
      </trkpt>
      <trkpt lat="42.70653" lon="1.40981">
        <ele>1472.8771972656</ele>
        <time>2012-09-15T15:10:13Z</time>
      </trkpt>
      <trkpt lat="42.70654" lon="1.40991">
        <ele>1470.9545898438</ele>
        <time>2012-09-15T15:10:17Z</time>
      </trkpt>
      <trkpt lat="42.70655" lon="1.41">
        <ele>1468.0705566406</ele>
        <time>2012-09-15T15:10:21Z</time>
      </trkpt>
      <trkpt lat="42.70654" lon="1.4101">
        <ele>1467.5895996094</ele>
        <time>2012-09-15T15:10:26Z</time>
      </trkpt>
      <trkpt lat="42.70656" lon="1.41018">
        <ele>1466.6284179688</ele>
        <time>2012-09-15T15:10:31Z</time>
      </trkpt>
      <trkpt lat="42.70656" lon="1.41021">
        <ele>1465.6672363281</ele>
        <time>2012-09-15T15:10:33Z</time>
      </trkpt>
      <trkpt lat="42.70656" lon="1.41029">
        <ele>1463.2639160156</ele>
        <time>2012-09-15T15:10:39Z</time>
      </trkpt>
      <trkpt lat="42.70658" lon="1.41038">
        <ele>1463.2639160156</ele>
        <time>2012-09-15T15:10:45Z</time>
      </trkpt>
      <trkpt lat="42.70659" lon="1.41046">
        <ele>1463.7443847656</ele>
        <time>2012-09-15T15:10:51Z</time>
      </trkpt>
      <trkpt lat="42.7066" lon="1.41046">
        <ele>1463.7443847656</ele>
        <time>2012-09-15T15:10:53Z</time>
      </trkpt>
      <trkpt lat="42.7066" lon="1.4104">
        <ele>1460.3798828125</ele>
        <time>2012-09-15T15:10:57Z</time>
      </trkpt>
      <trkpt lat="42.70665" lon="1.41036">
        <ele>1460.3798828125</ele>
        <time>2012-09-15T15:11:03Z</time>
      </trkpt>
      <trkpt lat="42.70665" lon="1.41035">
        <ele>1459.4187011719</ele>
        <time>2012-09-15T15:11:04Z</time>
      </trkpt>
      <trkpt lat="42.70665" lon="1.41027">
        <ele>1456.0539550781</ele>
        <time>2012-09-15T15:11:09Z</time>
      </trkpt>
      <trkpt lat="42.70666" lon="1.41023">
        <ele>1455.0927734375</ele>
        <time>2012-09-15T15:11:14Z</time>
      </trkpt>
      <trkpt lat="42.70668" lon="1.41023">
        <ele>1454.6120605469</ele>
        <time>2012-09-15T15:11:17Z</time>
      </trkpt>
      <trkpt lat="42.70671" lon="1.41024">
        <ele>1454.6120605469</ele>
        <time>2012-09-15T15:11:18Z</time>
      </trkpt>
      <trkpt lat="42.70675" lon="1.4103">
        <ele>1453.1701660156</ele>
        <time>2012-09-15T15:11:22Z</time>
      </trkpt>
      <trkpt lat="42.70676" lon="1.41033">
        <ele>1453.1701660156</ele>
        <time>2012-09-15T15:11:24Z</time>
      </trkpt>
      <trkpt lat="42.70679" lon="1.41041">
        <ele>1452.2087402344</ele>
        <time>2012-09-15T15:11:29Z</time>
      </trkpt>
      <trkpt lat="42.70682" lon="1.41046">
        <ele>1451.2473144531</ele>
        <time>2012-09-15T15:11:32Z</time>
      </trkpt>
      <trkpt lat="42.70683" lon="1.41054">
        <ele>1449.8054199219</ele>
        <time>2012-09-15T15:11:37Z</time>
      </trkpt>
      <trkpt lat="42.70684" lon="1.4106">
        <ele>1447.4020996094</ele>
        <time>2012-09-15T15:11:42Z</time>
      </trkpt>
      <trkpt lat="42.70685" lon="1.41061">
        <ele>1446.9213867188</ele>
        <time>2012-09-15T15:11:43Z</time>
      </trkpt>
      <trkpt lat="42.70686" lon="1.41067">
        <ele>1444.5180664062</ele>
        <time>2012-09-15T15:11:48Z</time>
      </trkpt>
      <trkpt lat="42.70687" lon="1.41075">
        <ele>1442.595703125</ele>
        <time>2012-09-15T15:11:52Z</time>
      </trkpt>
      <trkpt lat="42.70687" lon="1.41078">
        <ele>1441.6342773438</ele>
        <time>2012-09-15T15:11:54Z</time>
      </trkpt>
      <trkpt lat="42.70692" lon="1.41085">
        <ele>1439.7116699219</ele>
        <time>2012-09-15T15:11:59Z</time>
      </trkpt>
      <trkpt lat="42.70692" lon="1.41093">
        <ele>1439.2309570312</ele>
        <time>2012-09-15T15:12:03Z</time>
      </trkpt>
      <trkpt lat="42.70692" lon="1.411">
        <ele>1438.7504882812</ele>
        <time>2012-09-15T15:12:08Z</time>
      </trkpt>
      <trkpt lat="42.70694" lon="1.41106">
        <ele>1436.8276367188</ele>
        <time>2012-09-15T15:12:13Z</time>
      </trkpt>
      <trkpt lat="42.70695" lon="1.41114">
        <ele>1431.5402832031</ele>
        <time>2012-09-15T15:12:20Z</time>
      </trkpt>
      <trkpt lat="42.70697" lon="1.41121">
        <ele>1430.5791015625</ele>
        <time>2012-09-15T15:12:24Z</time>
      </trkpt>
      <trkpt lat="42.707" lon="1.4113">
        <ele>1431.0598144531</ele>
        <time>2012-09-15T15:12:29Z</time>
      </trkpt>
      <trkpt lat="42.70702" lon="1.41136">
        <ele>1430.0983886719</ele>
        <time>2012-09-15T15:12:33Z</time>
      </trkpt>
      <trkpt lat="42.70703" lon="1.4114">
        <ele>1430.5791015625</ele>
        <time>2012-09-15T15:12:35Z</time>
      </trkpt>
      <trkpt lat="42.70703" lon="1.41151">
        <ele>1426.2531738281</ele>
        <time>2012-09-15T15:12:43Z</time>
      </trkpt>
      <trkpt lat="42.70703" lon="1.41157">
        <ele>1424.8112792969</ele>
        <time>2012-09-15T15:12:47Z</time>
      </trkpt>
      <trkpt lat="42.70703" lon="1.41162">
        <ele>1427.2145996094</ele>
        <time>2012-09-15T15:12:50Z</time>
      </trkpt>
      <trkpt lat="42.707" lon="1.41171">
        <ele>1425.2917480469</ele>
        <time>2012-09-15T15:12:54Z</time>
      </trkpt>
      <trkpt lat="42.707" lon="1.41176">
        <ele>1423.8498535156</ele>
        <time>2012-09-15T15:12:58Z</time>
      </trkpt>
      <trkpt lat="42.707" lon="1.41183">
        <ele>1421.9272460938</ele>
        <time>2012-09-15T15:13:03Z</time>
      </trkpt>
      <trkpt lat="42.70701" lon="1.41187">
        <ele>1420.9660644531</ele>
        <time>2012-09-15T15:13:07Z</time>
      </trkpt>
      <trkpt lat="42.707" lon="1.41195">
        <ele>1420.0046386719</ele>
        <time>2012-09-15T15:13:12Z</time>
      </trkpt>
      <trkpt lat="42.70696" lon="1.41203">
        <ele>1415.6787109375</ele>
        <time>2012-09-15T15:13:19Z</time>
      </trkpt>
      <trkpt lat="42.70695" lon="1.41211">
        <ele>1416.1591796875</ele>
        <time>2012-09-15T15:13:24Z</time>
      </trkpt>
      <trkpt lat="42.70695" lon="1.4122">
        <ele>1418.0817871094</ele>
        <time>2012-09-15T15:13:28Z</time>
      </trkpt>
      <trkpt lat="42.70694" lon="1.41224">
        <ele>1419.0432128906</ele>
        <time>2012-09-15T15:13:30Z</time>
      </trkpt>
      <trkpt lat="42.70691" lon="1.41233">
        <ele>1417.6010742188</ele>
        <time>2012-09-15T15:13:35Z</time>
      </trkpt>
      <trkpt lat="42.7069" lon="1.41241">
        <ele>1419.0432128906</ele>
        <time>2012-09-15T15:13:40Z</time>
      </trkpt>
      <trkpt lat="42.70687" lon="1.41247">
        <ele>1418.5625</ele>
        <time>2012-09-15T15:13:44Z</time>
      </trkpt>
      <trkpt lat="42.70688" lon="1.41254">
        <ele>1416.1591796875</ele>
        <time>2012-09-15T15:13:49Z</time>
      </trkpt>
      <trkpt lat="42.70685" lon="1.41264">
        <ele>1413.275390625</ele>
        <time>2012-09-15T15:13:55Z</time>
      </trkpt>
      <trkpt lat="42.70685" lon="1.41278">
        <ele>1409.4301757812</ele>
        <time>2012-09-15T15:14:00Z</time>
      </trkpt>
      <trkpt lat="42.70684" lon="1.41289">
        <ele>1409.4301757812</ele>
        <time>2012-09-15T15:14:03Z</time>
      </trkpt>
      <trkpt lat="42.70682" lon="1.41294">
        <ele>1410.3913574219</ele>
        <time>2012-09-15T15:14:06Z</time>
      </trkpt>
      <trkpt lat="42.70682" lon="1.41304">
        <ele>1414.7172851562</ele>
        <time>2012-09-15T15:14:12Z</time>
      </trkpt>
      <trkpt lat="42.70684" lon="1.41307">
        <ele>1413.755859375</ele>
        <time>2012-09-15T15:14:15Z</time>
      </trkpt>
      <trkpt lat="42.70686" lon="1.41313">
        <ele>1411.8334960938</ele>
        <time>2012-09-15T15:14:20Z</time>
      </trkpt>
      <trkpt lat="42.70685" lon="1.41322">
        <ele>1408.46875</ele>
        <time>2012-09-15T15:14:26Z</time>
      </trkpt>
      <trkpt lat="42.70685" lon="1.41324">
        <ele>1408.46875</ele>
        <time>2012-09-15T15:14:27Z</time>
      </trkpt>
      <trkpt lat="42.70687" lon="1.41334">
        <ele>1407.98828125</ele>
        <time>2012-09-15T15:14:32Z</time>
      </trkpt>
      <trkpt lat="42.70684" lon="1.41345">
        <ele>1408.9494628906</ele>
        <time>2012-09-15T15:14:36Z</time>
      </trkpt>
      <trkpt lat="42.70684" lon="1.41349">
        <ele>1407.5075683594</ele>
        <time>2012-09-15T15:14:38Z</time>
      </trkpt>
      <trkpt lat="42.70683" lon="1.41359">
        <ele>1407.0268554688</ele>
        <time>2012-09-15T15:14:42Z</time>
      </trkpt>
      <trkpt lat="42.70681" lon="1.41366">
        <ele>1404.6235351562</ele>
        <time>2012-09-15T15:14:47Z</time>
      </trkpt>
      <trkpt lat="42.70679" lon="1.4137">
        <ele>1403.1813964844</ele>
        <time>2012-09-15T15:14:50Z</time>
      </trkpt>
      <trkpt lat="42.70679" lon="1.41376">
        <ele>1404.1430664062</ele>
        <time>2012-09-15T15:14:53Z</time>
      </trkpt>
      <trkpt lat="42.70678" lon="1.41387">
        <ele>1398.85546875</ele>
        <time>2012-09-15T15:15:00Z</time>
      </trkpt>
      <trkpt lat="42.7068" lon="1.41391">
        <ele>1395.9716796875</ele>
        <time>2012-09-15T15:15:03Z</time>
      </trkpt>
      <trkpt lat="42.70677" lon="1.41398">
        <ele>1395.0102539062</ele>
        <time>2012-09-15T15:15:07Z</time>
      </trkpt>
      <trkpt lat="42.70676" lon="1.41409">
        <ele>1399.8168945312</ele>
        <time>2012-09-15T15:15:14Z</time>
      </trkpt>
      <trkpt lat="42.70676" lon="1.41418">
        <ele>1402.7006835938</ele>
        <time>2012-09-15T15:15:21Z</time>
      </trkpt>
      <trkpt lat="42.70676" lon="1.41426">
        <ele>1401.7395019531</ele>
        <time>2012-09-15T15:15:26Z</time>
      </trkpt>
      <trkpt lat="42.70676" lon="1.41428">
        <ele>1401.7395019531</ele>
        <time>2012-09-15T15:15:27Z</time>
      </trkpt>
      <trkpt lat="42.70675" lon="1.41435">
        <ele>1402.7006835938</ele>
        <time>2012-09-15T15:15:33Z</time>
      </trkpt>
      <trkpt lat="42.70674" lon="1.41438">
        <ele>1401.7395019531</ele>
        <time>2012-09-15T15:15:35Z</time>
      </trkpt>
      <trkpt lat="42.70676" lon="1.41451">
        <ele>1399.3361816406</ele>
        <time>2012-09-15T15:15:40Z</time>
      </trkpt>
      <trkpt lat="42.70676" lon="1.41457">
        <ele>1398.85546875</ele>
        <time>2012-09-15T15:15:43Z</time>
      </trkpt>
      <trkpt lat="42.70676" lon="1.41464">
        <ele>1399.8168945312</ele>
        <time>2012-09-15T15:15:48Z</time>
      </trkpt>
      <trkpt lat="42.70677" lon="1.41476">
        <ele>1400.7780761719</ele>
        <time>2012-09-15T15:15:55Z</time>
      </trkpt>
      <trkpt lat="42.70678" lon="1.4148">
        <ele>1400.2976074219</ele>
        <time>2012-09-15T15:15:59Z</time>
      </trkpt>
      <trkpt lat="42.70679" lon="1.41483">
        <ele>1397.8942871094</ele>
        <time>2012-09-15T15:16:02Z</time>
      </trkpt>
      <trkpt lat="42.70679" lon="1.41493">
        <ele>1395.4909667969</ele>
        <time>2012-09-15T15:16:08Z</time>
      </trkpt>
      <trkpt lat="42.70679" lon="1.41494">
        <ele>1395.4909667969</ele>
        <time>2012-09-15T15:16:09Z</time>
      </trkpt>
      <trkpt lat="42.70678" lon="1.41504">
        <ele>1394.5295410156</ele>
        <time>2012-09-15T15:16:16Z</time>
      </trkpt>
      <trkpt lat="42.70676" lon="1.41509">
        <ele>1395.0102539062</ele>
        <time>2012-09-15T15:16:20Z</time>
      </trkpt>
      <trkpt lat="42.70675" lon="1.41517">
        <ele>1395.4909667969</ele>
        <time>2012-09-15T15:16:25Z</time>
      </trkpt>
      <trkpt lat="42.70669" lon="1.41519">
        <ele>1395.0102539062</ele>
        <time>2012-09-15T15:16:31Z</time>
      </trkpt>
      <trkpt lat="42.70666" lon="1.4152">
        <ele>1395.4909667969</ele>
        <time>2012-09-15T15:16:34Z</time>
      </trkpt>
      <trkpt lat="42.70664" lon="1.41519">
        <ele>1395.4909667969</ele>
        <time>2012-09-15T15:16:36Z</time>
      </trkpt>
      <trkpt lat="42.70661" lon="1.41521">
        <ele>1393.0876464844</ele>
        <time>2012-09-15T15:16:42Z</time>
      </trkpt>
      <trkpt lat="42.7066" lon="1.41525">
        <ele>1390.6843261719</ele>
        <time>2012-09-15T15:16:47Z</time>
      </trkpt>
      <trkpt lat="42.70662" lon="1.41531">
        <ele>1388.28125</ele>
        <time>2012-09-15T15:16:53Z</time>
      </trkpt>
      <trkpt lat="42.70659" lon="1.41536">
        <ele>1385.3969726562</ele>
        <time>2012-09-15T15:16:58Z</time>
      </trkpt>
      <trkpt lat="42.70656" lon="1.4154">
        <ele>1383.955078125</ele>
        <time>2012-09-15T15:17:04Z</time>
      </trkpt>
      <trkpt lat="42.70658" lon="1.41545">
        <ele>1381.5517578125</ele>
        <time>2012-09-15T15:17:09Z</time>
      </trkpt>
      <trkpt lat="42.70659" lon="1.41552">
        <ele>1379.6291503906</ele>
        <time>2012-09-15T15:17:15Z</time>
      </trkpt>
      <trkpt lat="42.7066" lon="1.41554">
        <ele>1379.1484375</ele>
        <time>2012-09-15T15:17:17Z</time>
      </trkpt>
      <trkpt lat="42.70662" lon="1.4156">
        <ele>1378.1872558594</ele>
        <time>2012-09-15T15:17:22Z</time>
      </trkpt>
      <trkpt lat="42.70663" lon="1.4157">
        <ele>1376.7453613281</ele>
        <time>2012-09-15T15:17:27Z</time>
      </trkpt>
      <trkpt lat="42.70663" lon="1.41572">
        <ele>1375.7839355469</ele>
        <time>2012-09-15T15:17:29Z</time>
      </trkpt>
      <trkpt lat="42.70668" lon="1.4158">
        <ele>1375.3032226562</ele>
        <time>2012-09-15T15:17:35Z</time>
      </trkpt>
      <trkpt lat="42.7067" lon="1.41582">
        <ele>1373.861328125</ele>
        <time>2012-09-15T15:17:38Z</time>
      </trkpt>
      <trkpt lat="42.70671" lon="1.41583">
        <ele>1371.4577636719</ele>
        <time>2012-09-15T15:17:43Z</time>
      </trkpt>
      <trkpt lat="42.70674" lon="1.41585">
        <ele>1371.9384765625</ele>
        <time>2012-09-15T15:17:48Z</time>
      </trkpt>
      <trkpt lat="42.70676" lon="1.41593">
        <ele>1370.4965820312</ele>
        <time>2012-09-15T15:17:53Z</time>
      </trkpt>
      <trkpt lat="42.70684" lon="1.41602">
        <ele>1370.4965820312</ele>
        <time>2012-09-15T15:17:59Z</time>
      </trkpt>
      <trkpt lat="42.70683" lon="1.41609">
        <ele>1367.6125488281</ele>
        <time>2012-09-15T15:18:04Z</time>
      </trkpt>
      <trkpt lat="42.70682" lon="1.41613">
        <ele>1365.6901855469</ele>
        <time>2012-09-15T15:18:07Z</time>
      </trkpt>
      <trkpt lat="42.70683" lon="1.41619">
        <ele>1363.2868652344</ele>
        <time>2012-09-15T15:18:12Z</time>
      </trkpt>
      <trkpt lat="42.70684" lon="1.41625">
        <ele>1360.8835449219</ele>
        <time>2012-09-15T15:18:16Z</time>
      </trkpt>
      <trkpt lat="42.70684" lon="1.41629">
        <ele>1359.4416503906</ele>
        <time>2012-09-15T15:18:20Z</time>
      </trkpt>
      <trkpt lat="42.70684" lon="1.41631">
        <ele>1358.9609375</ele>
        <time>2012-09-15T15:18:21Z</time>
      </trkpt>
      <trkpt lat="42.70685" lon="1.41643">
        <ele>1357.5190429688</ele>
        <time>2012-09-15T15:18:28Z</time>
      </trkpt>
      <trkpt lat="42.70685" lon="1.41648">
        <ele>1356.5576171875</ele>
        <time>2012-09-15T15:18:32Z</time>
      </trkpt>
      <trkpt lat="42.70687" lon="1.41653">
        <ele>1356.5576171875</ele>
        <time>2012-09-15T15:18:36Z</time>
      </trkpt>
      <trkpt lat="42.7069" lon="1.41657">
        <ele>1357.5190429688</ele>
        <time>2012-09-15T15:18:39Z</time>
      </trkpt>
      <trkpt lat="42.70695" lon="1.41666">
        <ele>1358.4802246094</ele>
        <time>2012-09-15T15:18:43Z</time>
      </trkpt>
      <trkpt lat="42.70696" lon="1.41667">
        <ele>1358.9609375</ele>
        <time>2012-09-15T15:18:44Z</time>
      </trkpt>
      <trkpt lat="42.70702" lon="1.41674">
        <ele>1358.4802246094</ele>
        <time>2012-09-15T15:18:50Z</time>
      </trkpt>
      <trkpt lat="42.70705" lon="1.4168">
        <ele>1358.4802246094</ele>
        <time>2012-09-15T15:18:54Z</time>
      </trkpt>
      <trkpt lat="42.70706" lon="1.41684">
        <ele>1358.4802246094</ele>
        <time>2012-09-15T15:18:58Z</time>
      </trkpt>
      <trkpt lat="42.70705" lon="1.41689">
        <ele>1357.9997558594</ele>
        <time>2012-09-15T15:19:01Z</time>
      </trkpt>
      <trkpt lat="42.70704" lon="1.41695">
        <ele>1355.5961914062</ele>
        <time>2012-09-15T15:19:06Z</time>
      </trkpt>
      <trkpt lat="42.70704" lon="1.41702">
        <ele>1352.2314453125</ele>
        <time>2012-09-15T15:19:11Z</time>
      </trkpt>
      <trkpt lat="42.70705" lon="1.41709">
        <ele>1348.8669433594</ele>
        <time>2012-09-15T15:19:17Z</time>
      </trkpt>
      <trkpt lat="42.70707" lon="1.41714">
        <ele>1345.5024414062</ele>
        <time>2012-09-15T15:19:23Z</time>
      </trkpt>
      <trkpt lat="42.7071" lon="1.41713">
        <ele>1343.5798339844</ele>
        <time>2012-09-15T15:19:28Z</time>
      </trkpt>
      <trkpt lat="42.7071" lon="1.41708">
        <ele>1341.1765136719</ele>
        <time>2012-09-15T15:19:32Z</time>
      </trkpt>
      <trkpt lat="42.7071" lon="1.41703">
        <ele>1339.2536621094</ele>
        <time>2012-09-15T15:19:36Z</time>
      </trkpt>
      <trkpt lat="42.7071" lon="1.41702">
        <ele>1339.2536621094</ele>
        <time>2012-09-15T15:19:37Z</time>
      </trkpt>
      <trkpt lat="42.70713" lon="1.41697">
        <ele>1338.7731933594</ele>
        <time>2012-09-15T15:19:41Z</time>
      </trkpt>
      <trkpt lat="42.70715" lon="1.41691">
        <ele>1336.8503417969</ele>
        <time>2012-09-15T15:19:47Z</time>
      </trkpt>
      <trkpt lat="42.70718" lon="1.41687">
        <ele>1334.9279785156</ele>
        <time>2012-09-15T15:19:53Z</time>
      </trkpt>
      <trkpt lat="42.7072" lon="1.41682">
        <ele>1334.9279785156</ele>
        <time>2012-09-15T15:19:57Z</time>
      </trkpt>
      <trkpt lat="42.7072" lon="1.41679">
        <ele>1333.9665527344</ele>
        <time>2012-09-15T15:20:00Z</time>
      </trkpt>
      <trkpt lat="42.70721" lon="1.41676">
        <ele>1332.5246582031</ele>
        <time>2012-09-15T15:20:02Z</time>
      </trkpt>
      <trkpt lat="42.70726" lon="1.41669">
        <ele>1327.7180175781</ele>
        <time>2012-09-15T15:20:08Z</time>
      </trkpt>
      <trkpt lat="42.70726" lon="1.41668">
        <ele>1327.7180175781</ele>
        <time>2012-09-15T15:20:09Z</time>
      </trkpt>
      <trkpt lat="42.70727" lon="1.41667">
        <ele>1327.2375488281</ele>
        <time>2012-09-15T15:20:11Z</time>
      </trkpt>
      <trkpt lat="42.70731" lon="1.41664">
        <ele>1324.8342285156</ele>
        <time>2012-09-15T15:20:17Z</time>
      </trkpt>
      <trkpt lat="42.70736" lon="1.41663">
        <ele>1322.9113769531</ele>
        <time>2012-09-15T15:20:23Z</time>
      </trkpt>
      <trkpt lat="42.7074" lon="1.41655">
        <ele>1322.4306640625</ele>
        <time>2012-09-15T15:20:29Z</time>
      </trkpt>
      <trkpt lat="42.70744" lon="1.41647">
        <ele>1322.9113769531</ele>
        <time>2012-09-15T15:20:36Z</time>
      </trkpt>
      <trkpt lat="42.70749" lon="1.41642">
        <ele>1322.4306640625</ele>
        <time>2012-09-15T15:20:44Z</time>
      </trkpt>
      <trkpt lat="42.70753" lon="1.41639">
        <ele>1322.4306640625</ele>
        <time>2012-09-15T15:20:50Z</time>
      </trkpt>
      <trkpt lat="42.70757" lon="1.41636">
        <ele>1319.0661621094</ele>
        <time>2012-09-15T15:20:54Z</time>
      </trkpt>
      <trkpt lat="42.70758" lon="1.41634">
        <ele>1319.0661621094</ele>
        <time>2012-09-15T15:20:55Z</time>
      </trkpt>
      <trkpt lat="42.7076" lon="1.41633">
        <ele>1318.1047363281</ele>
        <time>2012-09-15T15:20:58Z</time>
      </trkpt>
      <trkpt lat="42.70762" lon="1.41634">
        <ele>1316.6628417969</ele>
        <time>2012-09-15T15:21:00Z</time>
      </trkpt>
      <trkpt lat="42.70763" lon="1.41631">
        <ele>1314.740234375</ele>
        <time>2012-09-15T15:21:02Z</time>
      </trkpt>
      <trkpt lat="42.7077" lon="1.41625">
        <ele>1309.93359375</ele>
        <time>2012-09-15T15:21:09Z</time>
      </trkpt>
      <trkpt lat="42.70773" lon="1.41622">
        <ele>1307.0495605469</ele>
        <time>2012-09-15T15:21:14Z</time>
      </trkpt>
      <trkpt lat="42.70776" lon="1.41616">
        <ele>1305.126953125</ele>
        <time>2012-09-15T15:21:19Z</time>
      </trkpt>
      <trkpt lat="42.70779" lon="1.41612">
        <ele>1302.7236328125</ele>
        <time>2012-09-15T15:21:24Z</time>
      </trkpt>
      <trkpt lat="42.70782" lon="1.41611">
        <ele>1300.8010253906</ele>
        <time>2012-09-15T15:21:28Z</time>
      </trkpt>
      <trkpt lat="42.70785" lon="1.41608">
        <ele>1298.3977050781</ele>
        <time>2012-09-15T15:21:32Z</time>
      </trkpt>
      <trkpt lat="42.70787" lon="1.41609">
        <ele>1297.4365234375</ele>
        <time>2012-09-15T15:21:34Z</time>
      </trkpt>
      <trkpt lat="42.7079" lon="1.4161">
        <ele>1295.033203125</ele>
        <time>2012-09-15T15:21:40Z</time>
      </trkpt>
      <trkpt lat="42.70794" lon="1.41605">
        <ele>1293.5913085938</ele>
        <time>2012-09-15T15:21:46Z</time>
      </trkpt>
      <trkpt lat="42.70797" lon="1.41606">
        <ele>1291.6684570312</ele>
        <time>2012-09-15T15:21:51Z</time>
      </trkpt>
      <trkpt lat="42.70799" lon="1.41605">
        <ele>1290.2265625</ele>
        <time>2012-09-15T15:21:55Z</time>
      </trkpt>
      <trkpt lat="42.70802" lon="1.416">
        <ele>1286.8618164062</ele>
        <time>2012-09-15T15:22:01Z</time>
      </trkpt>
      <trkpt lat="42.70805" lon="1.41596">
        <ele>1283.9780273438</ele>
        <time>2012-09-15T15:22:07Z</time>
      </trkpt>
      <trkpt lat="42.70809" lon="1.41589">
        <ele>1283.0166015625</ele>
        <time>2012-09-15T15:22:13Z</time>
      </trkpt>
      <trkpt lat="42.70809" lon="1.41587">
        <ele>1282.5361328125</ele>
        <time>2012-09-15T15:22:14Z</time>
      </trkpt>
      <trkpt lat="42.70811" lon="1.41581">
        <ele>1283.4973144531</ele>
        <time>2012-09-15T15:22:19Z</time>
      </trkpt>
      <trkpt lat="42.70813" lon="1.41582">
        <ele>1282.5361328125</ele>
        <time>2012-09-15T15:22:21Z</time>
      </trkpt>
      <trkpt lat="42.70816" lon="1.4158">
        <ele>1282.0554199219</ele>
        <time>2012-09-15T15:22:26Z</time>
      </trkpt>
      <trkpt lat="42.70819" lon="1.4158">
        <ele>1280.6135253906</ele>
        <time>2012-09-15T15:22:30Z</time>
      </trkpt>
      <trkpt lat="42.70821" lon="1.41577">
        <ele>1279.1713867188</ele>
        <time>2012-09-15T15:22:35Z</time>
      </trkpt>
      <trkpt lat="42.70821" lon="1.4157">
        <ele>1276.7683105469</ele>
        <time>2012-09-15T15:22:40Z</time>
      </trkpt>
      <trkpt lat="42.70825" lon="1.41569">
        <ele>1275.806640625</ele>
        <time>2012-09-15T15:22:44Z</time>
      </trkpt>
      <trkpt lat="42.70827" lon="1.41565">
        <ele>1274.3647460938</ele>
        <time>2012-09-15T15:22:51Z</time>
      </trkpt>
      <trkpt lat="42.70829" lon="1.41562">
        <ele>1273.8840332031</ele>
        <time>2012-09-15T15:22:56Z</time>
      </trkpt>
      <trkpt lat="42.7083" lon="1.41558">
        <ele>1274.8454589844</ele>
        <time>2012-09-15T15:23:00Z</time>
      </trkpt>
      <trkpt lat="42.7083" lon="1.41552">
        <ele>1274.8454589844</ele>
        <time>2012-09-15T15:23:05Z</time>
      </trkpt>
      <trkpt lat="42.70829" lon="1.41548">
        <ele>1274.8454589844</ele>
        <time>2012-09-15T15:23:08Z</time>
      </trkpt>
      <trkpt lat="42.70831" lon="1.4154">
        <ele>1271.9614257812</ele>
        <time>2012-09-15T15:23:13Z</time>
      </trkpt>
      <trkpt lat="42.7084" lon="1.41538">
        <ele>1268.5969238281</ele>
        <time>2012-09-15T15:23:18Z</time>
      </trkpt>
      <trkpt lat="42.70846" lon="1.41541">
        <ele>1267.1550292969</ele>
        <time>2012-09-15T15:23:22Z</time>
      </trkpt>
      <trkpt lat="42.70847" lon="1.41542">
        <ele>1266.1936035156</ele>
        <time>2012-09-15T15:23:23Z</time>
      </trkpt>
      <trkpt lat="42.70852" lon="1.41542">
        <ele>1263.7902832031</ele>
        <time>2012-09-15T15:23:28Z</time>
      </trkpt>
      <trkpt lat="42.70859" lon="1.41537">
        <ele>1260.9064941406</ele>
        <time>2012-09-15T15:23:33Z</time>
      </trkpt>
      <trkpt lat="42.70864" lon="1.41532">
        <ele>1257.0610351562</ele>
        <time>2012-09-15T15:23:37Z</time>
      </trkpt>
      <trkpt lat="42.70867" lon="1.41531">
        <ele>1255.1384277344</ele>
        <time>2012-09-15T15:23:39Z</time>
      </trkpt>
      <trkpt lat="42.70871" lon="1.41531">
        <ele>1253.6965332031</ele>
        <time>2012-09-15T15:23:42Z</time>
      </trkpt>
      <trkpt lat="42.70878" lon="1.41534">
        <ele>1248.8898925781</ele>
        <time>2012-09-15T15:23:47Z</time>
      </trkpt>
      <trkpt lat="42.70885" lon="1.41536">
        <ele>1246.0061035156</ele>
        <time>2012-09-15T15:23:52Z</time>
      </trkpt>
      <trkpt lat="42.7089" lon="1.41539">
        <ele>1243.6025390625</ele>
        <time>2012-09-15T15:23:56Z</time>
      </trkpt>
      <trkpt lat="42.70892" lon="1.41545">
        <ele>1240.2380371094</ele>
        <time>2012-09-15T15:24:02Z</time>
      </trkpt>
      <trkpt lat="42.70893" lon="1.41551">
        <ele>1238.7961425781</ele>
        <time>2012-09-15T15:24:07Z</time>
      </trkpt>
      <trkpt lat="42.70892" lon="1.41556">
        <ele>1237.8347167969</ele>
        <time>2012-09-15T15:24:10Z</time>
      </trkpt>
      <trkpt lat="42.70889" lon="1.41564">
        <ele>1236.8732910156</ele>
        <time>2012-09-15T15:24:14Z</time>
      </trkpt>
      <trkpt lat="42.70884" lon="1.41576">
        <ele>1234.4702148438</ele>
        <time>2012-09-15T15:24:19Z</time>
      </trkpt>
      <trkpt lat="42.70884" lon="1.41583">
        <ele>1231.5861816406</ele>
        <time>2012-09-15T15:24:22Z</time>
      </trkpt>
      <trkpt lat="42.70885" lon="1.41589">
        <ele>1230.625</ele>
        <time>2012-09-15T15:24:27Z</time>
      </trkpt>
      <trkpt lat="42.70887" lon="1.41591">
        <ele>1229.6635742188</ele>
        <time>2012-09-15T15:24:30Z</time>
      </trkpt>
      <trkpt lat="42.70887" lon="1.41601">
        <ele>1226.7795410156</ele>
        <time>2012-09-15T15:24:36Z</time>
      </trkpt>
      <trkpt lat="42.70891" lon="1.41609">
        <ele>1227.7407226562</ele>
        <time>2012-09-15T15:24:41Z</time>
      </trkpt>
      <trkpt lat="42.70891" lon="1.41616">
        <ele>1227.2602539062</ele>
        <time>2012-09-15T15:24:45Z</time>
      </trkpt>
      <trkpt lat="42.70892" lon="1.41626">
        <ele>1227.7407226562</ele>
        <time>2012-09-15T15:24:51Z</time>
      </trkpt>
      <trkpt lat="42.70894" lon="1.41633">
        <ele>1227.7407226562</ele>
        <time>2012-09-15T15:24:54Z</time>
      </trkpt>
      <trkpt lat="42.70895" lon="1.41636">
        <ele>1230.1442871094</ele>
        <time>2012-09-15T15:24:56Z</time>
      </trkpt>
      <trkpt lat="42.70897" lon="1.41646">
        <ele>1230.625</ele>
        <time>2012-09-15T15:25:02Z</time>
      </trkpt>
      <trkpt lat="42.70898" lon="1.41657">
        <ele>1229.6635742188</ele>
        <time>2012-09-15T15:25:09Z</time>
      </trkpt>
      <trkpt lat="42.70902" lon="1.41667">
        <ele>1229.1828613281</ele>
        <time>2012-09-15T15:25:15Z</time>
      </trkpt>
      <trkpt lat="42.70905" lon="1.4168">
        <ele>1231.5861816406</ele>
        <time>2012-09-15T15:25:22Z</time>
      </trkpt>
      <trkpt lat="42.70905" lon="1.41685">
        <ele>1230.1442871094</ele>
        <time>2012-09-15T15:25:26Z</time>
      </trkpt>
      <trkpt lat="42.70905" lon="1.41689">
        <ele>1228.7023925781</ele>
        <time>2012-09-15T15:25:29Z</time>
      </trkpt>
      <trkpt lat="42.70907" lon="1.41699">
        <ele>1227.7407226562</ele>
        <time>2012-09-15T15:25:36Z</time>
      </trkpt>
      <trkpt lat="42.70907" lon="1.417">
        <ele>1227.2602539062</ele>
        <time>2012-09-15T15:25:37Z</time>
      </trkpt>
      <trkpt lat="42.70907" lon="1.41702">
        <ele>1225.8181152344</ele>
        <time>2012-09-15T15:25:39Z</time>
      </trkpt>
      <trkpt lat="42.70908" lon="1.41711">
        <ele>1226.298828125</ele>
        <time>2012-09-15T15:25:45Z</time>
      </trkpt>
      <trkpt lat="42.7091" lon="1.41717">
        <ele>1225.8181152344</ele>
        <time>2012-09-15T15:25:49Z</time>
      </trkpt>
      <trkpt lat="42.70913" lon="1.41723">
        <ele>1222.9343261719</ele>
        <time>2012-09-15T15:25:54Z</time>
      </trkpt>
      <trkpt lat="42.70914" lon="1.41725">
        <ele>1222.9343261719</ele>
        <time>2012-09-15T15:25:55Z</time>
      </trkpt>
      <trkpt lat="42.70917" lon="1.41732">
        <ele>1221.01171875</ele>
        <time>2012-09-15T15:26:01Z</time>
      </trkpt>
      <trkpt lat="42.70918" lon="1.4174">
        <ele>1220.5310058594</ele>
        <time>2012-09-15T15:26:05Z</time>
      </trkpt>
      <trkpt lat="42.70922" lon="1.41749">
        <ele>1218.6083984375</ele>
        <time>2012-09-15T15:26:11Z</time>
      </trkpt>
      <trkpt lat="42.70921" lon="1.41755">
        <ele>1217.1665039062</ele>
        <time>2012-09-15T15:26:15Z</time>
      </trkpt>
      <trkpt lat="42.7092" lon="1.41758">
        <ele>1217.1665039062</ele>
        <time>2012-09-15T15:26:17Z</time>
      </trkpt>
      <trkpt lat="42.70923" lon="1.41762">
        <ele>1219.5698242188</ele>
        <time>2012-09-15T15:26:20Z</time>
      </trkpt>
      <trkpt lat="42.70924" lon="1.41768">
        <ele>1216.6857910156</ele>
        <time>2012-09-15T15:26:25Z</time>
      </trkpt>
      <trkpt lat="42.70927" lon="1.41775">
        <ele>1214.2824707031</ele>
        <time>2012-09-15T15:26:32Z</time>
      </trkpt>
      <trkpt lat="42.70929" lon="1.41782">
        <ele>1212.3598632812</ele>
        <time>2012-09-15T15:26:38Z</time>
      </trkpt>
      <trkpt lat="42.70932" lon="1.41789">
        <ele>1212.8405761719</ele>
        <time>2012-09-15T15:26:42Z</time>
      </trkpt>
      <trkpt lat="42.70932" lon="1.41793">
        <ele>1214.2824707031</ele>
        <time>2012-09-15T15:26:44Z</time>
      </trkpt>
      <trkpt lat="42.70933" lon="1.41798">
        <ele>1215.2438964844</ele>
        <time>2012-09-15T15:26:47Z</time>
      </trkpt>
      <trkpt lat="42.70929" lon="1.41808">
        <ele>1214.2824707031</ele>
        <time>2012-09-15T15:26:54Z</time>
      </trkpt>
      <trkpt lat="42.7093" lon="1.41815">
        <ele>1216.205078125</ele>
        <time>2012-09-15T15:26:59Z</time>
      </trkpt>
      <trkpt lat="42.70933" lon="1.41827">
        <ele>1218.6083984375</ele>
        <time>2012-09-15T15:27:06Z</time>
      </trkpt>
      <trkpt lat="42.70934" lon="1.41835">
        <ele>1219.0891113281</ele>
        <time>2012-09-15T15:27:11Z</time>
      </trkpt>
      <trkpt lat="42.70937" lon="1.41843">
        <ele>1219.0891113281</ele>
        <time>2012-09-15T15:27:16Z</time>
      </trkpt>
      <trkpt lat="42.70938" lon="1.41845">
        <ele>1218.6083984375</ele>
        <time>2012-09-15T15:27:18Z</time>
      </trkpt>
      <trkpt lat="42.70938" lon="1.41848">
        <ele>1219.0891113281</ele>
        <time>2012-09-15T15:27:22Z</time>
      </trkpt>
      <trkpt lat="42.70936" lon="1.41854">
        <ele>1217.6469726562</ele>
        <time>2012-09-15T15:27:26Z</time>
      </trkpt>
      <trkpt lat="42.70935" lon="1.41863">
        <ele>1216.6857910156</ele>
        <time>2012-09-15T15:27:31Z</time>
      </trkpt>
      <trkpt lat="42.70934" lon="1.41867">
        <ele>1215.2438964844</ele>
        <time>2012-09-15T15:27:34Z</time>
      </trkpt>
      <trkpt lat="42.70937" lon="1.41876">
        <ele>1212.8405761719</ele>
        <time>2012-09-15T15:27:41Z</time>
      </trkpt>
      <trkpt lat="42.70941" lon="1.41885">
        <ele>1213.3212890625</ele>
        <time>2012-09-15T15:27:50Z</time>
      </trkpt>
      <trkpt lat="42.70944" lon="1.4189">
        <ele>1214.7631835938</ele>
        <time>2012-09-15T15:27:55Z</time>
      </trkpt>
      <trkpt lat="42.70943" lon="1.41896">
        <ele>1216.6857910156</ele>
        <time>2012-09-15T15:28:03Z</time>
      </trkpt>
      <trkpt lat="42.70942" lon="1.41903">
        <ele>1219.0891113281</ele>
        <time>2012-09-15T15:28:09Z</time>
      </trkpt>
      <trkpt lat="42.70942" lon="1.41912">
        <ele>1219.0891113281</ele>
        <time>2012-09-15T15:28:15Z</time>
      </trkpt>
      <trkpt lat="42.70938" lon="1.41917">
        <ele>1220.0502929688</ele>
        <time>2012-09-15T15:28:20Z</time>
      </trkpt>
      <trkpt lat="42.70938" lon="1.41929">
        <ele>1220.0502929688</ele>
        <time>2012-09-15T15:28:27Z</time>
      </trkpt>
      <trkpt lat="42.70938" lon="1.41931">
        <ele>1224.3762207031</ele>
        <time>2012-09-15T15:28:29Z</time>
      </trkpt>
      <trkpt lat="42.70936" lon="1.41937">
        <ele>1225.3374023438</ele>
        <time>2012-09-15T15:28:35Z</time>
      </trkpt>
      <trkpt lat="42.70932" lon="1.41949">
        <ele>1225.3374023438</ele>
        <time>2012-09-15T15:28:43Z</time>
      </trkpt>
      <trkpt lat="42.70932" lon="1.41957">
        <ele>1222.9343261719</ele>
        <time>2012-09-15T15:28:48Z</time>
      </trkpt>
      <trkpt lat="42.70931" lon="1.41966">
        <ele>1221.01171875</ele>
        <time>2012-09-15T15:28:54Z</time>
      </trkpt>
      <trkpt lat="42.70929" lon="1.4197">
        <ele>1220.5310058594</ele>
        <time>2012-09-15T15:28:57Z</time>
      </trkpt>
      <trkpt lat="42.70927" lon="1.41979">
        <ele>1216.205078125</ele>
        <time>2012-09-15T15:29:03Z</time>
      </trkpt>
      <trkpt lat="42.70927" lon="1.41987">
        <ele>1213.8017578125</ele>
        <time>2012-09-15T15:29:07Z</time>
      </trkpt>
      <trkpt lat="42.70924" lon="1.41996">
        <ele>1212.3598632812</ele>
        <time>2012-09-15T15:29:14Z</time>
      </trkpt>
      <trkpt lat="42.70921" lon="1.42007">
        <ele>1209.4758300781</ele>
        <time>2012-09-15T15:29:21Z</time>
      </trkpt>
      <trkpt lat="42.70921" lon="1.42012">
        <ele>1209.4758300781</ele>
        <time>2012-09-15T15:29:24Z</time>
      </trkpt>
      <trkpt lat="42.7092" lon="1.42022">
        <ele>1208.0339355469</ele>
        <time>2012-09-15T15:29:29Z</time>
      </trkpt>
      <trkpt lat="42.70919" lon="1.42035">
        <ele>1208.9951171875</ele>
        <time>2012-09-15T15:29:36Z</time>
      </trkpt>
      <trkpt lat="42.7092" lon="1.42047">
        <ele>1209.4758300781</ele>
        <time>2012-09-15T15:29:42Z</time>
      </trkpt>
      <trkpt lat="42.70921" lon="1.42055">
        <ele>1208.0339355469</ele>
        <time>2012-09-15T15:29:47Z</time>
      </trkpt>
      <trkpt lat="42.70924" lon="1.42063">
        <ele>1207.5532226562</ele>
        <time>2012-09-15T15:29:52Z</time>
      </trkpt>
      <trkpt lat="42.70928" lon="1.42075">
        <ele>1206.1110839844</ele>
        <time>2012-09-15T15:30:01Z</time>
      </trkpt>
      <trkpt lat="42.7093" lon="1.42086">
        <ele>1206.591796875</ele>
        <time>2012-09-15T15:30:07Z</time>
      </trkpt>
      <trkpt lat="42.70934" lon="1.42097">
        <ele>1206.1110839844</ele>
        <time>2012-09-15T15:30:14Z</time>
      </trkpt>
      <trkpt lat="42.70935" lon="1.421">
        <ele>1205.1499023438</ele>
        <time>2012-09-15T15:30:16Z</time>
      </trkpt>
      <trkpt lat="42.70935" lon="1.42107">
        <ele>1204.6691894531</ele>
        <time>2012-09-15T15:30:21Z</time>
      </trkpt>
      <trkpt lat="42.70938" lon="1.42112">
        <ele>1206.1110839844</ele>
        <time>2012-09-15T15:30:25Z</time>
      </trkpt>
      <trkpt lat="42.70943" lon="1.4212">
        <ele>1206.591796875</ele>
        <time>2012-09-15T15:30:30Z</time>
      </trkpt>
      <trkpt lat="42.70945" lon="1.42127">
        <ele>1205.1499023438</ele>
        <time>2012-09-15T15:30:34Z</time>
      </trkpt>
      <trkpt lat="42.70943" lon="1.4214">
        <ele>1204.6691894531</ele>
        <time>2012-09-15T15:30:39Z</time>
      </trkpt>
      <trkpt lat="42.70943" lon="1.42142">
        <ele>1203.7080078125</ele>
        <time>2012-09-15T15:30:40Z</time>
      </trkpt>
      <trkpt lat="42.70945" lon="1.42156">
        <ele>1197.4594726562</ele>
        <time>2012-09-15T15:30:47Z</time>
      </trkpt>
      <trkpt lat="42.7095" lon="1.42167">
        <ele>1191.69140625</ele>
        <time>2012-09-15T15:30:53Z</time>
      </trkpt>
      <trkpt lat="42.70952" lon="1.42177">
        <ele>1188.8076171875</ele>
        <time>2012-09-15T15:30:59Z</time>
      </trkpt>
      <trkpt lat="42.70953" lon="1.42185">
        <ele>1188.8076171875</ele>
        <time>2012-09-15T15:31:04Z</time>
      </trkpt>
      <trkpt lat="42.70953" lon="1.42188">
        <ele>1190.7299804688</ele>
        <time>2012-09-15T15:31:06Z</time>
      </trkpt>
      <trkpt lat="42.70953" lon="1.42202">
        <ele>1193.6140136719</ele>
        <time>2012-09-15T15:31:13Z</time>
      </trkpt>
      <trkpt lat="42.70953" lon="1.42216">
        <ele>1195.0559082031</ele>
        <time>2012-09-15T15:31:20Z</time>
      </trkpt>
      <trkpt lat="42.70956" lon="1.42227">
        <ele>1196.4982910156</ele>
        <time>2012-09-15T15:31:26Z</time>
      </trkpt>
      <trkpt lat="42.70957" lon="1.42235">
        <ele>1193.6140136719</ele>
        <time>2012-09-15T15:31:31Z</time>
      </trkpt>
      <trkpt lat="42.70959" lon="1.42241">
        <ele>1193.6140136719</ele>
        <time>2012-09-15T15:31:34Z</time>
      </trkpt>
      <trkpt lat="42.70962" lon="1.42247">
        <ele>1192.1721191406</ele>
        <time>2012-09-15T15:31:39Z</time>
      </trkpt>
      <trkpt lat="42.70964" lon="1.42258">
        <ele>1191.69140625</ele>
        <time>2012-09-15T15:31:47Z</time>
      </trkpt>
      <trkpt lat="42.70964" lon="1.4227">
        <ele>1190.2495117188</ele>
        <time>2012-09-15T15:31:54Z</time>
      </trkpt>
      <trkpt lat="42.70964" lon="1.42278">
        <ele>1189.2880859375</ele>
        <time>2012-09-15T15:31:59Z</time>
      </trkpt>
      <trkpt lat="42.70964" lon="1.42286">
        <ele>1188.3269042969</ele>
        <time>2012-09-15T15:32:03Z</time>
      </trkpt>
      <trkpt lat="42.70965" lon="1.42304">
        <ele>1188.8076171875</ele>
        <time>2012-09-15T15:32:13Z</time>
      </trkpt>
      <trkpt lat="42.70967" lon="1.42317">
        <ele>1187.8461914062</ele>
        <time>2012-09-15T15:32:21Z</time>
      </trkpt>
      <trkpt lat="42.70971" lon="1.42329">
        <ele>1188.3269042969</ele>
        <time>2012-09-15T15:32:28Z</time>
      </trkpt>
      <trkpt lat="42.70972" lon="1.42336">
        <ele>1189.2880859375</ele>
        <time>2012-09-15T15:32:32Z</time>
      </trkpt>
      <trkpt lat="42.70977" lon="1.42347">
        <ele>1191.2106933594</ele>
        <time>2012-09-15T15:32:38Z</time>
      </trkpt>
      <trkpt lat="42.70983" lon="1.42355">
        <ele>1191.69140625</ele>
        <time>2012-09-15T15:32:44Z</time>
      </trkpt>
      <trkpt lat="42.70985" lon="1.42359">
        <ele>1191.69140625</ele>
        <time>2012-09-15T15:32:47Z</time>
      </trkpt>
      <trkpt lat="42.70988" lon="1.42373">
        <ele>1194.0947265625</ele>
        <time>2012-09-15T15:32:55Z</time>
      </trkpt>
      <trkpt lat="42.70987" lon="1.42375">
        <ele>1194.0947265625</ele>
        <time>2012-09-15T15:32:57Z</time>
      </trkpt>
      <trkpt lat="42.70988" lon="1.42387">
        <ele>1193.1333007812</ele>
        <time>2012-09-15T15:33:05Z</time>
      </trkpt>
      <trkpt lat="42.7099" lon="1.42392">
        <ele>1194.0947265625</ele>
        <time>2012-09-15T15:33:08Z</time>
      </trkpt>
      <trkpt lat="42.70995" lon="1.42401">
        <ele>1195.5366210938</ele>
        <time>2012-09-15T15:33:14Z</time>
      </trkpt>
      <trkpt lat="42.70996" lon="1.42405">
        <ele>1195.0559082031</ele>
        <time>2012-09-15T15:33:16Z</time>
      </trkpt>
      <trkpt lat="42.71" lon="1.42417">
        <ele>1194.5751953125</ele>
        <time>2012-09-15T15:33:24Z</time>
      </trkpt>
      <trkpt lat="42.71" lon="1.42424">
        <ele>1191.69140625</ele>
        <time>2012-09-15T15:33:29Z</time>
      </trkpt>
      <trkpt lat="42.71002" lon="1.42433">
        <ele>1189.7687988281</ele>
        <time>2012-09-15T15:33:36Z</time>
      </trkpt>
      <trkpt lat="42.71004" lon="1.42438">
        <ele>1188.8076171875</ele>
        <time>2012-09-15T15:33:40Z</time>
      </trkpt>
      <trkpt lat="42.71007" lon="1.42448">
        <ele>1185.9235839844</ele>
        <time>2012-09-15T15:33:47Z</time>
      </trkpt>
      <trkpt lat="42.71008" lon="1.42457">
        <ele>1184.4816894531</ele>
        <time>2012-09-15T15:33:53Z</time>
      </trkpt>
      <trkpt lat="42.71015" lon="1.42472">
        <ele>1188.8076171875</ele>
        <time>2012-09-15T15:34:01Z</time>
      </trkpt>
      <trkpt lat="42.71019" lon="1.42486">
        <ele>1188.3269042969</ele>
        <time>2012-09-15T15:34:11Z</time>
      </trkpt>
      <trkpt lat="42.71028" lon="1.42501">
        <ele>1191.69140625</ele>
        <time>2012-09-15T15:34:21Z</time>
      </trkpt>
      <trkpt lat="42.71035" lon="1.4251">
        <ele>1195.0559082031</ele>
        <time>2012-09-15T15:34:28Z</time>
      </trkpt>
      <trkpt lat="42.71043" lon="1.42524">
        <ele>1196.9787597656</ele>
        <time>2012-09-15T15:34:38Z</time>
      </trkpt>
      <trkpt lat="42.71043" lon="1.42527">
        <ele>1195.5366210938</ele>
        <time>2012-09-15T15:34:40Z</time>
      </trkpt>
      <trkpt lat="42.71043" lon="1.42535">
        <ele>1189.2880859375</ele>
        <time>2012-09-15T15:34:48Z</time>
      </trkpt>
      <trkpt lat="42.71043" lon="1.42536">
        <ele>1188.3269042969</ele>
        <time>2012-09-15T15:34:49Z</time>
      </trkpt>
      <trkpt lat="42.71038" lon="1.42535">
        <ele>1184.9624023438</ele>
        <time>2012-09-15T15:34:53Z</time>
      </trkpt>
      <trkpt lat="42.71035" lon="1.4254">
        <ele>1179.6748046875</ele>
        <time>2012-09-15T15:35:00Z</time>
      </trkpt>
      <trkpt lat="42.71039" lon="1.42547">
        <ele>1176.3103027344</ele>
        <time>2012-09-15T15:35:07Z</time>
      </trkpt>
      <trkpt lat="42.7104" lon="1.4255">
        <ele>1175.8295898438</ele>
        <time>2012-09-15T15:35:09Z</time>
      </trkpt>
      <trkpt lat="42.71037" lon="1.42551">
        <ele>1174.3876953125</ele>
        <time>2012-09-15T15:35:11Z</time>
      </trkpt>
      <trkpt lat="42.71031" lon="1.42551">
        <ele>1173.4265136719</ele>
        <time>2012-09-15T15:35:17Z</time>
      </trkpt>
      <trkpt lat="42.71029" lon="1.42553">
        <ele>1173.9069824219</ele>
        <time>2012-09-15T15:35:19Z</time>
      </trkpt>
      <trkpt lat="42.71026" lon="1.42554">
        <ele>1173.9069824219</ele>
        <time>2012-09-15T15:35:21Z</time>
      </trkpt>
      <trkpt lat="42.71021" lon="1.42557">
        <ele>1173.9069824219</ele>
        <time>2012-09-15T15:35:26Z</time>
      </trkpt>
      <trkpt lat="42.71014" lon="1.4256">
        <ele>1172.4650878906</ele>
        <time>2012-09-15T15:35:32Z</time>
      </trkpt>
      <trkpt lat="42.71014" lon="1.4256">
        <ele>1171.984375</ele>
        <time>2012-09-15T15:35:33Z</time>
      </trkpt>
      <trkpt lat="42.7101" lon="1.4256">
        <ele>1170.0617675781</ele>
        <time>2012-09-15T15:35:41Z</time>
      </trkpt>
      <trkpt lat="42.71006" lon="1.42562">
        <ele>1171.0231933594</ele>
        <time>2012-09-15T15:35:46Z</time>
      </trkpt>
      <trkpt lat="42.71004" lon="1.42559">
        <ele>1170.5424804688</ele>
        <time>2012-09-15T15:35:57Z</time>
      </trkpt>
      <trkpt lat="42.71004" lon="1.42558">
        <ele>1169.1005859375</ele>
        <time>2012-09-15T15:35:58Z</time>
      </trkpt>
    </trkseg>
  </trk>
</gpx>